<?xml version="1.0" encoding="UTF-8" standalone="no" ?>
<gpx xmlns="http://www.topografix.com/GPX/1/1" xmlns:xsi="http://www.w3.org/2001/XMLSchema-instance" xsi:schemaLocation="http://www.topografix.com/GPX/1/1 http://www.topografix.com/GPX/1/1/gpx.xsd" version="1.1" creator="VisuGPX - https://www.visugpx.com">
  <metadata>
    <name>PDIPR Boucle de Bruzac Variante 15km</name>
  </metadata>
  <trk>
    <name><![CDATA[Boucle-De-Bruzac-INSEE-24485 9500 m deniv 480]]></name>
    <extensions>
      <line xmlns="http://www.topografix.com/GPX/gpx_style/0/2">
        <color>0000FF</color>
        <width>4</width>
      </line>
    </extensions>
    <trkseg>
      <trkpt lat="45.37074" lon="0.79223">
        <ele>128.541245</ele>
        <time>2014-11-04T09:58:26Z</time>
      </trkpt>
      <trkpt lat="45.37076" lon="0.7922">
        <ele>128.425552</ele>
        <time>2014-11-04T09:58:27Z</time>
      </trkpt>
      <trkpt lat="45.37079" lon="0.79216">
        <ele>128.318176</ele>
        <time>2014-11-04T09:58:28Z</time>
      </trkpt>
      <trkpt lat="45.37081" lon="0.79213">
        <ele>128.212723</ele>
        <time>2014-11-04T09:58:29Z</time>
      </trkpt>
      <trkpt lat="45.37084" lon="0.7921">
        <ele>128.161194</ele>
        <time>2014-11-04T09:58:30Z</time>
      </trkpt>
      <trkpt lat="45.37087" lon="0.79206">
        <ele>128.096191</ele>
        <time>2014-11-04T09:58:31Z</time>
      </trkpt>
      <trkpt lat="45.3709" lon="0.79203">
        <ele>128.027527</ele>
        <time>2014-11-04T09:58:32Z</time>
      </trkpt>
      <trkpt lat="45.37093" lon="0.79199">
        <ele>127.952042</ele>
        <time>2014-11-04T09:58:33Z</time>
      </trkpt>
      <trkpt lat="45.37096" lon="0.79196">
        <ele>127.878899</ele>
        <time>2014-11-04T09:58:34Z</time>
      </trkpt>
      <trkpt lat="45.37099" lon="0.79192">
        <ele>127.808937</ele>
        <time>2014-11-04T09:58:35Z</time>
      </trkpt>
      <trkpt lat="45.37102" lon="0.7919">
        <ele>127.754723</ele>
        <time>2014-11-04T09:58:36Z</time>
      </trkpt>
      <trkpt lat="45.37103" lon="0.79189">
        <ele>127.716705</ele>
        <time>2014-11-04T09:58:37Z</time>
      </trkpt>
      <trkpt lat="45.37104" lon="0.79188">
        <ele>127.698273</ele>
        <time>2014-11-04T09:58:38Z</time>
      </trkpt>
      <trkpt lat="45.37104" lon="0.79188">
        <ele>127.694778</ele>
        <time>2014-11-04T09:58:39Z</time>
      </trkpt>
      <trkpt lat="45.37104" lon="0.79188">
        <ele>127.693855</ele>
        <time>2014-11-04T09:58:40Z</time>
      </trkpt>
      <trkpt lat="45.37104" lon="0.79188">
        <ele>127.693787</ele>
        <time>2014-11-04T09:58:41Z</time>
      </trkpt>
      <trkpt lat="45.37104" lon="0.79188">
        <ele>127.694275</ele>
        <time>2014-11-04T09:58:42Z</time>
      </trkpt>
      <trkpt lat="45.37104" lon="0.79188">
        <ele>127.696259</ele>
        <time>2014-11-04T09:58:43Z</time>
      </trkpt>
      <trkpt lat="45.37105" lon="0.79188">
        <ele>127.684723</ele>
        <time>2014-11-04T09:58:44Z</time>
      </trkpt>
      <trkpt lat="45.37106" lon="0.79188">
        <ele>127.669464</ele>
        <time>2014-11-04T09:58:45Z</time>
      </trkpt>
      <trkpt lat="45.37106" lon="0.79187">
        <ele>127.653564</ele>
        <time>2014-11-04T09:58:46Z</time>
      </trkpt>
      <trkpt lat="45.37108" lon="0.79186">
        <ele>127.62368</ele>
        <time>2014-11-04T09:58:47Z</time>
      </trkpt>
      <trkpt lat="45.3711" lon="0.79185">
        <ele>127.574921</ele>
        <time>2014-11-04T09:58:48Z</time>
      </trkpt>
      <trkpt lat="45.37112" lon="0.79184">
        <ele>127.521523</ele>
        <time>2014-11-04T09:58:49Z</time>
      </trkpt>
      <trkpt lat="45.37114" lon="0.79183">
        <ele>127.478546</ele>
        <time>2014-11-04T09:58:50Z</time>
      </trkpt>
      <trkpt lat="45.37116" lon="0.79182">
        <ele>127.431587</ele>
        <time>2014-11-04T09:58:51Z</time>
      </trkpt>
      <trkpt lat="45.37119" lon="0.79181">
        <ele>127.376343</ele>
        <time>2014-11-04T09:58:52Z</time>
      </trkpt>
      <trkpt lat="45.37122" lon="0.7918">
        <ele>127.301529</ele>
        <time>2014-11-04T09:58:53Z</time>
      </trkpt>
      <trkpt lat="45.37126" lon="0.79178">
        <ele>127.222206</ele>
        <time>2014-11-04T09:58:54Z</time>
      </trkpt>
      <trkpt lat="45.3713" lon="0.79176">
        <ele>127.13298</ele>
        <time>2014-11-04T09:58:55Z</time>
      </trkpt>
      <trkpt lat="45.37134" lon="0.79175">
        <ele>127.038582</ele>
        <time>2014-11-04T09:58:56Z</time>
      </trkpt>
      <trkpt lat="45.37138" lon="0.79173">
        <ele>126.93383</ele>
        <time>2014-11-04T09:58:57Z</time>
      </trkpt>
      <trkpt lat="45.37142" lon="0.79172">
        <ele>126.802521</ele>
        <time>2014-11-04T09:58:58Z</time>
      </trkpt>
      <trkpt lat="45.37146" lon="0.7917">
        <ele>126.694817</ele>
        <time>2014-11-04T09:58:59Z</time>
      </trkpt>
      <trkpt lat="45.37149" lon="0.79169">
        <ele>126.596855</ele>
        <time>2014-11-04T09:59:00Z</time>
      </trkpt>
      <trkpt lat="45.37152" lon="0.79167">
        <ele>126.508156</ele>
        <time>2014-11-04T09:59:01Z</time>
      </trkpt>
      <trkpt lat="45.37154" lon="0.79166">
        <ele>126.45253</ele>
        <time>2014-11-04T09:59:02Z</time>
      </trkpt>
      <trkpt lat="45.37156" lon="0.79166">
        <ele>126.411255</ele>
        <time>2014-11-04T09:59:03Z</time>
      </trkpt>
      <trkpt lat="45.37158" lon="0.79165">
        <ele>126.364784</ele>
        <time>2014-11-04T09:59:04Z</time>
      </trkpt>
      <trkpt lat="45.3716" lon="0.79164">
        <ele>126.313545</ele>
        <time>2014-11-04T09:59:05Z</time>
      </trkpt>
      <trkpt lat="45.37163" lon="0.79162">
        <ele>126.250038</ele>
        <time>2014-11-04T09:59:06Z</time>
      </trkpt>
      <trkpt lat="45.37166" lon="0.79161">
        <ele>126.169182</ele>
        <time>2014-11-04T09:59:07Z</time>
      </trkpt>
      <trkpt lat="45.37169" lon="0.79159">
        <ele>126.099731</ele>
        <time>2014-11-04T09:59:08Z</time>
      </trkpt>
      <trkpt lat="45.37173" lon="0.79158">
        <ele>126.010559</ele>
        <time>2014-11-04T09:59:09Z</time>
      </trkpt>
      <trkpt lat="45.37177" lon="0.79157">
        <ele>125.931107</ele>
        <time>2014-11-04T09:59:10Z</time>
      </trkpt>
      <trkpt lat="45.3718" lon="0.79156">
        <ele>125.864601</ele>
        <time>2014-11-04T09:59:11Z</time>
      </trkpt>
      <trkpt lat="45.37183" lon="0.79155">
        <ele>125.864159</ele>
        <time>2014-11-04T09:59:12Z</time>
      </trkpt>
      <trkpt lat="45.37186" lon="0.79154">
        <ele>125.880974</ele>
        <time>2014-11-04T09:59:13Z</time>
      </trkpt>
      <trkpt lat="45.3719" lon="0.79153">
        <ele>125.901566</ele>
        <time>2014-11-04T09:59:14Z</time>
      </trkpt>
      <trkpt lat="45.37193" lon="0.79151">
        <ele>125.926735</ele>
        <time>2014-11-04T09:59:15Z</time>
      </trkpt>
      <trkpt lat="45.37198" lon="0.79149">
        <ele>125.95417</ele>
        <time>2014-11-04T09:59:16Z</time>
      </trkpt>
      <trkpt lat="45.37202" lon="0.79147">
        <ele>125.981834</ele>
        <time>2014-11-04T09:59:17Z</time>
      </trkpt>
      <trkpt lat="45.37208" lon="0.79146">
        <ele>126.005005</ele>
        <time>2014-11-04T09:59:18Z</time>
      </trkpt>
      <trkpt lat="45.37213" lon="0.79144">
        <ele>126.028854</ele>
        <time>2014-11-04T09:59:19Z</time>
      </trkpt>
      <trkpt lat="45.37218" lon="0.79142">
        <ele>126.059998</ele>
        <time>2014-11-04T09:59:20Z</time>
      </trkpt>
      <trkpt lat="45.37223" lon="0.79139">
        <ele>126.093559</ele>
        <time>2014-11-04T09:59:21Z</time>
      </trkpt>
      <trkpt lat="45.37228" lon="0.79137">
        <ele>126.24382</ele>
        <time>2014-11-04T09:59:22Z</time>
      </trkpt>
      <trkpt lat="45.37232" lon="0.79135">
        <ele>126.470825</ele>
        <time>2014-11-04T09:59:23Z</time>
      </trkpt>
      <trkpt lat="45.37236" lon="0.79133">
        <ele>126.694168</ele>
        <time>2014-11-04T09:59:24Z</time>
      </trkpt>
      <trkpt lat="45.37241" lon="0.79132">
        <ele>126.921165</ele>
        <time>2014-11-04T09:59:25Z</time>
      </trkpt>
      <trkpt lat="45.37246" lon="0.7913">
        <ele>127.167946</ele>
        <time>2014-11-04T09:59:26Z</time>
      </trkpt>
      <trkpt lat="45.37251" lon="0.79127">
        <ele>127.442062</ele>
        <time>2014-11-04T09:59:27Z</time>
      </trkpt>
      <trkpt lat="45.37256" lon="0.79124">
        <ele>127.7192</ele>
        <time>2014-11-04T09:59:28Z</time>
      </trkpt>
      <trkpt lat="45.37261" lon="0.79121">
        <ele>127.98291</ele>
        <time>2014-11-04T09:59:29Z</time>
      </trkpt>
      <trkpt lat="45.37265" lon="0.79119">
        <ele>128.211304</ele>
        <time>2014-11-04T09:59:30Z</time>
      </trkpt>
      <trkpt lat="45.37269" lon="0.79116">
        <ele>128.408035</ele>
        <time>2014-11-04T09:59:31Z</time>
      </trkpt>
      <trkpt lat="45.37272" lon="0.79114">
        <ele>128.639297</ele>
        <time>2014-11-04T09:59:32Z</time>
      </trkpt>
      <trkpt lat="45.37274" lon="0.79114">
        <ele>128.813919</ele>
        <time>2014-11-04T09:59:33Z</time>
      </trkpt>
      <trkpt lat="45.37277" lon="0.79114">
        <ele>128.987564</ele>
        <time>2014-11-04T09:59:34Z</time>
      </trkpt>
      <trkpt lat="45.37279" lon="0.79116">
        <ele>129.12323</ele>
        <time>2014-11-04T09:59:35Z</time>
      </trkpt>
      <trkpt lat="45.3728" lon="0.79118">
        <ele>129.201797</ele>
        <time>2014-11-04T09:59:36Z</time>
      </trkpt>
      <trkpt lat="45.37281" lon="0.79121">
        <ele>129.359436</ele>
        <time>2014-11-04T09:59:37Z</time>
      </trkpt>
      <trkpt lat="45.37282" lon="0.79122">
        <ele>129.382202</ele>
        <time>2014-11-04T09:59:38Z</time>
      </trkpt>
      <trkpt lat="45.37282" lon="0.79121">
        <ele>129.378723</ele>
        <time>2014-11-04T09:59:39Z</time>
      </trkpt>
      <trkpt lat="45.37282" lon="0.79122">
        <ele>129.384628</ele>
        <time>2014-11-04T09:59:40Z</time>
      </trkpt>
      <trkpt lat="45.37282" lon="0.79122">
        <ele>129.383957</ele>
        <time>2014-11-04T09:59:41Z</time>
      </trkpt>
      <trkpt lat="45.37282" lon="0.79122">
        <ele>129.370758</ele>
        <time>2014-11-04T09:59:42Z</time>
      </trkpt>
      <trkpt lat="45.37281" lon="0.79122">
        <ele>129.336502</ele>
        <time>2014-11-04T09:59:43Z</time>
      </trkpt>
      <trkpt lat="45.37281" lon="0.79122">
        <ele>129.321503</ele>
        <time>2014-11-04T09:59:44Z</time>
      </trkpt>
      <trkpt lat="45.37281" lon="0.79122">
        <ele>129.292786</ele>
        <time>2014-11-04T09:59:45Z</time>
      </trkpt>
      <trkpt lat="45.3728" lon="0.79122">
        <ele>129.260193</ele>
        <time>2014-11-04T09:59:46Z</time>
      </trkpt>
      <trkpt lat="45.3728" lon="0.79122">
        <ele>129.218613</ele>
        <time>2014-11-04T09:59:47Z</time>
      </trkpt>
      <trkpt lat="45.37279" lon="0.79122">
        <ele>129.173401</ele>
        <time>2014-11-04T09:59:48Z</time>
      </trkpt>
      <trkpt lat="45.37279" lon="0.79122">
        <ele>129.125961</ele>
        <time>2014-11-04T09:59:49Z</time>
      </trkpt>
      <trkpt lat="45.37278" lon="0.79122">
        <ele>129.082733</ele>
        <time>2014-11-04T09:59:50Z</time>
      </trkpt>
      <trkpt lat="45.37278" lon="0.79122">
        <ele>129.046371</ele>
        <time>2014-11-04T09:59:51Z</time>
      </trkpt>
      <trkpt lat="45.37277" lon="0.79122">
        <ele>129.022598</ele>
        <time>2014-11-04T09:59:52Z</time>
      </trkpt>
      <trkpt lat="45.37278" lon="0.79122">
        <ele>129.043213</ele>
        <time>2014-11-04T09:59:53Z</time>
      </trkpt>
      <trkpt lat="45.37278" lon="0.79122">
        <ele>129.055771</ele>
        <time>2014-11-04T09:59:54Z</time>
      </trkpt>
      <trkpt lat="45.37278" lon="0.79122">
        <ele>129.0858</ele>
        <time>2014-11-04T09:59:55Z</time>
      </trkpt>
      <trkpt lat="45.37279" lon="0.79122">
        <ele>129.126099</ele>
        <time>2014-11-04T09:59:56Z</time>
      </trkpt>
      <trkpt lat="45.37279" lon="0.79122">
        <ele>129.17189</ele>
        <time>2014-11-04T09:59:57Z</time>
      </trkpt>
      <trkpt lat="45.37279" lon="0.79123">
        <ele>129.19252</ele>
        <time>2014-11-04T09:59:58Z</time>
      </trkpt>
      <trkpt lat="45.3728" lon="0.79123">
        <ele>129.22551</ele>
        <time>2014-11-04T09:59:59Z</time>
      </trkpt>
      <trkpt lat="45.3728" lon="0.79123">
        <ele>129.255325</ele>
        <time>2014-11-04T10:00:00Z</time>
      </trkpt>
      <trkpt lat="45.3728" lon="0.79123">
        <ele>129.266586</ele>
        <time>2014-11-04T10:00:01Z</time>
      </trkpt>
      <trkpt lat="45.3728" lon="0.79123">
        <ele>129.292206</ele>
        <time>2014-11-04T10:00:02Z</time>
      </trkpt>
      <trkpt lat="45.37281" lon="0.79124">
        <ele>129.32338</ele>
        <time>2014-11-04T10:00:03Z</time>
      </trkpt>
      <trkpt lat="45.37281" lon="0.79124">
        <ele>129.356171</ele>
        <time>2014-11-04T10:00:04Z</time>
      </trkpt>
      <trkpt lat="45.37281" lon="0.79124">
        <ele>129.376694</ele>
        <time>2014-11-04T10:00:05Z</time>
      </trkpt>
      <trkpt lat="45.37282" lon="0.79124">
        <ele>129.399139</ele>
        <time>2014-11-04T10:00:06Z</time>
      </trkpt>
      <trkpt lat="45.37282" lon="0.79124">
        <ele>129.422592</ele>
        <time>2014-11-04T10:00:07Z</time>
      </trkpt>
      <trkpt lat="45.37282" lon="0.79124">
        <ele>129.436981</ele>
        <time>2014-11-04T10:00:08Z</time>
      </trkpt>
      <trkpt lat="45.37282" lon="0.79124">
        <ele>129.446259</ele>
        <time>2014-11-04T10:00:09Z</time>
      </trkpt>
      <trkpt lat="45.37282" lon="0.79124">
        <ele>129.467728</ele>
        <time>2014-11-04T10:00:10Z</time>
      </trkpt>
      <trkpt lat="45.37283" lon="0.79124">
        <ele>129.499252</ele>
        <time>2014-11-04T10:00:11Z</time>
      </trkpt>
      <trkpt lat="45.37283" lon="0.79124">
        <ele>129.514954</ele>
        <time>2014-11-04T10:00:12Z</time>
      </trkpt>
      <trkpt lat="45.37283" lon="0.79125">
        <ele>129.54538</ele>
        <time>2014-11-04T10:00:13Z</time>
      </trkpt>
      <trkpt lat="45.37284" lon="0.79125">
        <ele>129.588181</ele>
        <time>2014-11-04T10:00:14Z</time>
      </trkpt>
      <trkpt lat="45.37284" lon="0.79125">
        <ele>129.60289</ele>
        <time>2014-11-04T10:00:15Z</time>
      </trkpt>
      <trkpt lat="45.37284" lon="0.79125">
        <ele>129.609818</ele>
        <time>2014-11-04T10:00:16Z</time>
      </trkpt>
      <trkpt lat="45.37284" lon="0.79125">
        <ele>129.62323</ele>
        <time>2014-11-04T10:00:17Z</time>
      </trkpt>
      <trkpt lat="45.37284" lon="0.79125">
        <ele>129.623306</ele>
        <time>2014-11-04T10:00:18Z</time>
      </trkpt>
      <trkpt lat="45.37285" lon="0.79126">
        <ele>129.696289</ele>
        <time>2014-11-04T10:00:19Z</time>
      </trkpt>
      <trkpt lat="45.37286" lon="0.79127">
        <ele>129.833878</ele>
        <time>2014-11-04T10:00:20Z</time>
      </trkpt>
      <trkpt lat="45.37287" lon="0.79129">
        <ele>130.022537</ele>
        <time>2014-11-04T10:00:21Z</time>
      </trkpt>
      <trkpt lat="45.37289" lon="0.79131">
        <ele>130.226456</ele>
        <time>2014-11-04T10:00:22Z</time>
      </trkpt>
      <trkpt lat="45.37289" lon="0.79134">
        <ele>130.363754</ele>
        <time>2014-11-04T10:00:23Z</time>
      </trkpt>
      <trkpt lat="45.3729" lon="0.79138">
        <ele>130.510437</ele>
        <time>2014-11-04T10:00:24Z</time>
      </trkpt>
      <trkpt lat="45.37291" lon="0.79141">
        <ele>130.715805</ele>
        <time>2014-11-04T10:00:25Z</time>
      </trkpt>
      <trkpt lat="45.37292" lon="0.79145">
        <ele>130.881241</ele>
        <time>2014-11-04T10:00:26Z</time>
      </trkpt>
      <trkpt lat="45.37292" lon="0.79148">
        <ele>130.932007</ele>
        <time>2014-11-04T10:00:27Z</time>
      </trkpt>
      <trkpt lat="45.37293" lon="0.7915">
        <ele>131.026688</ele>
        <time>2014-11-04T10:00:28Z</time>
      </trkpt>
      <trkpt lat="45.37295" lon="0.79153">
        <ele>131.176315</ele>
        <time>2014-11-04T10:00:29Z</time>
      </trkpt>
      <trkpt lat="45.37296" lon="0.79157">
        <ele>131.319077</ele>
        <time>2014-11-04T10:00:30Z</time>
      </trkpt>
      <trkpt lat="45.37297" lon="0.7916">
        <ele>131.441254</ele>
        <time>2014-11-04T10:00:31Z</time>
      </trkpt>
      <trkpt lat="45.37298" lon="0.79164">
        <ele>131.534042</ele>
        <time>2014-11-04T10:00:32Z</time>
      </trkpt>
      <trkpt lat="45.37299" lon="0.79168">
        <ele>131.647461</ele>
        <time>2014-11-04T10:00:33Z</time>
      </trkpt>
      <trkpt lat="45.373" lon="0.79171">
        <ele>131.796646</ele>
        <time>2014-11-04T10:00:34Z</time>
      </trkpt>
      <trkpt lat="45.37301" lon="0.79175">
        <ele>131.976074</ele>
        <time>2014-11-04T10:00:35Z</time>
      </trkpt>
      <trkpt lat="45.37303" lon="0.79179">
        <ele>132.198502</ele>
        <time>2014-11-04T10:00:36Z</time>
      </trkpt>
      <trkpt lat="45.37304" lon="0.79185">
        <ele>132.332809</ele>
        <time>2014-11-04T10:00:37Z</time>
      </trkpt>
      <trkpt lat="45.37306" lon="0.7919">
        <ele>132.49295</ele>
        <time>2014-11-04T10:00:38Z</time>
      </trkpt>
      <trkpt lat="45.37307" lon="0.79195">
        <ele>132.702255</ele>
        <time>2014-11-04T10:00:39Z</time>
      </trkpt>
      <trkpt lat="45.37308" lon="0.792">
        <ele>132.830719</ele>
        <time>2014-11-04T10:00:40Z</time>
      </trkpt>
      <trkpt lat="45.3731" lon="0.79203">
        <ele>133.10553</ele>
        <time>2014-11-04T10:00:41Z</time>
      </trkpt>
      <trkpt lat="45.37313" lon="0.7921">
        <ele>133.302795</ele>
        <time>2014-11-04T10:00:42Z</time>
      </trkpt>
      <trkpt lat="45.37316" lon="0.79217">
        <ele>133.431732</ele>
        <time>2014-11-04T10:00:43Z</time>
      </trkpt>
      <trkpt lat="45.3732" lon="0.79223">
        <ele>133.667679</ele>
        <time>2014-11-04T10:00:44Z</time>
      </trkpt>
      <trkpt lat="45.37323" lon="0.79228">
        <ele>133.886734</ele>
        <time>2014-11-04T10:00:45Z</time>
      </trkpt>
      <trkpt lat="45.37326" lon="0.79234">
        <ele>134.145798</ele>
        <time>2014-11-04T10:00:46Z</time>
      </trkpt>
      <trkpt lat="45.3733" lon="0.79238">
        <ele>134.510635</ele>
        <time>2014-11-04T10:00:47Z</time>
      </trkpt>
      <trkpt lat="45.37332" lon="0.79241">
        <ele>134.818649</ele>
        <time>2014-11-04T10:00:48Z</time>
      </trkpt>
      <trkpt lat="45.37335" lon="0.79244">
        <ele>135.054306</ele>
        <time>2014-11-04T10:00:49Z</time>
      </trkpt>
      <trkpt lat="45.37337" lon="0.79247">
        <ele>135.191177</ele>
        <time>2014-11-04T10:00:50Z</time>
      </trkpt>
      <trkpt lat="45.37338" lon="0.79249">
        <ele>135.345688</ele>
        <time>2014-11-04T10:00:51Z</time>
      </trkpt>
      <trkpt lat="45.3734" lon="0.79251">
        <ele>135.487427</ele>
        <time>2014-11-04T10:00:52Z</time>
      </trkpt>
      <trkpt lat="45.37342" lon="0.79253">
        <ele>135.641846</ele>
        <time>2014-11-04T10:00:53Z</time>
      </trkpt>
      <trkpt lat="45.37343" lon="0.79254">
        <ele>135.80423</ele>
        <time>2014-11-04T10:00:54Z</time>
      </trkpt>
      <trkpt lat="45.37343" lon="0.79254">
        <ele>135.805466</ele>
        <time>2014-11-04T10:00:55Z</time>
      </trkpt>
      <trkpt lat="45.37343" lon="0.79254">
        <ele>135.805466</ele>
        <time>2014-11-04T10:00:56Z</time>
      </trkpt>
      <trkpt lat="45.37343" lon="0.79254">
        <ele>135.805466</ele>
        <time>2014-11-04T10:00:57Z</time>
      </trkpt>
      <trkpt lat="45.37343" lon="0.79254">
        <ele>135.805466</ele>
        <time>2014-11-04T10:00:58Z</time>
      </trkpt>
      <trkpt lat="45.37343" lon="0.79254">
        <ele>135.805466</ele>
        <time>2014-11-04T10:00:59Z</time>
      </trkpt>
      <trkpt lat="45.37343" lon="0.79254">
        <ele>135.805466</ele>
        <time>2014-11-04T10:01:00Z</time>
      </trkpt>
      <trkpt lat="45.37343" lon="0.79254">
        <ele>135.805466</ele>
        <time>2014-11-04T10:01:01Z</time>
      </trkpt>
      <trkpt lat="45.37343" lon="0.79254">
        <ele>135.805466</ele>
        <time>2014-11-04T10:01:02Z</time>
      </trkpt>
      <trkpt lat="45.37343" lon="0.79254">
        <ele>135.805466</ele>
        <time>2014-11-04T10:01:03Z</time>
      </trkpt>
      <trkpt lat="45.37343" lon="0.79254">
        <ele>135.805466</ele>
        <time>2014-11-04T10:01:04Z</time>
      </trkpt>
      <trkpt lat="45.37343" lon="0.79254">
        <ele>135.805466</ele>
        <time>2014-11-04T10:01:05Z</time>
      </trkpt>
      <trkpt lat="45.37343" lon="0.79254">
        <ele>135.805466</ele>
        <time>2014-11-04T10:01:06Z</time>
      </trkpt>
      <trkpt lat="45.37344" lon="0.79256">
        <ele>135.908264</ele>
        <time>2014-11-04T10:01:07Z</time>
      </trkpt>
      <trkpt lat="45.37346" lon="0.79258">
        <ele>136.046555</ele>
        <time>2014-11-04T10:01:08Z</time>
      </trkpt>
      <trkpt lat="45.37347" lon="0.79261">
        <ele>136.136414</ele>
        <time>2014-11-04T10:01:09Z</time>
      </trkpt>
      <trkpt lat="45.37349" lon="0.79264">
        <ele>136.199371</ele>
        <time>2014-11-04T10:01:10Z</time>
      </trkpt>
      <trkpt lat="45.37351" lon="0.79267">
        <ele>136.332443</ele>
        <time>2014-11-04T10:01:11Z</time>
      </trkpt>
      <trkpt lat="45.37354" lon="0.79272">
        <ele>136.219254</ele>
        <time>2014-11-04T10:01:12Z</time>
      </trkpt>
      <trkpt lat="45.37356" lon="0.79276">
        <ele>135.920166</ele>
        <time>2014-11-04T10:01:13Z</time>
      </trkpt>
      <trkpt lat="45.37357" lon="0.7928">
        <ele>135.605316</ele>
        <time>2014-11-04T10:01:14Z</time>
      </trkpt>
      <trkpt lat="45.37359" lon="0.79283">
        <ele>135.376923</ele>
        <time>2014-11-04T10:01:15Z</time>
      </trkpt>
      <trkpt lat="45.3736" lon="0.79285">
        <ele>135.22641</ele>
        <time>2014-11-04T10:01:16Z</time>
      </trkpt>
      <trkpt lat="45.37361" lon="0.79287">
        <ele>135.063141</ele>
        <time>2014-11-04T10:01:17Z</time>
      </trkpt>
      <trkpt lat="45.37363" lon="0.7929">
        <ele>134.928329</ele>
        <time>2014-11-04T10:01:18Z</time>
      </trkpt>
      <trkpt lat="45.37364" lon="0.79292">
        <ele>134.808029</ele>
        <time>2014-11-04T10:01:19Z</time>
      </trkpt>
      <trkpt lat="45.37366" lon="0.79294">
        <ele>134.687454</ele>
        <time>2014-11-04T10:01:20Z</time>
      </trkpt>
      <trkpt lat="45.37367" lon="0.79296">
        <ele>134.620331</ele>
        <time>2014-11-04T10:01:21Z</time>
      </trkpt>
      <trkpt lat="45.37368" lon="0.79298">
        <ele>134.43248</ele>
        <time>2014-11-04T10:01:22Z</time>
      </trkpt>
      <trkpt lat="45.37369" lon="0.79301">
        <ele>134.294235</ele>
        <time>2014-11-04T10:01:23Z</time>
      </trkpt>
      <trkpt lat="45.3737" lon="0.79302">
        <ele>134.236603</ele>
        <time>2014-11-04T10:01:24Z</time>
      </trkpt>
      <trkpt lat="45.37371" lon="0.79304">
        <ele>134.127914</ele>
        <time>2014-11-04T10:01:25Z</time>
      </trkpt>
      <trkpt lat="45.37373" lon="0.79306">
        <ele>134.069458</ele>
        <time>2014-11-04T10:01:26Z</time>
      </trkpt>
      <trkpt lat="45.37374" lon="0.79308">
        <ele>133.994461</ele>
        <time>2014-11-04T10:01:27Z</time>
      </trkpt>
      <trkpt lat="45.37375" lon="0.7931">
        <ele>133.935379</ele>
        <time>2014-11-04T10:01:28Z</time>
      </trkpt>
      <trkpt lat="45.37377" lon="0.79312">
        <ele>133.947968</ele>
        <time>2014-11-04T10:01:29Z</time>
      </trkpt>
      <trkpt lat="45.37378" lon="0.79313">
        <ele>133.923874</ele>
        <time>2014-11-04T10:01:30Z</time>
      </trkpt>
      <trkpt lat="45.37379" lon="0.79314">
        <ele>133.935257</ele>
        <time>2014-11-04T10:01:31Z</time>
      </trkpt>
      <trkpt lat="45.3738" lon="0.79316">
        <ele>134.010834</ele>
        <time>2014-11-04T10:01:32Z</time>
      </trkpt>
      <trkpt lat="45.37382" lon="0.79318">
        <ele>133.998032</ele>
        <time>2014-11-04T10:01:33Z</time>
      </trkpt>
      <trkpt lat="45.37383" lon="0.7932">
        <ele>133.947433</ele>
        <time>2014-11-04T10:01:34Z</time>
      </trkpt>
      <trkpt lat="45.37385" lon="0.79322">
        <ele>133.838623</ele>
        <time>2014-11-04T10:01:35Z</time>
      </trkpt>
      <trkpt lat="45.37386" lon="0.79325">
        <ele>133.801956</ele>
        <time>2014-11-04T10:01:36Z</time>
      </trkpt>
      <trkpt lat="45.37388" lon="0.79328">
        <ele>133.71347</ele>
        <time>2014-11-04T10:01:37Z</time>
      </trkpt>
      <trkpt lat="45.37389" lon="0.7933">
        <ele>133.666</ele>
        <time>2014-11-04T10:01:38Z</time>
      </trkpt>
      <trkpt lat="45.37391" lon="0.79333">
        <ele>133.631546</ele>
        <time>2014-11-04T10:01:39Z</time>
      </trkpt>
      <trkpt lat="45.37393" lon="0.79335">
        <ele>133.716141</ele>
        <time>2014-11-04T10:01:40Z</time>
      </trkpt>
      <trkpt lat="45.37395" lon="0.79337">
        <ele>133.863251</ele>
        <time>2014-11-04T10:01:41Z</time>
      </trkpt>
      <trkpt lat="45.37397" lon="0.79338">
        <ele>134.002594</ele>
        <time>2014-11-04T10:01:42Z</time>
      </trkpt>
      <trkpt lat="45.37398" lon="0.7934">
        <ele>134.093445</ele>
        <time>2014-11-04T10:01:43Z</time>
      </trkpt>
      <trkpt lat="45.374" lon="0.7934">
        <ele>134.338348</ele>
        <time>2014-11-04T10:01:44Z</time>
      </trkpt>
      <trkpt lat="45.37401" lon="0.79341">
        <ele>134.462433</ele>
        <time>2014-11-04T10:01:45Z</time>
      </trkpt>
      <trkpt lat="45.37402" lon="0.79341">
        <ele>134.595047</ele>
        <time>2014-11-04T10:01:46Z</time>
      </trkpt>
      <trkpt lat="45.37403" lon="0.79341">
        <ele>134.68605</ele>
        <time>2014-11-04T10:01:47Z</time>
      </trkpt>
      <trkpt lat="45.37403" lon="0.79341">
        <ele>134.686081</ele>
        <time>2014-11-04T10:01:48Z</time>
      </trkpt>
      <trkpt lat="45.37403" lon="0.79341">
        <ele>134.686081</ele>
        <time>2014-11-04T10:01:49Z</time>
      </trkpt>
      <trkpt lat="45.37403" lon="0.79341">
        <ele>134.686081</ele>
        <time>2014-11-04T10:01:50Z</time>
      </trkpt>
      <trkpt lat="45.37403" lon="0.79341">
        <ele>134.686081</ele>
        <time>2014-11-04T10:01:51Z</time>
      </trkpt>
      <trkpt lat="45.37404" lon="0.79341">
        <ele>134.853638</ele>
        <time>2014-11-04T10:01:52Z</time>
      </trkpt>
      <trkpt lat="45.37405" lon="0.79342">
        <ele>134.972519</ele>
        <time>2014-11-04T10:01:53Z</time>
      </trkpt>
      <trkpt lat="45.37407" lon="0.79344">
        <ele>135.048737</ele>
        <time>2014-11-04T10:01:54Z</time>
      </trkpt>
      <trkpt lat="45.37409" lon="0.79346">
        <ele>135.131927</ele>
        <time>2014-11-04T10:01:55Z</time>
      </trkpt>
      <trkpt lat="45.37411" lon="0.79348">
        <ele>135.094559</ele>
        <time>2014-11-04T10:01:56Z</time>
      </trkpt>
      <trkpt lat="45.37413" lon="0.7935">
        <ele>135.085831</ele>
        <time>2014-11-04T10:01:57Z</time>
      </trkpt>
      <trkpt lat="45.37414" lon="0.79352">
        <ele>135.016068</ele>
        <time>2014-11-04T10:01:58Z</time>
      </trkpt>
      <trkpt lat="45.37415" lon="0.79354">
        <ele>134.892258</ele>
        <time>2014-11-04T10:01:59Z</time>
      </trkpt>
      <trkpt lat="45.37416" lon="0.79355">
        <ele>134.886032</ele>
        <time>2014-11-04T10:02:00Z</time>
      </trkpt>
      <trkpt lat="45.37416" lon="0.79355">
        <ele>134.885956</ele>
        <time>2014-11-04T10:02:01Z</time>
      </trkpt>
      <trkpt lat="45.37416" lon="0.79355">
        <ele>134.885956</ele>
        <time>2014-11-04T10:02:02Z</time>
      </trkpt>
      <trkpt lat="45.37416" lon="0.79355">
        <ele>134.885956</ele>
        <time>2014-11-04T10:02:03Z</time>
      </trkpt>
      <trkpt lat="45.37416" lon="0.79355">
        <ele>134.885956</ele>
        <time>2014-11-04T10:02:04Z</time>
      </trkpt>
      <trkpt lat="45.37416" lon="0.79355">
        <ele>134.885956</ele>
        <time>2014-11-04T10:02:05Z</time>
      </trkpt>
      <trkpt lat="45.37416" lon="0.79355">
        <ele>134.885956</ele>
        <time>2014-11-04T10:02:06Z</time>
      </trkpt>
      <trkpt lat="45.37416" lon="0.79355">
        <ele>134.885956</ele>
        <time>2014-11-04T10:02:07Z</time>
      </trkpt>
      <trkpt lat="45.37416" lon="0.79355">
        <ele>134.885956</ele>
        <time>2014-11-04T10:02:08Z</time>
      </trkpt>
      <trkpt lat="45.37416" lon="0.79355">
        <ele>134.885956</ele>
        <time>2014-11-04T10:02:09Z</time>
      </trkpt>
      <trkpt lat="45.37416" lon="0.79355">
        <ele>134.885956</ele>
        <time>2014-11-04T10:02:10Z</time>
      </trkpt>
      <trkpt lat="45.37416" lon="0.79355">
        <ele>134.885956</ele>
        <time>2014-11-04T10:02:11Z</time>
      </trkpt>
      <trkpt lat="45.37416" lon="0.79355">
        <ele>134.885956</ele>
        <time>2014-11-04T10:02:12Z</time>
      </trkpt>
      <trkpt lat="45.37416" lon="0.79355">
        <ele>134.885956</ele>
        <time>2014-11-04T10:02:13Z</time>
      </trkpt>
      <trkpt lat="45.37416" lon="0.79355">
        <ele>134.885956</ele>
        <time>2014-11-04T10:02:14Z</time>
      </trkpt>
      <trkpt lat="45.37416" lon="0.79355">
        <ele>134.885956</ele>
        <time>2014-11-04T10:02:15Z</time>
      </trkpt>
      <trkpt lat="45.37416" lon="0.79355">
        <ele>134.885956</ele>
        <time>2014-11-04T10:02:16Z</time>
      </trkpt>
      <trkpt lat="45.37416" lon="0.79355">
        <ele>134.885956</ele>
        <time>2014-11-04T10:02:17Z</time>
      </trkpt>
      <trkpt lat="45.37416" lon="0.79355">
        <ele>134.885956</ele>
        <time>2014-11-04T10:02:18Z</time>
      </trkpt>
      <trkpt lat="45.37416" lon="0.79355">
        <ele>134.885956</ele>
        <time>2014-11-04T10:02:19Z</time>
      </trkpt>
      <trkpt lat="45.37416" lon="0.79355">
        <ele>134.885956</ele>
        <time>2014-11-04T10:02:20Z</time>
      </trkpt>
      <trkpt lat="45.37416" lon="0.79355">
        <ele>134.885956</ele>
        <time>2014-11-04T10:02:21Z</time>
      </trkpt>
      <trkpt lat="45.37416" lon="0.79355">
        <ele>134.885956</ele>
        <time>2014-11-04T10:02:22Z</time>
      </trkpt>
      <trkpt lat="45.37416" lon="0.79355">
        <ele>134.885956</ele>
        <time>2014-11-04T10:02:23Z</time>
      </trkpt>
      <trkpt lat="45.37416" lon="0.79355">
        <ele>134.885956</ele>
        <time>2014-11-04T10:02:24Z</time>
      </trkpt>
      <trkpt lat="45.37416" lon="0.79355">
        <ele>134.885956</ele>
        <time>2014-11-04T10:02:25Z</time>
      </trkpt>
      <trkpt lat="45.37416" lon="0.79355">
        <ele>134.885956</ele>
        <time>2014-11-04T10:02:26Z</time>
      </trkpt>
      <trkpt lat="45.37416" lon="0.79355">
        <ele>134.885956</ele>
        <time>2014-11-04T10:02:27Z</time>
      </trkpt>
      <trkpt lat="45.37416" lon="0.79355">
        <ele>134.885956</ele>
        <time>2014-11-04T10:02:28Z</time>
      </trkpt>
      <trkpt lat="45.37416" lon="0.79355">
        <ele>134.885956</ele>
        <time>2014-11-04T10:02:29Z</time>
      </trkpt>
      <trkpt lat="45.37416" lon="0.79355">
        <ele>134.885956</ele>
        <time>2014-11-04T10:02:30Z</time>
      </trkpt>
      <trkpt lat="45.37416" lon="0.79355">
        <ele>134.885956</ele>
        <time>2014-11-04T10:02:31Z</time>
      </trkpt>
      <trkpt lat="45.37416" lon="0.79355">
        <ele>134.885956</ele>
        <time>2014-11-04T10:02:32Z</time>
      </trkpt>
      <trkpt lat="45.37416" lon="0.79355">
        <ele>134.885956</ele>
        <time>2014-11-04T10:02:33Z</time>
      </trkpt>
      <trkpt lat="45.37416" lon="0.79355">
        <ele>134.885956</ele>
        <time>2014-11-04T10:02:34Z</time>
      </trkpt>
      <trkpt lat="45.37416" lon="0.79355">
        <ele>134.885956</ele>
        <time>2014-11-04T10:02:35Z</time>
      </trkpt>
      <trkpt lat="45.37416" lon="0.79355">
        <ele>134.885956</ele>
        <time>2014-11-04T10:02:36Z</time>
      </trkpt>
      <trkpt lat="45.37416" lon="0.79355">
        <ele>134.885956</ele>
        <time>2014-11-04T10:02:37Z</time>
      </trkpt>
      <trkpt lat="45.37416" lon="0.79355">
        <ele>134.885956</ele>
        <time>2014-11-04T10:02:38Z</time>
      </trkpt>
      <trkpt lat="45.37416" lon="0.79355">
        <ele>134.885956</ele>
        <time>2014-11-04T10:02:39Z</time>
      </trkpt>
      <trkpt lat="45.37416" lon="0.79355">
        <ele>134.885956</ele>
        <time>2014-11-04T10:02:40Z</time>
      </trkpt>
      <trkpt lat="45.37417" lon="0.79356">
        <ele>134.905945</ele>
        <time>2014-11-04T10:02:41Z</time>
      </trkpt>
      <trkpt lat="45.37417" lon="0.79356">
        <ele>134.90596</ele>
        <time>2014-11-04T10:02:42Z</time>
      </trkpt>
      <trkpt lat="45.37417" lon="0.79356">
        <ele>134.905975</ele>
        <time>2014-11-04T10:02:43Z</time>
      </trkpt>
      <trkpt lat="45.37417" lon="0.79356">
        <ele>134.905975</ele>
        <time>2014-11-04T10:02:44Z</time>
      </trkpt>
      <trkpt lat="45.37417" lon="0.79356">
        <ele>134.905975</ele>
        <time>2014-11-04T10:02:45Z</time>
      </trkpt>
      <trkpt lat="45.37417" lon="0.79356">
        <ele>134.905975</ele>
        <time>2014-11-04T10:02:46Z</time>
      </trkpt>
      <trkpt lat="45.37417" lon="0.79356">
        <ele>134.905975</ele>
        <time>2014-11-04T10:02:47Z</time>
      </trkpt>
      <trkpt lat="45.37417" lon="0.79356">
        <ele>134.905975</ele>
        <time>2014-11-04T10:02:48Z</time>
      </trkpt>
      <trkpt lat="45.37417" lon="0.79356">
        <ele>134.905975</ele>
        <time>2014-11-04T10:02:49Z</time>
      </trkpt>
      <trkpt lat="45.37417" lon="0.79356">
        <ele>134.905975</ele>
        <time>2014-11-04T10:02:50Z</time>
      </trkpt>
      <trkpt lat="45.37417" lon="0.79356">
        <ele>134.905975</ele>
        <time>2014-11-04T10:02:51Z</time>
      </trkpt>
      <trkpt lat="45.37417" lon="0.79356">
        <ele>134.905975</ele>
        <time>2014-11-04T10:02:52Z</time>
      </trkpt>
      <trkpt lat="45.37417" lon="0.79356">
        <ele>134.905975</ele>
        <time>2014-11-04T10:02:53Z</time>
      </trkpt>
      <trkpt lat="45.37417" lon="0.79356">
        <ele>134.905975</ele>
        <time>2014-11-04T10:02:54Z</time>
      </trkpt>
      <trkpt lat="45.37417" lon="0.79356">
        <ele>134.905975</ele>
        <time>2014-11-04T10:02:55Z</time>
      </trkpt>
      <trkpt lat="45.37417" lon="0.79356">
        <ele>134.905975</ele>
        <time>2014-11-04T10:02:56Z</time>
      </trkpt>
      <trkpt lat="45.37417" lon="0.79356">
        <ele>134.905975</ele>
        <time>2014-11-04T10:02:57Z</time>
      </trkpt>
      <trkpt lat="45.37417" lon="0.79356">
        <ele>134.905975</ele>
        <time>2014-11-04T10:02:58Z</time>
      </trkpt>
      <trkpt lat="45.37417" lon="0.79356">
        <ele>134.905975</ele>
        <time>2014-11-04T10:02:59Z</time>
      </trkpt>
      <trkpt lat="45.37417" lon="0.79356">
        <ele>134.905975</ele>
        <time>2014-11-04T10:03:00Z</time>
      </trkpt>
      <trkpt lat="45.37417" lon="0.79356">
        <ele>134.905975</ele>
        <time>2014-11-04T10:03:01Z</time>
      </trkpt>
      <trkpt lat="45.37417" lon="0.79356">
        <ele>134.905975</ele>
        <time>2014-11-04T10:03:02Z</time>
      </trkpt>
      <trkpt lat="45.37417" lon="0.79356">
        <ele>134.905975</ele>
        <time>2014-11-04T10:03:03Z</time>
      </trkpt>
      <trkpt lat="45.37417" lon="0.79356">
        <ele>134.905975</ele>
        <time>2014-11-04T10:03:04Z</time>
      </trkpt>
      <trkpt lat="45.37417" lon="0.79356">
        <ele>134.905975</ele>
        <time>2014-11-04T10:03:05Z</time>
      </trkpt>
      <trkpt lat="45.37417" lon="0.79356">
        <ele>134.905975</ele>
        <time>2014-11-04T10:03:06Z</time>
      </trkpt>
      <trkpt lat="45.37417" lon="0.79356">
        <ele>134.905975</ele>
        <time>2014-11-04T10:03:07Z</time>
      </trkpt>
      <trkpt lat="45.37417" lon="0.79356">
        <ele>134.905975</ele>
        <time>2014-11-04T10:03:08Z</time>
      </trkpt>
      <trkpt lat="45.37417" lon="0.79356">
        <ele>134.905975</ele>
        <time>2014-11-04T10:03:09Z</time>
      </trkpt>
      <trkpt lat="45.37417" lon="0.79356">
        <ele>134.905975</ele>
        <time>2014-11-04T10:03:10Z</time>
      </trkpt>
      <trkpt lat="45.37417" lon="0.79356">
        <ele>134.905975</ele>
        <time>2014-11-04T10:03:11Z</time>
      </trkpt>
      <trkpt lat="45.37417" lon="0.79356">
        <ele>134.905975</ele>
        <time>2014-11-04T10:03:12Z</time>
      </trkpt>
      <trkpt lat="45.37417" lon="0.79356">
        <ele>134.905975</ele>
        <time>2014-11-04T10:03:13Z</time>
      </trkpt>
      <trkpt lat="45.37417" lon="0.79356">
        <ele>134.905975</ele>
        <time>2014-11-04T10:03:14Z</time>
      </trkpt>
      <trkpt lat="45.37417" lon="0.79356">
        <ele>134.905975</ele>
        <time>2014-11-04T10:03:15Z</time>
      </trkpt>
      <trkpt lat="45.37417" lon="0.79356">
        <ele>134.905975</ele>
        <time>2014-11-04T10:03:16Z</time>
      </trkpt>
      <trkpt lat="45.37417" lon="0.79356">
        <ele>134.905975</ele>
        <time>2014-11-04T10:03:17Z</time>
      </trkpt>
      <trkpt lat="45.37417" lon="0.79356">
        <ele>134.905975</ele>
        <time>2014-11-04T10:03:18Z</time>
      </trkpt>
      <trkpt lat="45.37417" lon="0.79356">
        <ele>134.905975</ele>
        <time>2014-11-04T10:03:19Z</time>
      </trkpt>
      <trkpt lat="45.37417" lon="0.79356">
        <ele>134.905975</ele>
        <time>2014-11-04T10:03:20Z</time>
      </trkpt>
      <trkpt lat="45.37417" lon="0.79356">
        <ele>134.905975</ele>
        <time>2014-11-04T10:03:21Z</time>
      </trkpt>
      <trkpt lat="45.37417" lon="0.79356">
        <ele>134.905975</ele>
        <time>2014-11-04T10:03:22Z</time>
      </trkpt>
      <trkpt lat="45.37417" lon="0.79356">
        <ele>134.905975</ele>
        <time>2014-11-04T10:03:23Z</time>
      </trkpt>
      <trkpt lat="45.37417" lon="0.79356">
        <ele>134.905975</ele>
        <time>2014-11-04T10:03:24Z</time>
      </trkpt>
      <trkpt lat="45.37417" lon="0.79356">
        <ele>134.905975</ele>
        <time>2014-11-04T10:03:25Z</time>
      </trkpt>
      <trkpt lat="45.37417" lon="0.79356">
        <ele>134.905975</ele>
        <time>2014-11-04T10:03:26Z</time>
      </trkpt>
      <trkpt lat="45.37417" lon="0.79356">
        <ele>134.905975</ele>
        <time>2014-11-04T10:03:27Z</time>
      </trkpt>
      <trkpt lat="45.37417" lon="0.79356">
        <ele>134.905975</ele>
        <time>2014-11-04T10:03:28Z</time>
      </trkpt>
      <trkpt lat="45.37417" lon="0.79356">
        <ele>134.905975</ele>
        <time>2014-11-04T10:03:29Z</time>
      </trkpt>
      <trkpt lat="45.37417" lon="0.79356">
        <ele>134.905975</ele>
        <time>2014-11-04T10:03:30Z</time>
      </trkpt>
      <trkpt lat="45.37417" lon="0.79356">
        <ele>134.905975</ele>
        <time>2014-11-04T10:03:31Z</time>
      </trkpt>
      <trkpt lat="45.37417" lon="0.79356">
        <ele>134.905975</ele>
        <time>2014-11-04T10:03:32Z</time>
      </trkpt>
      <trkpt lat="45.37417" lon="0.79356">
        <ele>134.905975</ele>
        <time>2014-11-04T10:03:33Z</time>
      </trkpt>
      <trkpt lat="45.37417" lon="0.79356">
        <ele>134.905975</ele>
        <time>2014-11-04T10:03:34Z</time>
      </trkpt>
      <trkpt lat="45.37417" lon="0.79356">
        <ele>134.905975</ele>
        <time>2014-11-04T10:03:35Z</time>
      </trkpt>
      <trkpt lat="45.37417" lon="0.79356">
        <ele>134.905975</ele>
        <time>2014-11-04T10:03:36Z</time>
      </trkpt>
      <trkpt lat="45.37417" lon="0.79356">
        <ele>134.905975</ele>
        <time>2014-11-04T10:03:37Z</time>
      </trkpt>
      <trkpt lat="45.37417" lon="0.79356">
        <ele>134.905975</ele>
        <time>2014-11-04T10:03:38Z</time>
      </trkpt>
      <trkpt lat="45.37417" lon="0.79356">
        <ele>134.905975</ele>
        <time>2014-11-04T10:03:39Z</time>
      </trkpt>
      <trkpt lat="45.37417" lon="0.79356">
        <ele>134.905975</ele>
        <time>2014-11-04T10:03:40Z</time>
      </trkpt>
      <trkpt lat="45.37417" lon="0.79356">
        <ele>134.905975</ele>
        <time>2014-11-04T10:03:41Z</time>
      </trkpt>
      <trkpt lat="45.37417" lon="0.79356">
        <ele>134.905975</ele>
        <time>2014-11-04T10:03:42Z</time>
      </trkpt>
      <trkpt lat="45.37417" lon="0.79356">
        <ele>134.905975</ele>
        <time>2014-11-04T10:03:43Z</time>
      </trkpt>
      <trkpt lat="45.37417" lon="0.79356">
        <ele>134.905975</ele>
        <time>2014-11-04T10:03:44Z</time>
      </trkpt>
      <trkpt lat="45.37417" lon="0.79356">
        <ele>134.905975</ele>
        <time>2014-11-04T10:03:45Z</time>
      </trkpt>
      <trkpt lat="45.37417" lon="0.79356">
        <ele>134.905975</ele>
        <time>2014-11-04T10:03:46Z</time>
      </trkpt>
      <trkpt lat="45.37417" lon="0.79356">
        <ele>134.905975</ele>
        <time>2014-11-04T10:03:47Z</time>
      </trkpt>
      <trkpt lat="45.37417" lon="0.79356">
        <ele>134.905975</ele>
        <time>2014-11-04T10:03:48Z</time>
      </trkpt>
      <trkpt lat="45.37417" lon="0.79356">
        <ele>134.905975</ele>
        <time>2014-11-04T10:03:49Z</time>
      </trkpt>
      <trkpt lat="45.37417" lon="0.79356">
        <ele>134.905975</ele>
        <time>2014-11-04T10:03:50Z</time>
      </trkpt>
      <trkpt lat="45.37417" lon="0.79356">
        <ele>134.905975</ele>
        <time>2014-11-04T10:03:51Z</time>
      </trkpt>
      <trkpt lat="45.37417" lon="0.79356">
        <ele>134.905975</ele>
        <time>2014-11-04T10:03:52Z</time>
      </trkpt>
      <trkpt lat="45.37417" lon="0.79356">
        <ele>134.905975</ele>
        <time>2014-11-04T10:03:53Z</time>
      </trkpt>
      <trkpt lat="45.37417" lon="0.79356">
        <ele>134.905975</ele>
        <time>2014-11-04T10:03:54Z</time>
      </trkpt>
      <trkpt lat="45.37417" lon="0.79356">
        <ele>134.905975</ele>
        <time>2014-11-04T10:03:55Z</time>
      </trkpt>
      <trkpt lat="45.37417" lon="0.79356">
        <ele>134.905975</ele>
        <time>2014-11-04T10:03:56Z</time>
      </trkpt>
      <trkpt lat="45.37417" lon="0.79356">
        <ele>134.905975</ele>
        <time>2014-11-04T10:03:57Z</time>
      </trkpt>
      <trkpt lat="45.37417" lon="0.79356">
        <ele>134.905975</ele>
        <time>2014-11-04T10:03:58Z</time>
      </trkpt>
      <trkpt lat="45.37417" lon="0.79356">
        <ele>134.905975</ele>
        <time>2014-11-04T10:03:59Z</time>
      </trkpt>
      <trkpt lat="45.37417" lon="0.79356">
        <ele>134.905975</ele>
        <time>2014-11-04T10:04:00Z</time>
      </trkpt>
      <trkpt lat="45.37417" lon="0.79356">
        <ele>134.905975</ele>
        <time>2014-11-04T10:04:01Z</time>
      </trkpt>
      <trkpt lat="45.37417" lon="0.79356">
        <ele>134.905975</ele>
        <time>2014-11-04T10:04:02Z</time>
      </trkpt>
      <trkpt lat="45.37417" lon="0.79356">
        <ele>134.905975</ele>
        <time>2014-11-04T10:04:03Z</time>
      </trkpt>
      <trkpt lat="45.37417" lon="0.79356">
        <ele>134.905975</ele>
        <time>2014-11-04T10:04:04Z</time>
      </trkpt>
      <trkpt lat="45.37417" lon="0.79356">
        <ele>134.905975</ele>
        <time>2014-11-04T10:04:05Z</time>
      </trkpt>
      <trkpt lat="45.37417" lon="0.79356">
        <ele>134.905975</ele>
        <time>2014-11-04T10:04:06Z</time>
      </trkpt>
      <trkpt lat="45.37417" lon="0.79356">
        <ele>134.905975</ele>
        <time>2014-11-04T10:04:07Z</time>
      </trkpt>
      <trkpt lat="45.37417" lon="0.79356">
        <ele>134.905975</ele>
        <time>2014-11-04T10:04:08Z</time>
      </trkpt>
      <trkpt lat="45.37417" lon="0.79356">
        <ele>134.905975</ele>
        <time>2014-11-04T10:04:09Z</time>
      </trkpt>
      <trkpt lat="45.37417" lon="0.79356">
        <ele>134.905975</ele>
        <time>2014-11-04T10:04:10Z</time>
      </trkpt>
      <trkpt lat="45.37417" lon="0.79356">
        <ele>134.960556</ele>
        <time>2014-11-04T10:04:11Z</time>
      </trkpt>
      <trkpt lat="45.37418" lon="0.79356">
        <ele>135.134995</ele>
        <time>2014-11-04T10:04:12Z</time>
      </trkpt>
      <trkpt lat="45.3742" lon="0.79357">
        <ele>135.283432</ele>
        <time>2014-11-04T10:04:13Z</time>
      </trkpt>
      <trkpt lat="45.37421" lon="0.79358">
        <ele>135.463516</ele>
        <time>2014-11-04T10:04:14Z</time>
      </trkpt>
      <trkpt lat="45.37423" lon="0.79359">
        <ele>135.643219</ele>
        <time>2014-11-04T10:04:15Z</time>
      </trkpt>
      <trkpt lat="45.37424" lon="0.79359">
        <ele>135.770111</ele>
        <time>2014-11-04T10:04:16Z</time>
      </trkpt>
      <trkpt lat="45.37424" lon="0.79359">
        <ele>135.770599</ele>
        <time>2014-11-04T10:04:17Z</time>
      </trkpt>
      <trkpt lat="45.37424" lon="0.79359">
        <ele>135.770599</ele>
        <time>2014-11-04T10:04:18Z</time>
      </trkpt>
      <trkpt lat="45.37424" lon="0.79359">
        <ele>135.770599</ele>
        <time>2014-11-04T10:04:19Z</time>
      </trkpt>
      <trkpt lat="45.37424" lon="0.79359">
        <ele>135.770599</ele>
        <time>2014-11-04T10:04:20Z</time>
      </trkpt>
      <trkpt lat="45.37424" lon="0.79359">
        <ele>135.770599</ele>
        <time>2014-11-04T10:04:21Z</time>
      </trkpt>
      <trkpt lat="45.37424" lon="0.79359">
        <ele>135.770599</ele>
        <time>2014-11-04T10:04:22Z</time>
      </trkpt>
      <trkpt lat="45.37424" lon="0.79359">
        <ele>135.770599</ele>
        <time>2014-11-04T10:04:23Z</time>
      </trkpt>
      <trkpt lat="45.37424" lon="0.79359">
        <ele>135.770599</ele>
        <time>2014-11-04T10:04:24Z</time>
      </trkpt>
      <trkpt lat="45.37424" lon="0.79359">
        <ele>135.770599</ele>
        <time>2014-11-04T10:04:25Z</time>
      </trkpt>
      <trkpt lat="45.37424" lon="0.79359">
        <ele>135.770599</ele>
        <time>2014-11-04T10:04:26Z</time>
      </trkpt>
      <trkpt lat="45.37424" lon="0.79359">
        <ele>135.770599</ele>
        <time>2014-11-04T10:04:27Z</time>
      </trkpt>
      <trkpt lat="45.37424" lon="0.79359">
        <ele>135.770599</ele>
        <time>2014-11-04T10:04:28Z</time>
      </trkpt>
      <trkpt lat="45.37424" lon="0.79359">
        <ele>135.770599</ele>
        <time>2014-11-04T10:04:29Z</time>
      </trkpt>
      <trkpt lat="45.37424" lon="0.79359">
        <ele>135.770599</ele>
        <time>2014-11-04T10:04:30Z</time>
      </trkpt>
      <trkpt lat="45.37424" lon="0.79359">
        <ele>135.770599</ele>
        <time>2014-11-04T10:04:31Z</time>
      </trkpt>
      <trkpt lat="45.37424" lon="0.79359">
        <ele>135.770599</ele>
        <time>2014-11-04T10:04:32Z</time>
      </trkpt>
      <trkpt lat="45.37424" lon="0.79359">
        <ele>135.770599</ele>
        <time>2014-11-04T10:04:33Z</time>
      </trkpt>
      <trkpt lat="45.37424" lon="0.79359">
        <ele>135.770599</ele>
        <time>2014-11-04T10:04:34Z</time>
      </trkpt>
      <trkpt lat="45.37424" lon="0.79359">
        <ele>135.770599</ele>
        <time>2014-11-04T10:04:35Z</time>
      </trkpt>
      <trkpt lat="45.37424" lon="0.79359">
        <ele>135.770599</ele>
        <time>2014-11-04T10:04:36Z</time>
      </trkpt>
      <trkpt lat="45.37424" lon="0.79359">
        <ele>135.770599</ele>
        <time>2014-11-04T10:04:37Z</time>
      </trkpt>
      <trkpt lat="45.37424" lon="0.79359">
        <ele>135.770599</ele>
        <time>2014-11-04T10:04:38Z</time>
      </trkpt>
      <trkpt lat="45.37424" lon="0.79359">
        <ele>135.770599</ele>
        <time>2014-11-04T10:04:39Z</time>
      </trkpt>
      <trkpt lat="45.37424" lon="0.79359">
        <ele>135.770599</ele>
        <time>2014-11-04T10:04:40Z</time>
      </trkpt>
      <trkpt lat="45.37424" lon="0.79359">
        <ele>135.770599</ele>
        <time>2014-11-04T10:04:41Z</time>
      </trkpt>
      <trkpt lat="45.37424" lon="0.79359">
        <ele>135.770599</ele>
        <time>2014-11-04T10:04:42Z</time>
      </trkpt>
      <trkpt lat="45.37424" lon="0.79359">
        <ele>135.770599</ele>
        <time>2014-11-04T10:04:43Z</time>
      </trkpt>
      <trkpt lat="45.37424" lon="0.79359">
        <ele>135.770599</ele>
        <time>2014-11-04T10:04:44Z</time>
      </trkpt>
      <trkpt lat="45.37424" lon="0.79359">
        <ele>135.770599</ele>
        <time>2014-11-04T10:04:45Z</time>
      </trkpt>
      <trkpt lat="45.37424" lon="0.79359">
        <ele>135.770599</ele>
        <time>2014-11-04T10:04:46Z</time>
      </trkpt>
      <trkpt lat="45.37424" lon="0.79359">
        <ele>135.770599</ele>
        <time>2014-11-04T10:04:47Z</time>
      </trkpt>
      <trkpt lat="45.37424" lon="0.79359">
        <ele>135.770599</ele>
        <time>2014-11-04T10:04:48Z</time>
      </trkpt>
      <trkpt lat="45.37424" lon="0.79359">
        <ele>135.770599</ele>
        <time>2014-11-04T10:04:49Z</time>
      </trkpt>
      <trkpt lat="45.37424" lon="0.79359">
        <ele>135.770599</ele>
        <time>2014-11-04T10:04:50Z</time>
      </trkpt>
      <trkpt lat="45.37424" lon="0.79359">
        <ele>135.770599</ele>
        <time>2014-11-04T10:04:51Z</time>
      </trkpt>
      <trkpt lat="45.37424" lon="0.79359">
        <ele>135.770599</ele>
        <time>2014-11-04T10:04:52Z</time>
      </trkpt>
      <trkpt lat="45.37424" lon="0.79359">
        <ele>135.770599</ele>
        <time>2014-11-04T10:04:53Z</time>
      </trkpt>
      <trkpt lat="45.37424" lon="0.79359">
        <ele>135.770599</ele>
        <time>2014-11-04T10:04:54Z</time>
      </trkpt>
      <trkpt lat="45.37424" lon="0.79359">
        <ele>135.770599</ele>
        <time>2014-11-04T10:04:55Z</time>
      </trkpt>
      <trkpt lat="45.37424" lon="0.79359">
        <ele>135.770599</ele>
        <time>2014-11-04T10:04:56Z</time>
      </trkpt>
      <trkpt lat="45.37424" lon="0.79359">
        <ele>135.770599</ele>
        <time>2014-11-04T10:04:57Z</time>
      </trkpt>
      <trkpt lat="45.37424" lon="0.79359">
        <ele>135.770599</ele>
        <time>2014-11-04T10:04:58Z</time>
      </trkpt>
      <trkpt lat="45.37424" lon="0.79359">
        <ele>135.770599</ele>
        <time>2014-11-04T10:04:59Z</time>
      </trkpt>
      <trkpt lat="45.37424" lon="0.79359">
        <ele>135.770599</ele>
        <time>2014-11-04T10:05:00Z</time>
      </trkpt>
      <trkpt lat="45.37424" lon="0.79359">
        <ele>135.770599</ele>
        <time>2014-11-04T10:05:01Z</time>
      </trkpt>
      <trkpt lat="45.37424" lon="0.79359">
        <ele>135.770599</ele>
        <time>2014-11-04T10:05:02Z</time>
      </trkpt>
      <trkpt lat="45.37424" lon="0.79359">
        <ele>135.770599</ele>
        <time>2014-11-04T10:05:03Z</time>
      </trkpt>
      <trkpt lat="45.37424" lon="0.79359">
        <ele>135.770599</ele>
        <time>2014-11-04T10:05:04Z</time>
      </trkpt>
      <trkpt lat="45.37424" lon="0.79359">
        <ele>135.770599</ele>
        <time>2014-11-04T10:05:05Z</time>
      </trkpt>
      <trkpt lat="45.37424" lon="0.79359">
        <ele>135.770599</ele>
        <time>2014-11-04T10:05:06Z</time>
      </trkpt>
      <trkpt lat="45.37424" lon="0.79359">
        <ele>135.770599</ele>
        <time>2014-11-04T10:05:07Z</time>
      </trkpt>
      <trkpt lat="45.37424" lon="0.79359">
        <ele>135.770599</ele>
        <time>2014-11-04T10:05:08Z</time>
      </trkpt>
      <trkpt lat="45.37424" lon="0.79359">
        <ele>135.770599</ele>
        <time>2014-11-04T10:05:09Z</time>
      </trkpt>
      <trkpt lat="45.37424" lon="0.79359">
        <ele>135.770599</ele>
        <time>2014-11-04T10:05:10Z</time>
      </trkpt>
      <trkpt lat="45.37424" lon="0.79359">
        <ele>135.770599</ele>
        <time>2014-11-04T10:05:11Z</time>
      </trkpt>
      <trkpt lat="45.37424" lon="0.79359">
        <ele>135.770599</ele>
        <time>2014-11-04T10:05:12Z</time>
      </trkpt>
      <trkpt lat="45.37424" lon="0.79359">
        <ele>135.770599</ele>
        <time>2014-11-04T10:05:13Z</time>
      </trkpt>
      <trkpt lat="45.37424" lon="0.79359">
        <ele>135.770599</ele>
        <time>2014-11-04T10:05:14Z</time>
      </trkpt>
      <trkpt lat="45.37424" lon="0.79359">
        <ele>135.770599</ele>
        <time>2014-11-04T10:05:15Z</time>
      </trkpt>
      <trkpt lat="45.37424" lon="0.79359">
        <ele>135.770599</ele>
        <time>2014-11-04T10:05:16Z</time>
      </trkpt>
      <trkpt lat="45.37424" lon="0.79359">
        <ele>135.770599</ele>
        <time>2014-11-04T10:05:17Z</time>
      </trkpt>
      <trkpt lat="45.37424" lon="0.79359">
        <ele>135.770599</ele>
        <time>2014-11-04T10:05:18Z</time>
      </trkpt>
      <trkpt lat="45.37424" lon="0.79359">
        <ele>135.770599</ele>
        <time>2014-11-04T10:05:19Z</time>
      </trkpt>
      <trkpt lat="45.37424" lon="0.79359">
        <ele>135.770599</ele>
        <time>2014-11-04T10:05:20Z</time>
      </trkpt>
      <trkpt lat="45.37424" lon="0.79359">
        <ele>135.770599</ele>
        <time>2014-11-04T10:05:21Z</time>
      </trkpt>
      <trkpt lat="45.37424" lon="0.79359">
        <ele>135.770599</ele>
        <time>2014-11-04T10:05:22Z</time>
      </trkpt>
      <trkpt lat="45.37424" lon="0.79359">
        <ele>135.770599</ele>
        <time>2014-11-04T10:05:23Z</time>
      </trkpt>
      <trkpt lat="45.37424" lon="0.79359">
        <ele>135.770599</ele>
        <time>2014-11-04T10:05:24Z</time>
      </trkpt>
      <trkpt lat="45.37424" lon="0.79359">
        <ele>135.770599</ele>
        <time>2014-11-04T10:05:25Z</time>
      </trkpt>
      <trkpt lat="45.37424" lon="0.79359">
        <ele>135.770599</ele>
        <time>2014-11-04T10:05:26Z</time>
      </trkpt>
      <trkpt lat="45.37424" lon="0.79359">
        <ele>135.770599</ele>
        <time>2014-11-04T10:05:27Z</time>
      </trkpt>
      <trkpt lat="45.37424" lon="0.79359">
        <ele>135.770599</ele>
        <time>2014-11-04T10:05:28Z</time>
      </trkpt>
      <trkpt lat="45.37424" lon="0.79359">
        <ele>135.770599</ele>
        <time>2014-11-04T10:05:29Z</time>
      </trkpt>
      <trkpt lat="45.37424" lon="0.79359">
        <ele>135.770599</ele>
        <time>2014-11-04T10:05:30Z</time>
      </trkpt>
      <trkpt lat="45.37424" lon="0.79359">
        <ele>135.770599</ele>
        <time>2014-11-04T10:05:31Z</time>
      </trkpt>
      <trkpt lat="45.37424" lon="0.79359">
        <ele>135.770599</ele>
        <time>2014-11-04T10:05:32Z</time>
      </trkpt>
      <trkpt lat="45.37424" lon="0.79359">
        <ele>135.770599</ele>
        <time>2014-11-04T10:05:33Z</time>
      </trkpt>
      <trkpt lat="45.37424" lon="0.79359">
        <ele>135.770599</ele>
        <time>2014-11-04T10:05:34Z</time>
      </trkpt>
      <trkpt lat="45.37424" lon="0.79359">
        <ele>135.770599</ele>
        <time>2014-11-04T10:05:35Z</time>
      </trkpt>
      <trkpt lat="45.37424" lon="0.79359">
        <ele>135.770599</ele>
        <time>2014-11-04T10:05:36Z</time>
      </trkpt>
      <trkpt lat="45.37424" lon="0.79359">
        <ele>135.770599</ele>
        <time>2014-11-04T10:05:37Z</time>
      </trkpt>
      <trkpt lat="45.37424" lon="0.79359">
        <ele>135.770599</ele>
        <time>2014-11-04T10:05:38Z</time>
      </trkpt>
      <trkpt lat="45.37424" lon="0.79359">
        <ele>135.770599</ele>
        <time>2014-11-04T10:05:39Z</time>
      </trkpt>
      <trkpt lat="45.37424" lon="0.79359">
        <ele>135.770599</ele>
        <time>2014-11-04T10:05:40Z</time>
      </trkpt>
      <trkpt lat="45.37424" lon="0.79359">
        <ele>135.770599</ele>
        <time>2014-11-04T10:05:41Z</time>
      </trkpt>
      <trkpt lat="45.37424" lon="0.79359">
        <ele>135.770599</ele>
        <time>2014-11-04T10:05:42Z</time>
      </trkpt>
      <trkpt lat="45.37424" lon="0.79359">
        <ele>135.770599</ele>
        <time>2014-11-04T10:05:43Z</time>
      </trkpt>
      <trkpt lat="45.37424" lon="0.79359">
        <ele>135.770599</ele>
        <time>2014-11-04T10:05:44Z</time>
      </trkpt>
      <trkpt lat="45.37424" lon="0.79359">
        <ele>135.770599</ele>
        <time>2014-11-04T10:05:45Z</time>
      </trkpt>
      <trkpt lat="45.37424" lon="0.79359">
        <ele>135.770599</ele>
        <time>2014-11-04T10:05:46Z</time>
      </trkpt>
      <trkpt lat="45.37424" lon="0.79359">
        <ele>135.770599</ele>
        <time>2014-11-04T10:05:47Z</time>
      </trkpt>
      <trkpt lat="45.37424" lon="0.79359">
        <ele>135.770599</ele>
        <time>2014-11-04T10:05:48Z</time>
      </trkpt>
      <trkpt lat="45.37424" lon="0.79359">
        <ele>135.770599</ele>
        <time>2014-11-04T10:05:49Z</time>
      </trkpt>
      <trkpt lat="45.37424" lon="0.79359">
        <ele>135.770599</ele>
        <time>2014-11-04T10:05:50Z</time>
      </trkpt>
      <trkpt lat="45.37424" lon="0.79359">
        <ele>135.770599</ele>
        <time>2014-11-04T10:05:51Z</time>
      </trkpt>
      <trkpt lat="45.37424" lon="0.79359">
        <ele>135.770599</ele>
        <time>2014-11-04T10:05:52Z</time>
      </trkpt>
      <trkpt lat="45.37424" lon="0.79359">
        <ele>135.770599</ele>
        <time>2014-11-04T10:05:53Z</time>
      </trkpt>
      <trkpt lat="45.37424" lon="0.79359">
        <ele>135.770599</ele>
        <time>2014-11-04T10:05:54Z</time>
      </trkpt>
      <trkpt lat="45.37424" lon="0.79359">
        <ele>135.770599</ele>
        <time>2014-11-04T10:05:55Z</time>
      </trkpt>
      <trkpt lat="45.37424" lon="0.79359">
        <ele>135.770599</ele>
        <time>2014-11-04T10:05:56Z</time>
      </trkpt>
      <trkpt lat="45.37424" lon="0.79359">
        <ele>135.770599</ele>
        <time>2014-11-04T10:05:57Z</time>
      </trkpt>
      <trkpt lat="45.37424" lon="0.79359">
        <ele>135.770599</ele>
        <time>2014-11-04T10:05:58Z</time>
      </trkpt>
      <trkpt lat="45.37424" lon="0.79359">
        <ele>135.770599</ele>
        <time>2014-11-04T10:05:59Z</time>
      </trkpt>
      <trkpt lat="45.37424" lon="0.79359">
        <ele>135.770599</ele>
        <time>2014-11-04T10:06:00Z</time>
      </trkpt>
      <trkpt lat="45.37424" lon="0.79359">
        <ele>135.770599</ele>
        <time>2014-11-04T10:06:01Z</time>
      </trkpt>
      <trkpt lat="45.37424" lon="0.79359">
        <ele>135.770599</ele>
        <time>2014-11-04T10:06:02Z</time>
      </trkpt>
      <trkpt lat="45.37424" lon="0.79359">
        <ele>135.770599</ele>
        <time>2014-11-04T10:06:03Z</time>
      </trkpt>
      <trkpt lat="45.37424" lon="0.79359">
        <ele>135.770599</ele>
        <time>2014-11-04T10:06:04Z</time>
      </trkpt>
      <trkpt lat="45.37424" lon="0.79359">
        <ele>135.770599</ele>
        <time>2014-11-04T10:06:05Z</time>
      </trkpt>
      <trkpt lat="45.37424" lon="0.79359">
        <ele>135.770599</ele>
        <time>2014-11-04T10:06:06Z</time>
      </trkpt>
      <trkpt lat="45.37424" lon="0.79359">
        <ele>135.770599</ele>
        <time>2014-11-04T10:06:07Z</time>
      </trkpt>
      <trkpt lat="45.37424" lon="0.79359">
        <ele>135.770599</ele>
        <time>2014-11-04T10:06:08Z</time>
      </trkpt>
      <trkpt lat="45.37424" lon="0.79359">
        <ele>135.770599</ele>
        <time>2014-11-04T10:06:09Z</time>
      </trkpt>
      <trkpt lat="45.37424" lon="0.79359">
        <ele>135.770599</ele>
        <time>2014-11-04T10:06:10Z</time>
      </trkpt>
      <trkpt lat="45.37424" lon="0.79359">
        <ele>135.770599</ele>
        <time>2014-11-04T10:06:11Z</time>
      </trkpt>
      <trkpt lat="45.37424" lon="0.79359">
        <ele>135.770599</ele>
        <time>2014-11-04T10:06:12Z</time>
      </trkpt>
      <trkpt lat="45.37424" lon="0.79359">
        <ele>135.770599</ele>
        <time>2014-11-04T10:06:13Z</time>
      </trkpt>
      <trkpt lat="45.37424" lon="0.79359">
        <ele>135.770599</ele>
        <time>2014-11-04T10:06:14Z</time>
      </trkpt>
      <trkpt lat="45.37424" lon="0.79359">
        <ele>135.770599</ele>
        <time>2014-11-04T10:06:15Z</time>
      </trkpt>
      <trkpt lat="45.37424" lon="0.79359">
        <ele>135.770599</ele>
        <time>2014-11-04T10:06:16Z</time>
      </trkpt>
      <trkpt lat="45.37424" lon="0.79359">
        <ele>135.770599</ele>
        <time>2014-11-04T10:06:17Z</time>
      </trkpt>
      <trkpt lat="45.37424" lon="0.79359">
        <ele>135.770599</ele>
        <time>2014-11-04T10:06:18Z</time>
      </trkpt>
      <trkpt lat="45.37424" lon="0.79359">
        <ele>135.770599</ele>
        <time>2014-11-04T10:06:19Z</time>
      </trkpt>
      <trkpt lat="45.37424" lon="0.79359">
        <ele>135.770599</ele>
        <time>2014-11-04T10:06:20Z</time>
      </trkpt>
      <trkpt lat="45.37425" lon="0.79359">
        <ele>136.10025</ele>
        <time>2014-11-04T10:06:21Z</time>
      </trkpt>
      <trkpt lat="45.37425" lon="0.79359">
        <ele>136.103226</ele>
        <time>2014-11-04T10:06:22Z</time>
      </trkpt>
      <trkpt lat="45.37425" lon="0.79359">
        <ele>136.103256</ele>
        <time>2014-11-04T10:06:23Z</time>
      </trkpt>
      <trkpt lat="45.37425" lon="0.79359">
        <ele>136.103256</ele>
        <time>2014-11-04T10:06:24Z</time>
      </trkpt>
      <trkpt lat="45.37426" lon="0.79358">
        <ele>136.342957</ele>
        <time>2014-11-04T10:06:25Z</time>
      </trkpt>
      <trkpt lat="45.37427" lon="0.79356">
        <ele>136.879562</ele>
        <time>2014-11-04T10:06:26Z</time>
      </trkpt>
      <trkpt lat="45.37427" lon="0.79356">
        <ele>136.884628</ele>
        <time>2014-11-04T10:06:27Z</time>
      </trkpt>
      <trkpt lat="45.37427" lon="0.79356">
        <ele>136.884674</ele>
        <time>2014-11-04T10:06:28Z</time>
      </trkpt>
      <trkpt lat="45.37428" lon="0.79356">
        <ele>137.05249</ele>
        <time>2014-11-04T10:06:29Z</time>
      </trkpt>
      <trkpt lat="45.37428" lon="0.79356">
        <ele>137.056107</ele>
        <time>2014-11-04T10:06:30Z</time>
      </trkpt>
      <trkpt lat="45.37428" lon="0.79356">
        <ele>137.056137</ele>
        <time>2014-11-04T10:06:31Z</time>
      </trkpt>
      <trkpt lat="45.37428" lon="0.79356">
        <ele>137.056137</ele>
        <time>2014-11-04T10:06:32Z</time>
      </trkpt>
      <trkpt lat="45.37428" lon="0.79356">
        <ele>137.056137</ele>
        <time>2014-11-04T10:06:33Z</time>
      </trkpt>
      <trkpt lat="45.37428" lon="0.79356">
        <ele>137.056137</ele>
        <time>2014-11-04T10:06:34Z</time>
      </trkpt>
      <trkpt lat="45.37428" lon="0.79356">
        <ele>137.056137</ele>
        <time>2014-11-04T10:06:35Z</time>
      </trkpt>
      <trkpt lat="45.37428" lon="0.79356">
        <ele>137.056137</ele>
        <time>2014-11-04T10:06:36Z</time>
      </trkpt>
      <trkpt lat="45.37428" lon="0.79356">
        <ele>137.056137</ele>
        <time>2014-11-04T10:06:37Z</time>
      </trkpt>
      <trkpt lat="45.37428" lon="0.79356">
        <ele>137.056137</ele>
        <time>2014-11-04T10:06:38Z</time>
      </trkpt>
      <trkpt lat="45.37428" lon="0.79356">
        <ele>137.056137</ele>
        <time>2014-11-04T10:06:39Z</time>
      </trkpt>
      <trkpt lat="45.37428" lon="0.79356">
        <ele>137.056137</ele>
        <time>2014-11-04T10:06:40Z</time>
      </trkpt>
      <trkpt lat="45.37428" lon="0.79356">
        <ele>137.056137</ele>
        <time>2014-11-04T10:06:41Z</time>
      </trkpt>
      <trkpt lat="45.37428" lon="0.79356">
        <ele>137.056137</ele>
        <time>2014-11-04T10:06:42Z</time>
      </trkpt>
      <trkpt lat="45.37428" lon="0.79356">
        <ele>137.056137</ele>
        <time>2014-11-04T10:06:43Z</time>
      </trkpt>
      <trkpt lat="45.37428" lon="0.79356">
        <ele>137.056137</ele>
        <time>2014-11-04T10:06:44Z</time>
      </trkpt>
      <trkpt lat="45.37428" lon="0.79356">
        <ele>137.056137</ele>
        <time>2014-11-04T10:06:45Z</time>
      </trkpt>
      <trkpt lat="45.37428" lon="0.79356">
        <ele>137.056137</ele>
        <time>2014-11-04T10:06:46Z</time>
      </trkpt>
      <trkpt lat="45.37428" lon="0.79356">
        <ele>137.056137</ele>
        <time>2014-11-04T10:06:47Z</time>
      </trkpt>
      <trkpt lat="45.37428" lon="0.79356">
        <ele>137.056137</ele>
        <time>2014-11-04T10:06:48Z</time>
      </trkpt>
      <trkpt lat="45.37428" lon="0.79356">
        <ele>137.056137</ele>
        <time>2014-11-04T10:06:49Z</time>
      </trkpt>
      <trkpt lat="45.37428" lon="0.79356">
        <ele>137.056137</ele>
        <time>2014-11-04T10:06:50Z</time>
      </trkpt>
      <trkpt lat="45.37428" lon="0.79356">
        <ele>137.056137</ele>
        <time>2014-11-04T10:06:51Z</time>
      </trkpt>
      <trkpt lat="45.37428" lon="0.79356">
        <ele>137.056137</ele>
        <time>2014-11-04T10:06:52Z</time>
      </trkpt>
      <trkpt lat="45.37428" lon="0.79356">
        <ele>137.056137</ele>
        <time>2014-11-04T10:06:53Z</time>
      </trkpt>
      <trkpt lat="45.37428" lon="0.79356">
        <ele>137.056137</ele>
        <time>2014-11-04T10:06:54Z</time>
      </trkpt>
      <trkpt lat="45.37428" lon="0.79356">
        <ele>137.056137</ele>
        <time>2014-11-04T10:06:55Z</time>
      </trkpt>
      <trkpt lat="45.37428" lon="0.79356">
        <ele>137.056137</ele>
        <time>2014-11-04T10:06:56Z</time>
      </trkpt>
      <trkpt lat="45.37428" lon="0.79356">
        <ele>137.056137</ele>
        <time>2014-11-04T10:06:57Z</time>
      </trkpt>
      <trkpt lat="45.37428" lon="0.79356">
        <ele>137.056137</ele>
        <time>2014-11-04T10:06:58Z</time>
      </trkpt>
      <trkpt lat="45.37428" lon="0.79356">
        <ele>137.056137</ele>
        <time>2014-11-04T10:06:59Z</time>
      </trkpt>
      <trkpt lat="45.37428" lon="0.79356">
        <ele>137.056137</ele>
        <time>2014-11-04T10:07:00Z</time>
      </trkpt>
      <trkpt lat="45.37428" lon="0.79356">
        <ele>137.056137</ele>
        <time>2014-11-04T10:07:01Z</time>
      </trkpt>
      <trkpt lat="45.37428" lon="0.79356">
        <ele>137.056137</ele>
        <time>2014-11-04T10:07:02Z</time>
      </trkpt>
      <trkpt lat="45.37428" lon="0.79356">
        <ele>137.056137</ele>
        <time>2014-11-04T10:07:03Z</time>
      </trkpt>
      <trkpt lat="45.37428" lon="0.79356">
        <ele>137.056137</ele>
        <time>2014-11-04T10:07:04Z</time>
      </trkpt>
      <trkpt lat="45.37428" lon="0.79356">
        <ele>137.056137</ele>
        <time>2014-11-04T10:07:05Z</time>
      </trkpt>
      <trkpt lat="45.37428" lon="0.79356">
        <ele>137.056137</ele>
        <time>2014-11-04T10:07:06Z</time>
      </trkpt>
      <trkpt lat="45.37428" lon="0.79356">
        <ele>137.056137</ele>
        <time>2014-11-04T10:07:07Z</time>
      </trkpt>
      <trkpt lat="45.37428" lon="0.79356">
        <ele>137.056137</ele>
        <time>2014-11-04T10:07:08Z</time>
      </trkpt>
      <trkpt lat="45.37428" lon="0.79356">
        <ele>137.056137</ele>
        <time>2014-11-04T10:07:09Z</time>
      </trkpt>
      <trkpt lat="45.37428" lon="0.79356">
        <ele>137.056137</ele>
        <time>2014-11-04T10:07:10Z</time>
      </trkpt>
      <trkpt lat="45.37428" lon="0.79356">
        <ele>137.056137</ele>
        <time>2014-11-04T10:07:11Z</time>
      </trkpt>
      <trkpt lat="45.37428" lon="0.79356">
        <ele>137.056137</ele>
        <time>2014-11-04T10:07:12Z</time>
      </trkpt>
      <trkpt lat="45.37428" lon="0.79356">
        <ele>137.056137</ele>
        <time>2014-11-04T10:07:13Z</time>
      </trkpt>
      <trkpt lat="45.37428" lon="0.79356">
        <ele>137.056137</ele>
        <time>2014-11-04T10:07:14Z</time>
      </trkpt>
      <trkpt lat="45.37428" lon="0.79356">
        <ele>137.056137</ele>
        <time>2014-11-04T10:07:15Z</time>
      </trkpt>
      <trkpt lat="45.37428" lon="0.79356">
        <ele>137.056137</ele>
        <time>2014-11-04T10:07:16Z</time>
      </trkpt>
      <trkpt lat="45.37428" lon="0.79356">
        <ele>137.056137</ele>
        <time>2014-11-04T10:07:17Z</time>
      </trkpt>
      <trkpt lat="45.37428" lon="0.79356">
        <ele>137.056137</ele>
        <time>2014-11-04T10:07:18Z</time>
      </trkpt>
      <trkpt lat="45.37428" lon="0.79356">
        <ele>137.056137</ele>
        <time>2014-11-04T10:07:19Z</time>
      </trkpt>
      <trkpt lat="45.37428" lon="0.79356">
        <ele>137.056137</ele>
        <time>2014-11-04T10:07:20Z</time>
      </trkpt>
      <trkpt lat="45.37429" lon="0.79356">
        <ele>137.102798</ele>
        <time>2014-11-04T10:07:21Z</time>
      </trkpt>
      <trkpt lat="45.37429" lon="0.79357">
        <ele>137.098831</ele>
        <time>2014-11-04T10:07:22Z</time>
      </trkpt>
      <trkpt lat="45.3743" lon="0.79359">
        <ele>137.080368</ele>
        <time>2014-11-04T10:07:23Z</time>
      </trkpt>
      <trkpt lat="45.37431" lon="0.7936">
        <ele>137.061584</ele>
        <time>2014-11-04T10:07:24Z</time>
      </trkpt>
      <trkpt lat="45.37432" lon="0.79362">
        <ele>136.956757</ele>
        <time>2014-11-04T10:07:25Z</time>
      </trkpt>
      <trkpt lat="45.37433" lon="0.79365">
        <ele>136.782471</ele>
        <time>2014-11-04T10:07:26Z</time>
      </trkpt>
      <trkpt lat="45.37434" lon="0.79368">
        <ele>136.595276</ele>
        <time>2014-11-04T10:07:27Z</time>
      </trkpt>
      <trkpt lat="45.37435" lon="0.79371">
        <ele>136.395981</ele>
        <time>2014-11-04T10:07:28Z</time>
      </trkpt>
      <trkpt lat="45.37436" lon="0.79373">
        <ele>136.227188</ele>
        <time>2014-11-04T10:07:29Z</time>
      </trkpt>
      <trkpt lat="45.37437" lon="0.79375">
        <ele>136.219574</ele>
        <time>2014-11-04T10:07:30Z</time>
      </trkpt>
      <trkpt lat="45.37439" lon="0.79377">
        <ele>136.196762</ele>
        <time>2014-11-04T10:07:31Z</time>
      </trkpt>
      <trkpt lat="45.3744" lon="0.79379">
        <ele>136.183273</ele>
        <time>2014-11-04T10:07:32Z</time>
      </trkpt>
      <trkpt lat="45.37441" lon="0.79381">
        <ele>136.029785</ele>
        <time>2014-11-04T10:07:33Z</time>
      </trkpt>
      <trkpt lat="45.37442" lon="0.79384">
        <ele>135.92041</ele>
        <time>2014-11-04T10:07:34Z</time>
      </trkpt>
      <trkpt lat="45.37443" lon="0.79387">
        <ele>135.797531</ele>
        <time>2014-11-04T10:07:35Z</time>
      </trkpt>
      <trkpt lat="45.37445" lon="0.79393">
        <ele>135.394241</ele>
        <time>2011-08-01T14:56:05Z</time>
      </trkpt>
      <trkpt lat="45.37463" lon="0.79405">
        <ele>136.4944</ele>
        <time>2011-08-01T14:56:10Z</time>
      </trkpt>
      <trkpt lat="45.37483" lon="0.7942">
        <ele>135.979294</ele>
        <time>2011-08-01T14:56:15Z</time>
      </trkpt>
      <trkpt lat="45.375" lon="0.79428">
        <ele>135.969666</ele>
        <time>2011-08-01T14:56:20Z</time>
      </trkpt>
      <trkpt lat="45.37518" lon="0.7944">
        <ele>134.365128</ele>
        <time>2011-08-01T14:56:39Z</time>
      </trkpt>
      <trkpt lat="45.37538" lon="0.79445">
        <ele>134.792557</ele>
        <time>2011-08-01T14:56:46Z</time>
      </trkpt>
      <trkpt lat="45.3756" lon="0.79458">
        <ele>135.405762</ele>
        <time>2011-08-01T14:56:54Z</time>
      </trkpt>
      <trkpt lat="45.37583" lon="0.79468">
        <ele>136.933289</ele>
        <time>2011-08-01T14:56:58Z</time>
      </trkpt>
      <trkpt lat="45.376" lon="0.79475">
        <ele>137.077179</ele>
        <time>2011-08-01T14:57:01Z</time>
      </trkpt>
      <trkpt lat="45.37618" lon="0.79483">
        <ele>136.723984</ele>
        <time>2011-08-01T14:57:04Z</time>
      </trkpt>
      <trkpt lat="45.37643" lon="0.79493">
        <ele>136.722855</ele>
        <time>2011-08-01T14:57:08Z</time>
      </trkpt>
      <trkpt lat="45.3766" lon="0.79508">
        <ele>136.016785</ele>
        <time>2011-08-01T14:57:11Z</time>
      </trkpt>
      <trkpt lat="45.37678" lon="0.79523">
        <ele>136.238998</ele>
        <time>2011-08-01T14:57:14Z</time>
      </trkpt>
      <trkpt lat="45.377" lon="0.7954">
        <ele>137.594818</ele>
        <time>2011-08-01T14:57:17Z</time>
      </trkpt>
      <trkpt lat="45.3772" lon="0.79558">
        <ele>137.773407</ele>
        <time>2011-08-01T14:57:20Z</time>
      </trkpt>
      <trkpt lat="45.3774" lon="0.7957">
        <ele>140.018768</ele>
        <time>2011-08-01T14:57:23Z</time>
      </trkpt>
      <trkpt lat="45.37756" lon="0.79585">
        <ele>142.069519</ele>
        <time>2011-08-01T14:57:26Z</time>
      </trkpt>
      <trkpt lat="45.3777" lon="0.7961">
        <ele>141.432709</ele>
        <time>2011-08-01T14:57:30Z</time>
      </trkpt>
      <trkpt lat="45.3778" lon="0.79633">
        <ele>139.988663</ele>
        <time>2011-08-01T14:57:43Z</time>
      </trkpt>
      <trkpt lat="45.37793" lon="0.79665">
        <ele>139.274078</ele>
        <time>2011-08-01T14:57:47Z</time>
      </trkpt>
      <trkpt lat="45.37803" lon="0.79693">
        <ele>138.474045</ele>
        <time>2011-08-01T14:57:50Z</time>
      </trkpt>
      <trkpt lat="45.37818" lon="0.79718">
        <ele>138.92334</ele>
        <time>2011-08-01T14:57:53Z</time>
      </trkpt>
      <trkpt lat="45.3783" lon="0.7974">
        <ele>138.263855</ele>
        <time>2011-08-01T14:57:56Z</time>
      </trkpt>
      <trkpt lat="45.37843" lon="0.79765">
        <ele>137.022797</ele>
        <time>2011-08-01T14:57:59Z</time>
      </trkpt>
      <trkpt lat="45.3785" lon="0.79795">
        <ele>137.048599</ele>
        <time>2011-08-01T14:58:02Z</time>
      </trkpt>
      <trkpt lat="45.37853" lon="0.79825">
        <ele>136.319183</ele>
        <time>2011-08-01T14:58:05Z</time>
      </trkpt>
      <trkpt lat="45.37855" lon="0.79855">
        <ele>136.154816</ele>
        <time>2011-08-01T14:58:08Z</time>
      </trkpt>
      <trkpt lat="45.3786" lon="0.7988">
        <ele>136.895874</ele>
        <time>2011-08-01T14:58:11Z</time>
      </trkpt>
      <trkpt lat="45.37858" lon="0.79913">
        <ele>134.902023</ele>
        <time>2011-08-01T14:58:15Z</time>
      </trkpt>
      <trkpt lat="45.37855" lon="0.79948">
        <ele>132.529037</ele>
        <time>2011-08-01T14:58:19Z</time>
      </trkpt>
      <trkpt lat="45.37865" lon="0.79975">
        <ele>132.677856</ele>
        <time>2011-08-01T14:58:24Z</time>
      </trkpt>
      <trkpt lat="45.37875" lon="0.80005">
        <ele>133.926224</ele>
        <time>2011-08-01T14:58:29Z</time>
      </trkpt>
      <trkpt lat="45.37887" lon="0.8003">
        <ele>135.468399</ele>
        <time>2011-08-01T14:58:33Z</time>
      </trkpt>
      <trkpt lat="45.37898" lon="0.80058">
        <ele>134.169662</ele>
        <time>2011-08-01T14:58:36Z</time>
      </trkpt>
      <trkpt lat="45.3791" lon="0.80078">
        <ele>132.849121</ele>
        <time>2011-08-01T14:58:39Z</time>
      </trkpt>
      <trkpt lat="45.3793" lon="0.80095">
        <ele>135.4758</ele>
        <time>2011-08-01T14:58:43Z</time>
      </trkpt>
      <trkpt lat="45.37948" lon="0.80105">
        <ele>137.865433</ele>
        <time>2011-08-01T14:58:47Z</time>
      </trkpt>
      <trkpt lat="45.37965" lon="0.80115">
        <ele>140.059082</ele>
        <time>2011-08-01T14:58:50Z</time>
      </trkpt>
      <trkpt lat="45.37985" lon="0.8013">
        <ele>143.247284</ele>
        <time>2011-08-01T14:58:54Z</time>
      </trkpt>
      <trkpt lat="45.38003" lon="0.80148">
        <ele>144.994461</ele>
        <time>2011-08-01T14:58:59Z</time>
      </trkpt>
      <trkpt lat="45.38" lon="0.80178">
        <ele>137.072693</ele>
        <time>2011-08-01T14:59:03Z</time>
      </trkpt>
      <trkpt lat="45.38015" lon="0.80196">
        <ele>136.289581</ele>
        <time>2011-08-01T14:59:17Z</time>
      </trkpt>
      <trkpt lat="45.38058" lon="0.80228">
        <ele>139.100388</ele>
        <time>2011-08-01T14:59:40Z</time>
      </trkpt>
      <trkpt lat="45.38068" lon="0.80255">
        <ele>134.198257</ele>
        <time>2011-08-01T14:59:44Z</time>
      </trkpt>
      <trkpt lat="45.3808" lon="0.80283">
        <ele>131.626343</ele>
        <time>2011-08-01T14:59:48Z</time>
      </trkpt>
      <trkpt lat="45.38098" lon="0.80305">
        <ele>132.708267</ele>
        <time>2011-08-01T14:59:52Z</time>
      </trkpt>
      <trkpt lat="45.3811" lon="0.80328">
        <ele>134.170517</ele>
        <time>2011-08-01T14:59:55Z</time>
      </trkpt>
      <trkpt lat="45.3813" lon="0.80353">
        <ele>137.34613</ele>
        <time>2011-08-01T15:00:00Z</time>
      </trkpt>
      <trkpt lat="45.38148" lon="0.80373">
        <ele>138.826416</ele>
        <time>2011-08-01T15:00:04Z</time>
      </trkpt>
      <trkpt lat="45.3816" lon="0.80393">
        <ele>137.642975</ele>
        <time>2011-08-01T15:00:08Z</time>
      </trkpt>
      <trkpt lat="45.3818" lon="0.80398">
        <ele>138.975082</ele>
        <time>2011-08-01T15:00:12Z</time>
      </trkpt>
      <trkpt lat="45.38203" lon="0.80403">
        <ele>139.978256</ele>
        <time>2011-08-01T15:00:16Z</time>
      </trkpt>
      <trkpt lat="45.38228" lon="0.80408">
        <ele>140.634308</ele>
        <time>2011-08-01T15:00:20Z</time>
      </trkpt>
      <trkpt lat="45.38248" lon="0.80415">
        <ele>139.980286</ele>
        <time>2011-08-01T15:00:23Z</time>
      </trkpt>
      <trkpt lat="45.38265" lon="0.80425">
        <ele>138.723938</ele>
        <time>2011-08-01T15:00:26Z</time>
      </trkpt>
      <trkpt lat="45.38285" lon="0.80438">
        <ele>137.071365</ele>
        <time>2011-08-01T15:00:29Z</time>
      </trkpt>
      <trkpt lat="45.38303" lon="0.80448">
        <ele>135.791351</ele>
        <time>2011-08-01T15:00:32Z</time>
      </trkpt>
      <trkpt lat="45.38323" lon="0.8046">
        <ele>134.626038</ele>
        <time>2011-08-01T15:00:35Z</time>
      </trkpt>
      <trkpt lat="45.38343" lon="0.8047">
        <ele>133.910919</ele>
        <time>2011-08-01T15:00:38Z</time>
      </trkpt>
      <trkpt lat="45.3836" lon="0.8048">
        <ele>133.316238</ele>
        <time>2011-08-01T15:00:41Z</time>
      </trkpt>
      <trkpt lat="45.38378" lon="0.8049">
        <ele>132.936874</ele>
        <time>2011-08-01T15:00:44Z</time>
      </trkpt>
      <trkpt lat="45.38395" lon="0.80503">
        <ele>132.50853</ele>
        <time>2011-08-01T15:00:48Z</time>
      </trkpt>
      <trkpt lat="45.38408" lon="0.80528">
        <ele>131.548706</ele>
        <time>2011-08-01T15:00:53Z</time>
      </trkpt>
      <trkpt lat="45.38428" lon="0.80538">
        <ele>131.435059</ele>
        <time>2011-08-01T15:00:57Z</time>
      </trkpt>
      <trkpt lat="45.38448" lon="0.80543">
        <ele>131.473175</ele>
        <time>2011-08-01T15:01:02Z</time>
      </trkpt>
      <trkpt lat="45.38465" lon="0.8055">
        <ele>131.717468</ele>
        <time>2011-08-01T15:01:19Z</time>
      </trkpt>
      <trkpt lat="45.38478" lon="0.8057">
        <ele>131.942276</ele>
        <time>2011-08-01T15:01:25Z</time>
      </trkpt>
      <trkpt lat="45.38493" lon="0.8059">
        <ele>132.009811</ele>
        <time>2011-08-01T15:01:35Z</time>
      </trkpt>
      <trkpt lat="45.38505" lon="0.8061">
        <ele>131.498444</ele>
        <time>2011-08-01T15:01:38Z</time>
      </trkpt>
      <trkpt lat="45.38523" lon="0.80625">
        <ele>131.539673</ele>
        <time>2011-08-01T15:01:41Z</time>
      </trkpt>
      <trkpt lat="45.38545" lon="0.80635">
        <ele>132.034698</ele>
        <time>2011-08-01T15:01:44Z</time>
      </trkpt>
      <trkpt lat="45.3857" lon="0.80643">
        <ele>131.922104</ele>
        <time>2011-08-01T15:01:47Z</time>
      </trkpt>
      <trkpt lat="45.38595" lon="0.80645">
        <ele>131.822144</ele>
        <time>2011-08-01T15:01:50Z</time>
      </trkpt>
      <trkpt lat="45.3862" lon="0.8065">
        <ele>132.092499</ele>
        <time>2011-08-01T15:01:53Z</time>
      </trkpt>
      <trkpt lat="45.38643" lon="0.80658">
        <ele>132.141159</ele>
        <time>2011-08-01T15:01:56Z</time>
      </trkpt>
      <trkpt lat="45.38665" lon="0.80673">
        <ele>132.185867</ele>
        <time>2011-08-01T15:01:59Z</time>
      </trkpt>
      <trkpt lat="45.38688" lon="0.80685">
        <ele>132.573975</ele>
        <time>2011-08-01T15:02:02Z</time>
      </trkpt>
      <trkpt lat="45.38708" lon="0.80705">
        <ele>132.319183</ele>
        <time>2011-08-01T15:02:05Z</time>
      </trkpt>
      <trkpt lat="45.3873" lon="0.80725">
        <ele>132.167221</ele>
        <time>2011-08-01T15:02:08Z</time>
      </trkpt>
      <trkpt lat="45.38745" lon="0.80743">
        <ele>132.419128</ele>
        <time>2011-08-01T15:02:11Z</time>
      </trkpt>
      <trkpt lat="45.38763" lon="0.8073">
        <ele>134.09137</ele>
        <time>2014-11-04T11:36:04Z</time>
      </trkpt>
      <trkpt lat="45.38775" lon="0.8071">
        <ele>136.162003</ele>
        <time>2014-11-04T11:36:25Z</time>
      </trkpt>
      <trkpt lat="45.38785" lon="0.80688">
        <ele>139.649597</ele>
        <time>2014-11-04T11:36:44Z</time>
      </trkpt>
      <trkpt lat="45.38798" lon="0.80668">
        <ele>144.599747</ele>
        <time>2014-11-04T11:37:05Z</time>
      </trkpt>
      <trkpt lat="45.38783" lon="0.8065">
        <ele>144.434906</ele>
        <time>2014-11-04T11:37:48Z</time>
      </trkpt>
      <trkpt lat="45.38768" lon="0.80635">
        <ele>143.751312</ele>
        <time>2014-11-04T11:38:13Z</time>
      </trkpt>
      <trkpt lat="45.38753" lon="0.8062">
        <ele>143.846527</ele>
        <time>2014-11-04T11:38:26Z</time>
      </trkpt>
      <trkpt lat="45.38738" lon="0.80605">
        <ele>143.646042</ele>
        <time>2014-11-04T11:38:40Z</time>
      </trkpt>
      <trkpt lat="45.3873" lon="0.8058">
        <ele>145.944046</ele>
        <time>2014-11-04T11:39:15Z</time>
      </trkpt>
      <trkpt lat="45.38735" lon="0.80555">
        <ele>150.904785</ele>
        <time>2014-11-04T11:39:49Z</time>
      </trkpt>
      <trkpt lat="45.3875" lon="0.8054">
        <ele>155.679276</ele>
        <time>2014-11-04T11:40:07Z</time>
      </trkpt>
      <trkpt lat="45.38768" lon="0.80533">
        <ele>159.266617</ele>
        <time>2014-11-04T11:40:48Z</time>
      </trkpt>
      <trkpt lat="45.38788" lon="0.80535">
        <ele>163.336227</ele>
        <time>2014-11-04T11:41:15Z</time>
      </trkpt>
      <trkpt lat="45.38805" lon="0.80545">
        <ele>166.718735</ele>
        <time>2014-11-04T11:41:45Z</time>
      </trkpt>
      <trkpt lat="45.3882" lon="0.8056">
        <ele>169.091187</ele>
        <time>2014-11-04T11:42:55Z</time>
      </trkpt>
      <trkpt lat="45.38835" lon="0.80583">
        <ele>168.797653</ele>
        <time>2014-11-04T11:43:03Z</time>
      </trkpt>
      <trkpt lat="45.38855" lon="0.80585">
        <ele>172.659805</ele>
        <time>2014-11-04T11:43:08Z</time>
      </trkpt>
      <trkpt lat="45.38873" lon="0.80605">
        <ele>170.971481</ele>
        <time>2014-11-04T11:43:12Z</time>
      </trkpt>
      <trkpt lat="45.3889" lon="0.8062">
        <ele>169.166595</ele>
        <time>2014-11-04T11:43:16Z</time>
      </trkpt>
      <trkpt lat="45.3891" lon="0.80635">
        <ele>167.022141</ele>
        <time>2014-11-04T11:43:20Z</time>
      </trkpt>
      <trkpt lat="45.3893" lon="0.8065">
        <ele>166.003128</ele>
        <time>2014-11-04T11:43:23Z</time>
      </trkpt>
      <trkpt lat="45.38948" lon="0.80665">
        <ele>163.703568</ele>
        <time>2014-11-04T11:43:26Z</time>
      </trkpt>
      <trkpt lat="45.38965" lon="0.80675">
        <ele>161.87088</ele>
        <time>2014-11-04T11:43:30Z</time>
      </trkpt>
      <trkpt lat="45.38985" lon="0.80678">
        <ele>162.037323</ele>
        <time>2014-11-04T11:44:12Z</time>
      </trkpt>
      <trkpt lat="45.39005" lon="0.80675">
        <ele>163.469101</ele>
        <time>2014-11-04T11:44:18Z</time>
      </trkpt>
      <trkpt lat="45.39023" lon="0.80668">
        <ele>165.542252</ele>
        <time>2014-11-04T11:44:24Z</time>
      </trkpt>
      <trkpt lat="45.39035" lon="0.80648">
        <ele>172.066101</ele>
        <time>2014-11-04T11:44:29Z</time>
      </trkpt>
      <trkpt lat="45.39053" lon="0.80633">
        <ele>176.725601</ele>
        <time>2014-11-04T11:44:37Z</time>
      </trkpt>
      <trkpt lat="45.39075" lon="0.80635">
        <ele>174.963089</ele>
        <time>2014-11-04T11:44:44Z</time>
      </trkpt>
      <trkpt lat="45.39098" lon="0.80633">
        <ele>175.375046</ele>
        <time>2014-11-04T11:44:49Z</time>
      </trkpt>
      <trkpt lat="45.3912" lon="0.80633">
        <ele>176.323547</ele>
        <time>2014-11-04T11:44:54Z</time>
      </trkpt>
      <trkpt lat="45.3914" lon="0.80633">
        <ele>177.183014</ele>
        <time>2014-11-04T11:44:58Z</time>
      </trkpt>
      <trkpt lat="45.3916" lon="0.80633">
        <ele>178.057892</ele>
        <time>2014-11-04T11:45:02Z</time>
      </trkpt>
      <trkpt lat="45.39183" lon="0.80633">
        <ele>179.006256</ele>
        <time>2014-11-04T11:45:07Z</time>
      </trkpt>
      <trkpt lat="45.39203" lon="0.80633">
        <ele>179.469284</ele>
        <time>2014-11-04T11:45:13Z</time>
      </trkpt>
      <trkpt lat="45.39225" lon="0.80628">
        <ele>180.950256</ele>
        <time>2014-11-04T11:45:18Z</time>
      </trkpt>
      <trkpt lat="45.3924" lon="0.80608">
        <ele>184.38298</ele>
        <time>2014-11-04T11:45:25Z</time>
      </trkpt>
      <trkpt lat="45.3924" lon="0.8058">
        <ele>188.394455</ele>
        <time>2014-11-04T11:46:51Z</time>
      </trkpt>
      <trkpt lat="45.39225" lon="0.80565">
        <ele>190.897751</ele>
        <time>2014-11-04T11:47:05Z</time>
      </trkpt>
      <trkpt lat="45.39208" lon="0.80553">
        <ele>191.832855</ele>
        <time>2014-11-04T11:47:14Z</time>
      </trkpt>
      <trkpt lat="45.3921" lon="0.80523">
        <ele>192.771103</ele>
        <time>2014-11-04T11:47:22Z</time>
      </trkpt>
      <trkpt lat="45.3922" lon="0.80495">
        <ele>193.128052</ele>
        <time>2014-11-04T11:47:27Z</time>
      </trkpt>
      <trkpt lat="45.39228" lon="0.8047">
        <ele>191.761749</ele>
        <time>2014-11-04T11:47:33Z</time>
      </trkpt>
      <trkpt lat="45.39213" lon="0.80448">
        <ele>191.561905</ele>
        <time>2014-11-04T11:48:01Z</time>
      </trkpt>
      <trkpt lat="45.3919" lon="0.80443">
        <ele>193.156754</ele>
        <time>2014-11-04T11:48:07Z</time>
      </trkpt>
      <trkpt lat="45.3917" lon="0.80438">
        <ele>195.014572</ele>
        <time>2014-11-04T11:48:11Z</time>
      </trkpt>
      <trkpt lat="45.39153" lon="0.80423">
        <ele>197.375443</ele>
        <time>2014-11-04T11:48:16Z</time>
      </trkpt>
      <trkpt lat="45.39138" lon="0.80405">
        <ele>199.640472</ele>
        <time>2014-11-04T11:48:20Z</time>
      </trkpt>
      <trkpt lat="45.3912" lon="0.80393">
        <ele>201.590546</ele>
        <time>2014-11-04T11:48:25Z</time>
      </trkpt>
      <trkpt lat="45.39103" lon="0.80383">
        <ele>203.265259</ele>
        <time>2014-11-04T11:48:30Z</time>
      </trkpt>
      <trkpt lat="45.39093" lon="0.80358">
        <ele>204.421677</ele>
        <time>2014-11-04T11:48:34Z</time>
      </trkpt>
      <trkpt lat="45.39085" lon="0.80333">
        <ele>205.021317</ele>
        <time>2014-11-04T11:48:40Z</time>
      </trkpt>
      <trkpt lat="45.39078" lon="0.80308">
        <ele>205.180389</ele>
        <time>2014-11-04T11:48:52Z</time>
      </trkpt>
      <trkpt lat="45.39068" lon="0.80283">
        <ele>205.930664</ele>
        <time>2014-11-04T11:48:57Z</time>
      </trkpt>
      <trkpt lat="45.39063" lon="0.80253">
        <ele>206.778381</ele>
        <time>2014-11-04T11:49:05Z</time>
      </trkpt>
      <trkpt lat="45.39058" lon="0.80225">
        <ele>207.661514</ele>
        <time>2014-11-04T11:49:10Z</time>
      </trkpt>
      <trkpt lat="45.39055" lon="0.80195">
        <ele>208.542908</ele>
        <time>2014-11-04T11:49:17Z</time>
      </trkpt>
      <trkpt lat="45.3905" lon="0.80168">
        <ele>209.246475</ele>
        <time>2014-11-04T11:49:22Z</time>
      </trkpt>
      <trkpt lat="45.39043" lon="0.80143">
        <ele>209.723648</ele>
        <time>2014-11-04T11:49:26Z</time>
      </trkpt>
      <trkpt lat="45.3903" lon="0.80118">
        <ele>210.175308</ele>
        <time>2014-11-04T11:49:30Z</time>
      </trkpt>
      <trkpt lat="45.39015" lon="0.80103">
        <ele>210.058243</ele>
        <time>2014-11-04T11:49:34Z</time>
      </trkpt>
      <trkpt lat="45.38998" lon="0.80085">
        <ele>210.27182</ele>
        <time>2014-11-04T11:49:41Z</time>
      </trkpt>
      <trkpt lat="45.38983" lon="0.80065">
        <ele>210.277649</ele>
        <time>2014-11-04T11:50:21Z</time>
      </trkpt>
      <trkpt lat="45.38973" lon="0.80049">
        <ele>210.005981</ele>
        <time>2014-11-04T10:53:04Z</time>
      </trkpt>
      <trkpt lat="45.38976" lon="0.80048">
        <ele>209.863708</ele>
        <time>2014-11-04T10:53:05Z</time>
      </trkpt>
      <trkpt lat="45.3898" lon="0.80047">
        <ele>209.65416</ele>
        <time>2014-11-04T10:53:06Z</time>
      </trkpt>
      <trkpt lat="45.38983" lon="0.80045">
        <ele>209.388443</ele>
        <time>2014-11-04T10:53:07Z</time>
      </trkpt>
      <trkpt lat="45.38986" lon="0.80043">
        <ele>209.100555</ele>
        <time>2014-11-04T10:53:08Z</time>
      </trkpt>
      <trkpt lat="45.3899" lon="0.8004">
        <ele>208.786774</ele>
        <time>2014-11-04T10:53:09Z</time>
      </trkpt>
      <trkpt lat="45.38994" lon="0.80038">
        <ele>208.416168</ele>
        <time>2014-11-04T10:53:10Z</time>
      </trkpt>
      <trkpt lat="45.38998" lon="0.80036">
        <ele>208.016144</ele>
        <time>2014-11-04T10:53:11Z</time>
      </trkpt>
      <trkpt lat="45.39003" lon="0.80034">
        <ele>207.634247</ele>
        <time>2014-11-04T10:53:12Z</time>
      </trkpt>
      <trkpt lat="45.39007" lon="0.80031">
        <ele>207.258331</ele>
        <time>2014-11-04T10:53:13Z</time>
      </trkpt>
      <trkpt lat="45.39012" lon="0.80029">
        <ele>206.898041</ele>
        <time>2014-11-04T10:53:14Z</time>
      </trkpt>
      <trkpt lat="45.39017" lon="0.80026">
        <ele>206.50119</ele>
        <time>2014-11-04T10:53:15Z</time>
      </trkpt>
      <trkpt lat="45.39023" lon="0.80024">
        <ele>206.130615</ele>
        <time>2014-11-04T10:53:16Z</time>
      </trkpt>
      <trkpt lat="45.39028" lon="0.80021">
        <ele>205.802765</ele>
        <time>2014-11-04T10:53:17Z</time>
      </trkpt>
      <trkpt lat="45.39032" lon="0.80019">
        <ele>205.577148</ele>
        <time>2014-11-04T10:53:18Z</time>
      </trkpt>
      <trkpt lat="45.39035" lon="0.80017">
        <ele>205.343567</ele>
        <time>2014-11-04T10:53:19Z</time>
      </trkpt>
      <trkpt lat="45.39039" lon="0.80014">
        <ele>205.120346</ele>
        <time>2014-11-04T10:53:20Z</time>
      </trkpt>
      <trkpt lat="45.39042" lon="0.80011">
        <ele>204.883514</ele>
        <time>2014-11-04T10:53:21Z</time>
      </trkpt>
      <trkpt lat="45.39046" lon="0.80008">
        <ele>204.62352</ele>
        <time>2014-11-04T10:53:22Z</time>
      </trkpt>
      <trkpt lat="45.39049" lon="0.80004">
        <ele>204.367813</ele>
        <time>2014-11-04T10:53:23Z</time>
      </trkpt>
      <trkpt lat="45.39053" lon="0.79999">
        <ele>204.079666</ele>
        <time>2014-11-04T10:53:24Z</time>
      </trkpt>
      <trkpt lat="45.39056" lon="0.79994">
        <ele>203.791275</ele>
        <time>2014-11-04T10:53:25Z</time>
      </trkpt>
      <trkpt lat="45.3906" lon="0.79988">
        <ele>203.445801</ele>
        <time>2014-11-04T10:53:26Z</time>
      </trkpt>
      <trkpt lat="45.39064" lon="0.79981">
        <ele>203.073929</ele>
        <time>2014-11-04T10:53:27Z</time>
      </trkpt>
      <trkpt lat="45.39067" lon="0.79974">
        <ele>202.753571</ele>
        <time>2014-11-04T10:53:28Z</time>
      </trkpt>
      <trkpt lat="45.3907" lon="0.79969">
        <ele>202.500443</ele>
        <time>2014-11-04T10:53:29Z</time>
      </trkpt>
      <trkpt lat="45.39073" lon="0.79963">
        <ele>202.271027</ele>
        <time>2014-11-04T10:53:30Z</time>
      </trkpt>
      <trkpt lat="45.39075" lon="0.79958">
        <ele>202.07547</ele>
        <time>2014-11-04T10:53:31Z</time>
      </trkpt>
      <trkpt lat="45.39078" lon="0.79953">
        <ele>201.910233</ele>
        <time>2014-11-04T10:53:32Z</time>
      </trkpt>
      <trkpt lat="45.39081" lon="0.79948">
        <ele>201.751282</ele>
        <time>2014-11-04T10:53:33Z</time>
      </trkpt>
      <trkpt lat="45.39083" lon="0.79941">
        <ele>201.528244</ele>
        <time>2014-11-04T10:53:34Z</time>
      </trkpt>
      <trkpt lat="45.39086" lon="0.79935">
        <ele>201.320572</ele>
        <time>2014-11-04T10:53:35Z</time>
      </trkpt>
      <trkpt lat="45.3909" lon="0.79929">
        <ele>201.147079</ele>
        <time>2014-11-04T10:53:36Z</time>
      </trkpt>
      <trkpt lat="45.39093" lon="0.79923">
        <ele>201.004074</ele>
        <time>2014-11-04T10:53:37Z</time>
      </trkpt>
      <trkpt lat="45.39097" lon="0.79918">
        <ele>200.729019</ele>
        <time>2014-11-04T10:53:38Z</time>
      </trkpt>
      <trkpt lat="45.39102" lon="0.79913">
        <ele>200.463898</ele>
        <time>2014-11-04T10:53:39Z</time>
      </trkpt>
      <trkpt lat="45.39106" lon="0.79908">
        <ele>200.213287</ele>
        <time>2014-11-04T10:53:40Z</time>
      </trkpt>
      <trkpt lat="45.39111" lon="0.79903">
        <ele>199.957977</ele>
        <time>2014-11-04T10:53:41Z</time>
      </trkpt>
      <trkpt lat="45.39115" lon="0.79898">
        <ele>199.757507</ele>
        <time>2014-11-04T10:53:42Z</time>
      </trkpt>
      <trkpt lat="45.39119" lon="0.79894">
        <ele>199.58461</ele>
        <time>2014-11-04T10:53:43Z</time>
      </trkpt>
      <trkpt lat="45.39124" lon="0.79889">
        <ele>199.4207</ele>
        <time>2014-11-04T10:53:44Z</time>
      </trkpt>
      <trkpt lat="45.39128" lon="0.79884">
        <ele>199.188095</ele>
        <time>2014-11-04T10:53:45Z</time>
      </trkpt>
      <trkpt lat="45.39133" lon="0.7988">
        <ele>198.958374</ele>
        <time>2014-11-04T10:53:46Z</time>
      </trkpt>
      <trkpt lat="45.39137" lon="0.79876">
        <ele>198.764496</ele>
        <time>2014-11-04T10:53:47Z</time>
      </trkpt>
      <trkpt lat="45.39142" lon="0.79873">
        <ele>198.604202</ele>
        <time>2014-11-04T10:53:48Z</time>
      </trkpt>
      <trkpt lat="45.39146" lon="0.7987">
        <ele>198.493042</ele>
        <time>2014-11-04T10:53:49Z</time>
      </trkpt>
      <trkpt lat="45.3915" lon="0.79869">
        <ele>198.414047</ele>
        <time>2014-11-04T10:53:50Z</time>
      </trkpt>
      <trkpt lat="45.39155" lon="0.79867">
        <ele>198.348648</ele>
        <time>2014-11-04T10:53:51Z</time>
      </trkpt>
      <trkpt lat="45.39159" lon="0.79866">
        <ele>198.303528</ele>
        <time>2014-11-04T10:53:52Z</time>
      </trkpt>
      <trkpt lat="45.39162" lon="0.79865">
        <ele>198.254822</ele>
        <time>2014-11-04T10:53:53Z</time>
      </trkpt>
      <trkpt lat="45.39166" lon="0.79863">
        <ele>198.198746</ele>
        <time>2014-11-04T10:53:54Z</time>
      </trkpt>
      <trkpt lat="45.3917" lon="0.79862">
        <ele>198.155533</ele>
        <time>2014-11-04T10:53:55Z</time>
      </trkpt>
      <trkpt lat="45.39173" lon="0.79859">
        <ele>198.3116</ele>
        <time>2014-11-04T10:53:56Z</time>
      </trkpt>
      <trkpt lat="45.39177" lon="0.79856">
        <ele>198.45195</ele>
        <time>2014-11-04T10:53:57Z</time>
      </trkpt>
      <trkpt lat="45.3918" lon="0.79853">
        <ele>198.539474</ele>
        <time>2014-11-04T10:53:58Z</time>
      </trkpt>
      <trkpt lat="45.39186" lon="0.79848">
        <ele>198.673019</ele>
        <time>2014-11-04T10:53:59Z</time>
      </trkpt>
      <trkpt lat="45.39191" lon="0.79843">
        <ele>198.773392</ele>
        <time>2014-11-04T10:54:00Z</time>
      </trkpt>
      <trkpt lat="45.39196" lon="0.79838">
        <ele>198.880219</ele>
        <time>2014-11-04T10:54:01Z</time>
      </trkpt>
      <trkpt lat="45.392" lon="0.79833">
        <ele>198.953949</ele>
        <time>2014-11-04T10:54:02Z</time>
      </trkpt>
      <trkpt lat="45.39203" lon="0.79829">
        <ele>198.994278</ele>
        <time>2014-11-04T10:54:03Z</time>
      </trkpt>
      <trkpt lat="45.39205" lon="0.79827">
        <ele>199.039459</ele>
        <time>2014-11-04T10:54:04Z</time>
      </trkpt>
      <trkpt lat="45.39209" lon="0.79822">
        <ele>199.08876</ele>
        <time>2014-11-04T10:54:05Z</time>
      </trkpt>
      <trkpt lat="45.39212" lon="0.79819">
        <ele>199.144867</ele>
        <time>2014-11-04T10:54:06Z</time>
      </trkpt>
      <trkpt lat="45.39216" lon="0.79815">
        <ele>199.167206</ele>
        <time>2014-11-04T10:54:07Z</time>
      </trkpt>
      <trkpt lat="45.39219" lon="0.79811">
        <ele>199.187241</ele>
        <time>2014-11-04T10:54:08Z</time>
      </trkpt>
      <trkpt lat="45.39221" lon="0.79808">
        <ele>199.226944</ele>
        <time>2014-11-04T10:54:09Z</time>
      </trkpt>
      <trkpt lat="45.39225" lon="0.79804">
        <ele>199.28653</ele>
        <time>2014-11-04T10:54:10Z</time>
      </trkpt>
      <trkpt lat="45.39229" lon="0.79801">
        <ele>199.377289</ele>
        <time>2014-11-04T10:54:11Z</time>
      </trkpt>
      <trkpt lat="45.39233" lon="0.79797">
        <ele>199.500916</ele>
        <time>2014-11-04T10:54:12Z</time>
      </trkpt>
      <trkpt lat="45.39237" lon="0.79793">
        <ele>199.594818</ele>
        <time>2014-11-04T10:54:13Z</time>
      </trkpt>
      <trkpt lat="45.39241" lon="0.79789">
        <ele>199.626099</ele>
        <time>2014-11-04T10:54:14Z</time>
      </trkpt>
      <trkpt lat="45.39244" lon="0.79785">
        <ele>199.565094</ele>
        <time>2014-11-04T10:54:15Z</time>
      </trkpt>
      <trkpt lat="45.39247" lon="0.79782">
        <ele>199.488815</ele>
        <time>2014-11-04T10:54:16Z</time>
      </trkpt>
      <trkpt lat="45.3925" lon="0.79778">
        <ele>199.439438</ele>
        <time>2014-11-04T10:54:17Z</time>
      </trkpt>
      <trkpt lat="45.39255" lon="0.79775">
        <ele>199.469086</ele>
        <time>2014-11-04T10:54:18Z</time>
      </trkpt>
      <trkpt lat="45.3926" lon="0.79771">
        <ele>199.46553</ele>
        <time>2014-11-04T10:54:19Z</time>
      </trkpt>
      <trkpt lat="45.39264" lon="0.79768">
        <ele>199.237442</ele>
        <time>2014-11-04T10:54:20Z</time>
      </trkpt>
      <trkpt lat="45.39269" lon="0.79764">
        <ele>199.016647</ele>
        <time>2014-11-04T10:54:21Z</time>
      </trkpt>
      <trkpt lat="45.39274" lon="0.7976">
        <ele>198.754501</ele>
        <time>2014-11-04T10:54:22Z</time>
      </trkpt>
      <trkpt lat="45.39279" lon="0.79756">
        <ele>198.564957</ele>
        <time>2014-11-04T10:54:23Z</time>
      </trkpt>
      <trkpt lat="45.39284" lon="0.79753">
        <ele>198.425507</ele>
        <time>2014-11-04T10:54:24Z</time>
      </trkpt>
      <trkpt lat="45.39289" lon="0.7975">
        <ele>198.301163</ele>
        <time>2014-11-04T10:54:25Z</time>
      </trkpt>
      <trkpt lat="45.39294" lon="0.79747">
        <ele>198.197098</ele>
        <time>2014-11-04T10:54:26Z</time>
      </trkpt>
      <trkpt lat="45.39298" lon="0.79745">
        <ele>198.075348</ele>
        <time>2014-11-04T10:54:27Z</time>
      </trkpt>
      <trkpt lat="45.39301" lon="0.79742">
        <ele>197.964157</ele>
        <time>2014-11-04T10:54:28Z</time>
      </trkpt>
      <trkpt lat="45.39305" lon="0.79739">
        <ele>197.693054</ele>
        <time>2014-11-04T10:54:29Z</time>
      </trkpt>
      <trkpt lat="45.39308" lon="0.79736">
        <ele>197.374161</ele>
        <time>2014-11-04T10:54:30Z</time>
      </trkpt>
      <trkpt lat="45.3931" lon="0.79734">
        <ele>197.098053</ele>
        <time>2014-11-04T10:54:31Z</time>
      </trkpt>
      <trkpt lat="45.39312" lon="0.79732">
        <ele>196.915359</ele>
        <time>2014-11-04T10:54:32Z</time>
      </trkpt>
      <trkpt lat="45.39313" lon="0.7973">
        <ele>196.764404</ele>
        <time>2014-11-04T10:54:33Z</time>
      </trkpt>
      <trkpt lat="45.39315" lon="0.79726">
        <ele>196.48645</ele>
        <time>2014-11-04T10:54:34Z</time>
      </trkpt>
      <trkpt lat="45.39318" lon="0.79722">
        <ele>196.506104</ele>
        <time>2014-11-04T10:54:35Z</time>
      </trkpt>
      <trkpt lat="45.3932" lon="0.79717">
        <ele>196.622284</ele>
        <time>2014-11-04T10:54:36Z</time>
      </trkpt>
      <trkpt lat="45.39323" lon="0.79714">
        <ele>196.697144</ele>
        <time>2014-11-04T10:54:37Z</time>
      </trkpt>
      <trkpt lat="45.39326" lon="0.79711">
        <ele>196.764053</ele>
        <time>2014-11-04T10:54:38Z</time>
      </trkpt>
      <trkpt lat="45.39329" lon="0.79707">
        <ele>196.87529</ele>
        <time>2014-11-04T10:54:39Z</time>
      </trkpt>
      <trkpt lat="45.39332" lon="0.79703">
        <ele>197.045212</ele>
        <time>2014-11-04T10:54:40Z</time>
      </trkpt>
      <trkpt lat="45.39335" lon="0.79699">
        <ele>197.211426</ele>
        <time>2014-11-04T10:54:41Z</time>
      </trkpt>
      <trkpt lat="45.39339" lon="0.79695">
        <ele>197.460663</ele>
        <time>2014-11-04T10:54:42Z</time>
      </trkpt>
      <trkpt lat="45.39343" lon="0.7969">
        <ele>197.732407</ele>
        <time>2014-11-04T10:54:43Z</time>
      </trkpt>
      <trkpt lat="45.39346" lon="0.79687">
        <ele>197.969162</ele>
        <time>2014-11-04T10:54:44Z</time>
      </trkpt>
      <trkpt lat="45.39349" lon="0.79684">
        <ele>198.167618</ele>
        <time>2014-11-04T10:54:45Z</time>
      </trkpt>
      <trkpt lat="45.39352" lon="0.79681">
        <ele>198.365814</ele>
        <time>2014-11-04T10:54:46Z</time>
      </trkpt>
      <trkpt lat="45.39354" lon="0.79677">
        <ele>198.648743</ele>
        <time>2014-11-04T10:54:47Z</time>
      </trkpt>
      <trkpt lat="45.39356" lon="0.79674">
        <ele>198.875778</ele>
        <time>2014-11-04T10:54:48Z</time>
      </trkpt>
      <trkpt lat="45.39356" lon="0.79672">
        <ele>199.001343</ele>
        <time>2014-11-04T10:54:49Z</time>
      </trkpt>
      <trkpt lat="45.39357" lon="0.7967">
        <ele>199.180573</ele>
        <time>2014-11-04T10:54:50Z</time>
      </trkpt>
      <trkpt lat="45.39358" lon="0.79668">
        <ele>199.381958</ele>
        <time>2014-11-04T10:54:51Z</time>
      </trkpt>
      <trkpt lat="45.3936" lon="0.79665">
        <ele>199.62529</ele>
        <time>2014-11-04T10:54:52Z</time>
      </trkpt>
      <trkpt lat="45.39363" lon="0.79662">
        <ele>199.851456</ele>
        <time>2014-11-04T10:54:53Z</time>
      </trkpt>
      <trkpt lat="45.39365" lon="0.79659">
        <ele>200.040649</ele>
        <time>2014-11-04T10:54:54Z</time>
      </trkpt>
      <trkpt lat="45.39367" lon="0.79657">
        <ele>200.14769</ele>
        <time>2014-11-04T10:54:55Z</time>
      </trkpt>
      <trkpt lat="45.3937" lon="0.79654">
        <ele>200.305542</ele>
        <time>2014-11-04T10:54:56Z</time>
      </trkpt>
      <trkpt lat="45.39373" lon="0.7965">
        <ele>200.484924</ele>
        <time>2014-11-04T10:54:57Z</time>
      </trkpt>
      <trkpt lat="45.39376" lon="0.79646">
        <ele>200.673401</ele>
        <time>2014-11-04T10:54:58Z</time>
      </trkpt>
      <trkpt lat="45.39379" lon="0.79642">
        <ele>200.863907</ele>
        <time>2014-11-04T10:54:59Z</time>
      </trkpt>
      <trkpt lat="45.39382" lon="0.79637">
        <ele>201.090759</ele>
        <time>2014-11-04T10:55:00Z</time>
      </trkpt>
      <trkpt lat="45.39385" lon="0.79633">
        <ele>201.279327</ele>
        <time>2014-11-04T10:55:01Z</time>
      </trkpt>
      <trkpt lat="45.39388" lon="0.79628">
        <ele>201.490997</ele>
        <time>2014-11-04T10:55:02Z</time>
      </trkpt>
      <trkpt lat="45.39392" lon="0.79624">
        <ele>201.650116</ele>
        <time>2014-11-04T10:55:03Z</time>
      </trkpt>
      <trkpt lat="45.39395" lon="0.79619">
        <ele>201.885208</ele>
        <time>2014-11-04T10:55:04Z</time>
      </trkpt>
      <trkpt lat="45.39398" lon="0.79615">
        <ele>202.105743</ele>
        <time>2014-11-04T10:55:05Z</time>
      </trkpt>
      <trkpt lat="45.39401" lon="0.7961">
        <ele>202.314163</ele>
        <time>2014-11-04T10:55:06Z</time>
      </trkpt>
      <trkpt lat="45.39405" lon="0.79606">
        <ele>202.512589</ele>
        <time>2014-11-04T10:55:07Z</time>
      </trkpt>
      <trkpt lat="45.39407" lon="0.79601">
        <ele>202.70932</ele>
        <time>2014-11-04T10:55:08Z</time>
      </trkpt>
      <trkpt lat="45.3941" lon="0.79597">
        <ele>202.902649</ele>
        <time>2014-11-04T10:55:09Z</time>
      </trkpt>
      <trkpt lat="45.39413" lon="0.79592">
        <ele>203</ele>
        <time>2014-11-04T10:55:10Z</time>
      </trkpt>
      <trkpt lat="45.39415" lon="0.79587">
        <ele>203</ele>
        <time>2014-11-04T10:55:11Z</time>
      </trkpt>
      <trkpt lat="45.39418" lon="0.79584">
        <ele>203</ele>
        <time>2014-11-04T10:55:12Z</time>
      </trkpt>
      <trkpt lat="45.39421" lon="0.79581">
        <ele>203</ele>
        <time>2014-11-04T10:55:13Z</time>
      </trkpt>
      <trkpt lat="45.39423" lon="0.79578">
        <ele>203</ele>
        <time>2014-11-04T10:55:14Z</time>
      </trkpt>
      <trkpt lat="45.39426" lon="0.79574">
        <ele>203</ele>
        <time>2014-11-04T10:55:15Z</time>
      </trkpt>
      <trkpt lat="45.39428" lon="0.79571">
        <ele>203</ele>
        <time>2014-11-04T10:55:16Z</time>
      </trkpt>
      <trkpt lat="45.3943" lon="0.79568">
        <ele>203</ele>
        <time>2014-11-04T10:55:17Z</time>
      </trkpt>
      <trkpt lat="45.39433" lon="0.79566">
        <ele>203</ele>
        <time>2014-11-04T10:55:18Z</time>
      </trkpt>
      <trkpt lat="45.39436" lon="0.79563">
        <ele>203.000015</ele>
        <time>2014-11-04T10:55:19Z</time>
      </trkpt>
      <trkpt lat="45.39439" lon="0.79559">
        <ele>203.008102</ele>
        <time>2014-11-04T10:55:20Z</time>
      </trkpt>
      <trkpt lat="45.39441" lon="0.79556">
        <ele>203.028824</ele>
        <time>2014-11-04T10:55:21Z</time>
      </trkpt>
      <trkpt lat="45.39446" lon="0.79551">
        <ele>203.082413</ele>
        <time>2014-11-04T10:55:22Z</time>
      </trkpt>
      <trkpt lat="45.39449" lon="0.79547">
        <ele>203.140289</ele>
        <time>2014-11-04T10:55:23Z</time>
      </trkpt>
      <trkpt lat="45.39453" lon="0.79544">
        <ele>203.232361</ele>
        <time>2014-11-04T10:55:24Z</time>
      </trkpt>
      <trkpt lat="45.39457" lon="0.79541">
        <ele>203.325943</ele>
        <time>2014-11-04T10:55:25Z</time>
      </trkpt>
      <trkpt lat="45.3946" lon="0.79538">
        <ele>203.425339</ele>
        <time>2014-11-04T10:55:26Z</time>
      </trkpt>
      <trkpt lat="45.39463" lon="0.79535">
        <ele>203.521423</ele>
        <time>2014-11-04T10:55:27Z</time>
      </trkpt>
      <trkpt lat="45.39466" lon="0.79533">
        <ele>203.636719</ele>
        <time>2014-11-04T10:55:28Z</time>
      </trkpt>
      <trkpt lat="45.39468" lon="0.79531">
        <ele>203.711121</ele>
        <time>2014-11-04T10:55:29Z</time>
      </trkpt>
      <trkpt lat="45.3947" lon="0.79528">
        <ele>203.754807</ele>
        <time>2014-11-04T10:55:30Z</time>
      </trkpt>
      <trkpt lat="45.39472" lon="0.79525">
        <ele>203.789734</ele>
        <time>2014-11-04T10:55:31Z</time>
      </trkpt>
      <trkpt lat="45.39474" lon="0.79523">
        <ele>203.844482</ele>
        <time>2014-11-04T10:55:32Z</time>
      </trkpt>
      <trkpt lat="45.39478" lon="0.79519">
        <ele>203.934677</ele>
        <time>2014-11-04T10:55:33Z</time>
      </trkpt>
      <trkpt lat="45.39481" lon="0.79516">
        <ele>204.131912</ele>
        <time>2014-11-04T10:55:34Z</time>
      </trkpt>
      <trkpt lat="45.39485" lon="0.79512">
        <ele>204.459915</ele>
        <time>2014-11-04T10:55:35Z</time>
      </trkpt>
      <trkpt lat="45.39488" lon="0.79508">
        <ele>204.769547</ele>
        <time>2014-11-04T10:55:36Z</time>
      </trkpt>
      <trkpt lat="45.39491" lon="0.79506">
        <ele>205.047607</ele>
        <time>2014-11-04T10:55:37Z</time>
      </trkpt>
      <trkpt lat="45.39495" lon="0.79503">
        <ele>205.418945</ele>
        <time>2014-11-04T10:55:38Z</time>
      </trkpt>
      <trkpt lat="45.395" lon="0.795">
        <ele>205.957062</ele>
        <time>2014-11-04T10:55:39Z</time>
      </trkpt>
      <trkpt lat="45.39504" lon="0.79497">
        <ele>206.436569</ele>
        <time>2014-11-04T10:55:40Z</time>
      </trkpt>
      <trkpt lat="45.39508" lon="0.79494">
        <ele>206.910507</ele>
        <time>2014-11-04T10:55:41Z</time>
      </trkpt>
      <trkpt lat="45.39512" lon="0.79492">
        <ele>207.46344</ele>
        <time>2014-11-04T10:55:42Z</time>
      </trkpt>
      <trkpt lat="45.39518" lon="0.79489">
        <ele>208.157822</ele>
        <time>2014-11-04T10:55:43Z</time>
      </trkpt>
      <trkpt lat="45.39521" lon="0.79487">
        <ele>208.61232</ele>
        <time>2014-11-04T10:55:44Z</time>
      </trkpt>
      <trkpt lat="45.39526" lon="0.79486">
        <ele>209.033127</ele>
        <time>2014-11-04T10:55:45Z</time>
      </trkpt>
      <trkpt lat="45.3953" lon="0.79484">
        <ele>209.195297</ele>
        <time>2014-11-04T10:55:46Z</time>
      </trkpt>
      <trkpt lat="45.39534" lon="0.79482">
        <ele>209.378006</ele>
        <time>2014-11-04T10:55:47Z</time>
      </trkpt>
      <trkpt lat="45.39538" lon="0.79481">
        <ele>209.508972</ele>
        <time>2014-11-04T10:55:48Z</time>
      </trkpt>
      <trkpt lat="45.39541" lon="0.7948">
        <ele>209.599487</ele>
        <time>2014-11-04T10:55:49Z</time>
      </trkpt>
      <trkpt lat="45.39542" lon="0.7948">
        <ele>209.620499</ele>
        <time>2014-11-04T10:55:50Z</time>
      </trkpt>
      <trkpt lat="45.39543" lon="0.79481">
        <ele>209.620224</ele>
        <time>2014-11-04T10:55:51Z</time>
      </trkpt>
      <trkpt lat="45.39544" lon="0.79481">
        <ele>209.629562</ele>
        <time>2014-11-04T10:55:52Z</time>
      </trkpt>
      <trkpt lat="45.39545" lon="0.79481">
        <ele>209.660583</ele>
        <time>2014-11-04T10:55:53Z</time>
      </trkpt>
      <trkpt lat="45.39547" lon="0.79481">
        <ele>209.696671</ele>
        <time>2014-11-04T10:55:54Z</time>
      </trkpt>
      <trkpt lat="45.39549" lon="0.7948">
        <ele>209.763168</ele>
        <time>2014-11-04T10:55:55Z</time>
      </trkpt>
      <trkpt lat="45.39552" lon="0.7948">
        <ele>209.840332</ele>
        <time>2014-11-04T10:55:56Z</time>
      </trkpt>
      <trkpt lat="45.39555" lon="0.7948">
        <ele>209.912521</ele>
        <time>2014-11-04T10:55:57Z</time>
      </trkpt>
      <trkpt lat="45.39556" lon="0.7948">
        <ele>209.914047</ele>
        <time>2014-11-04T10:55:58Z</time>
      </trkpt>
      <trkpt lat="45.39556" lon="0.7948">
        <ele>209.936447</ele>
        <time>2014-11-04T10:55:59Z</time>
      </trkpt>
      <trkpt lat="45.39556" lon="0.7948">
        <ele>209.939423</ele>
        <time>2014-11-04T10:56:00Z</time>
      </trkpt>
      <trkpt lat="45.39556" lon="0.7948">
        <ele>209.936493</ele>
        <time>2014-11-04T10:56:01Z</time>
      </trkpt>
      <trkpt lat="45.39556" lon="0.7948">
        <ele>209.932175</ele>
        <time>2014-11-04T10:56:02Z</time>
      </trkpt>
      <trkpt lat="45.39556" lon="0.7948">
        <ele>209.92688</ele>
        <time>2014-11-04T10:56:03Z</time>
      </trkpt>
      <trkpt lat="45.39556" lon="0.7948">
        <ele>209.914688</ele>
        <time>2014-11-04T10:56:04Z</time>
      </trkpt>
      <trkpt lat="45.39556" lon="0.79481">
        <ele>209.910049</ele>
        <time>2014-11-04T10:56:05Z</time>
      </trkpt>
      <trkpt lat="45.39556" lon="0.79481">
        <ele>209.901443</ele>
        <time>2014-11-04T10:56:06Z</time>
      </trkpt>
      <trkpt lat="45.39556" lon="0.79481">
        <ele>209.898712</ele>
        <time>2014-11-04T10:56:07Z</time>
      </trkpt>
      <trkpt lat="45.39557" lon="0.79481">
        <ele>209.899734</ele>
        <time>2014-11-04T10:56:08Z</time>
      </trkpt>
      <trkpt lat="45.39557" lon="0.79481">
        <ele>209.896088</ele>
        <time>2014-11-04T10:56:09Z</time>
      </trkpt>
      <trkpt lat="45.39557" lon="0.79481">
        <ele>209.901627</ele>
        <time>2014-11-04T10:56:10Z</time>
      </trkpt>
      <trkpt lat="45.39557" lon="0.79481">
        <ele>209.895309</ele>
        <time>2014-11-04T10:56:11Z</time>
      </trkpt>
      <trkpt lat="45.39558" lon="0.79482">
        <ele>209.886902</ele>
        <time>2014-11-04T10:56:12Z</time>
      </trkpt>
      <trkpt lat="45.39558" lon="0.79482">
        <ele>209.896515</ele>
        <time>2014-11-04T10:56:13Z</time>
      </trkpt>
      <trkpt lat="45.39558" lon="0.79482">
        <ele>209.901535</ele>
        <time>2014-11-04T10:56:14Z</time>
      </trkpt>
      <trkpt lat="45.39558" lon="0.79482">
        <ele>209.897415</ele>
        <time>2014-11-04T10:56:15Z</time>
      </trkpt>
      <trkpt lat="45.39559" lon="0.79482">
        <ele>209.895416</ele>
        <time>2014-11-04T10:56:16Z</time>
      </trkpt>
      <trkpt lat="45.39559" lon="0.79482">
        <ele>209.888809</ele>
        <time>2014-11-04T10:56:17Z</time>
      </trkpt>
      <trkpt lat="45.39559" lon="0.79482">
        <ele>209.895554</ele>
        <time>2014-11-04T10:56:18Z</time>
      </trkpt>
      <trkpt lat="45.3956" lon="0.79482">
        <ele>209.906433</ele>
        <time>2014-11-04T10:56:19Z</time>
      </trkpt>
      <trkpt lat="45.3956" lon="0.79482">
        <ele>209.903198</ele>
        <time>2014-11-04T10:56:20Z</time>
      </trkpt>
      <trkpt lat="45.3956" lon="0.79482">
        <ele>209.902664</ele>
        <time>2014-11-04T10:56:21Z</time>
      </trkpt>
      <trkpt lat="45.39561" lon="0.79482">
        <ele>209.930283</ele>
        <time>2014-11-04T10:56:22Z</time>
      </trkpt>
      <trkpt lat="45.39562" lon="0.79482">
        <ele>209.966675</ele>
        <time>2014-11-04T10:56:23Z</time>
      </trkpt>
      <trkpt lat="45.39563" lon="0.79481">
        <ele>210.021866</ele>
        <time>2014-11-04T10:56:24Z</time>
      </trkpt>
      <trkpt lat="45.39566" lon="0.7948">
        <ele>210.115051</ele>
        <time>2014-11-04T10:56:25Z</time>
      </trkpt>
      <trkpt lat="45.39568" lon="0.7948">
        <ele>210.183029</ele>
        <time>2014-11-04T10:56:26Z</time>
      </trkpt>
      <trkpt lat="45.3957" lon="0.79479">
        <ele>210.251602</ele>
        <time>2014-11-04T10:56:27Z</time>
      </trkpt>
      <trkpt lat="45.39572" lon="0.79478">
        <ele>210.310242</ele>
        <time>2014-11-04T10:56:28Z</time>
      </trkpt>
      <trkpt lat="45.39574" lon="0.79478">
        <ele>210.359009</ele>
        <time>2014-11-04T10:56:29Z</time>
      </trkpt>
      <trkpt lat="45.39577" lon="0.79478">
        <ele>210.386688</ele>
        <time>2014-11-04T10:56:30Z</time>
      </trkpt>
      <trkpt lat="45.39581" lon="0.79478">
        <ele>210.407196</ele>
        <time>2014-11-04T10:56:31Z</time>
      </trkpt>
      <trkpt lat="45.39585" lon="0.79478">
        <ele>210.42868</ele>
        <time>2014-11-04T10:56:32Z</time>
      </trkpt>
      <trkpt lat="45.39588" lon="0.79479">
        <ele>210.448318</ele>
        <time>2014-11-04T10:56:33Z</time>
      </trkpt>
      <trkpt lat="45.39593" lon="0.7948">
        <ele>210.473267</ele>
        <time>2014-11-04T10:56:34Z</time>
      </trkpt>
      <trkpt lat="45.39599" lon="0.79481">
        <ele>210.514496</ele>
        <time>2014-11-04T10:56:35Z</time>
      </trkpt>
      <trkpt lat="45.39604" lon="0.79483">
        <ele>210.534103</ele>
        <time>2014-11-04T10:56:36Z</time>
      </trkpt>
      <trkpt lat="45.39608" lon="0.79486">
        <ele>210.531052</ele>
        <time>2014-11-04T10:56:37Z</time>
      </trkpt>
      <trkpt lat="45.39612" lon="0.79488">
        <ele>210.549332</ele>
        <time>2014-11-04T10:56:38Z</time>
      </trkpt>
      <trkpt lat="45.39615" lon="0.7949">
        <ele>210.586929</ele>
        <time>2014-11-04T10:56:39Z</time>
      </trkpt>
      <trkpt lat="45.39619" lon="0.79491">
        <ele>210.651215</ele>
        <time>2014-11-04T10:56:40Z</time>
      </trkpt>
      <trkpt lat="45.39624" lon="0.79493">
        <ele>210.719574</ele>
        <time>2014-11-04T10:56:41Z</time>
      </trkpt>
      <trkpt lat="45.39629" lon="0.79495">
        <ele>210.797119</ele>
        <time>2014-11-04T10:56:42Z</time>
      </trkpt>
      <trkpt lat="45.39634" lon="0.79496">
        <ele>210.888184</ele>
        <time>2014-11-04T10:56:43Z</time>
      </trkpt>
      <trkpt lat="45.39639" lon="0.79496">
        <ele>211.007675</ele>
        <time>2014-11-04T10:56:44Z</time>
      </trkpt>
      <trkpt lat="45.39644" lon="0.79496">
        <ele>211.110748</ele>
        <time>2014-11-04T10:56:45Z</time>
      </trkpt>
      <trkpt lat="45.39648" lon="0.79496">
        <ele>211.200943</ele>
        <time>2014-11-04T10:56:46Z</time>
      </trkpt>
      <trkpt lat="45.39653" lon="0.79497">
        <ele>211.299622</ele>
        <time>2014-11-04T10:56:47Z</time>
      </trkpt>
      <trkpt lat="45.39659" lon="0.79497">
        <ele>211.413834</ele>
        <time>2014-11-04T10:56:48Z</time>
      </trkpt>
      <trkpt lat="45.39664" lon="0.79498">
        <ele>211.466629</ele>
        <time>2014-11-04T10:56:49Z</time>
      </trkpt>
      <trkpt lat="45.3967" lon="0.79498">
        <ele>211.539993</ele>
        <time>2014-11-04T10:56:50Z</time>
      </trkpt>
      <trkpt lat="45.39676" lon="0.79499">
        <ele>211.614014</ele>
        <time>2014-11-04T10:56:51Z</time>
      </trkpt>
      <trkpt lat="45.3968" lon="0.79499">
        <ele>211.6745</ele>
        <time>2014-11-04T10:56:52Z</time>
      </trkpt>
      <trkpt lat="45.39685" lon="0.795">
        <ele>211.728729</ele>
        <time>2014-11-04T10:56:53Z</time>
      </trkpt>
      <trkpt lat="45.39689" lon="0.79501">
        <ele>211.776093</ele>
        <time>2014-11-04T10:56:54Z</time>
      </trkpt>
      <trkpt lat="45.39693" lon="0.79504">
        <ele>211.826279</ele>
        <time>2014-11-04T10:56:55Z</time>
      </trkpt>
      <trkpt lat="45.39697" lon="0.79507">
        <ele>211.87175</ele>
        <time>2014-11-04T10:56:56Z</time>
      </trkpt>
      <trkpt lat="45.397" lon="0.79511">
        <ele>211.910492</ele>
        <time>2014-11-04T10:56:57Z</time>
      </trkpt>
      <trkpt lat="45.39702" lon="0.79515">
        <ele>211.942459</ele>
        <time>2014-11-04T10:56:58Z</time>
      </trkpt>
      <trkpt lat="45.39703" lon="0.79519">
        <ele>211.970367</ele>
        <time>2014-11-04T10:56:59Z</time>
      </trkpt>
      <trkpt lat="45.39705" lon="0.79522">
        <ele>211.999908</ele>
        <time>2014-11-04T10:57:00Z</time>
      </trkpt>
      <trkpt lat="45.39706" lon="0.79525">
        <ele>212.000641</ele>
        <time>2014-11-04T10:57:01Z</time>
      </trkpt>
      <trkpt lat="45.39706" lon="0.79528">
        <ele>212.00296</ele>
        <time>2014-11-04T10:57:02Z</time>
      </trkpt>
      <trkpt lat="45.39707" lon="0.79531">
        <ele>212.005417</ele>
        <time>2014-11-04T10:57:03Z</time>
      </trkpt>
      <trkpt lat="45.39708" lon="0.79533">
        <ele>212.012177</ele>
        <time>2014-11-04T10:57:04Z</time>
      </trkpt>
      <trkpt lat="45.39711" lon="0.79537">
        <ele>212.030212</ele>
        <time>2014-11-04T10:57:05Z</time>
      </trkpt>
      <trkpt lat="45.39714" lon="0.7954">
        <ele>212.054474</ele>
        <time>2014-11-04T10:57:06Z</time>
      </trkpt>
      <trkpt lat="45.39718" lon="0.79543">
        <ele>212.088516</ele>
        <time>2014-11-04T10:57:07Z</time>
      </trkpt>
      <trkpt lat="45.39721" lon="0.79546">
        <ele>212.132751</ele>
        <time>2014-11-04T10:57:08Z</time>
      </trkpt>
      <trkpt lat="45.39725" lon="0.79549">
        <ele>212.179321</ele>
        <time>2014-11-04T10:57:09Z</time>
      </trkpt>
      <trkpt lat="45.39727" lon="0.79552">
        <ele>212.226135</ele>
        <time>2014-11-04T10:57:10Z</time>
      </trkpt>
      <trkpt lat="45.39729" lon="0.79554">
        <ele>212.26741</ele>
        <time>2014-11-04T10:57:11Z</time>
      </trkpt>
      <trkpt lat="45.39732" lon="0.79557">
        <ele>212.319199</ele>
        <time>2014-11-04T10:57:12Z</time>
      </trkpt>
      <trkpt lat="45.39734" lon="0.79559">
        <ele>212.372284</ele>
        <time>2014-11-04T10:57:13Z</time>
      </trkpt>
      <trkpt lat="45.39737" lon="0.79561">
        <ele>212.431793</ele>
        <time>2014-11-04T10:57:14Z</time>
      </trkpt>
      <trkpt lat="45.39741" lon="0.79563">
        <ele>212.499588</ele>
        <time>2014-11-04T10:57:15Z</time>
      </trkpt>
      <trkpt lat="45.39743" lon="0.79565">
        <ele>212.563416</ele>
        <time>2014-11-04T10:57:16Z</time>
      </trkpt>
      <trkpt lat="45.39746" lon="0.79568">
        <ele>212.643921</ele>
        <time>2014-11-04T10:57:17Z</time>
      </trkpt>
      <trkpt lat="45.39749" lon="0.79571">
        <ele>212.73175</ele>
        <time>2014-11-04T10:57:18Z</time>
      </trkpt>
      <trkpt lat="45.39752" lon="0.79574">
        <ele>212.723907</ele>
        <time>2014-11-04T10:57:19Z</time>
      </trkpt>
      <trkpt lat="45.39757" lon="0.79578">
        <ele>212.556198</ele>
        <time>2014-11-04T10:57:20Z</time>
      </trkpt>
      <trkpt lat="45.39761" lon="0.79582">
        <ele>212.447937</ele>
        <time>2014-11-04T10:57:21Z</time>
      </trkpt>
      <trkpt lat="45.39765" lon="0.79585">
        <ele>212.361938</ele>
        <time>2014-11-04T10:57:22Z</time>
      </trkpt>
      <trkpt lat="45.39766" lon="0.79586">
        <ele>212.313278</ele>
        <time>2014-11-04T10:57:23Z</time>
      </trkpt>
      <trkpt lat="45.39766" lon="0.79586">
        <ele>212.313217</ele>
        <time>2014-11-04T10:57:24Z</time>
      </trkpt>
      <trkpt lat="45.39766" lon="0.79585">
        <ele>212.326813</ele>
        <time>2014-11-04T10:57:25Z</time>
      </trkpt>
      <trkpt lat="45.39766" lon="0.79585">
        <ele>212.32515</ele>
        <time>2014-11-04T10:57:26Z</time>
      </trkpt>
      <trkpt lat="45.39766" lon="0.79585">
        <ele>212.305878</ele>
        <time>2014-11-04T10:57:27Z</time>
      </trkpt>
      <trkpt lat="45.39766" lon="0.79585">
        <ele>212.283188</ele>
        <time>2014-11-04T10:57:28Z</time>
      </trkpt>
      <trkpt lat="45.39767" lon="0.79584">
        <ele>212.241821</ele>
        <time>2014-11-04T10:57:29Z</time>
      </trkpt>
      <trkpt lat="45.39767" lon="0.79583">
        <ele>212.192627</ele>
        <time>2014-11-04T10:57:30Z</time>
      </trkpt>
      <trkpt lat="45.39767" lon="0.79582">
        <ele>212.158325</ele>
        <time>2014-11-04T10:57:31Z</time>
      </trkpt>
      <trkpt lat="45.39767" lon="0.79582">
        <ele>212.14444</ele>
        <time>2014-11-04T10:57:32Z</time>
      </trkpt>
      <trkpt lat="45.39768" lon="0.79582">
        <ele>212.129303</ele>
        <time>2014-11-04T10:57:33Z</time>
      </trkpt>
      <trkpt lat="45.39768" lon="0.79582">
        <ele>212.112656</ele>
        <time>2014-11-04T10:57:34Z</time>
      </trkpt>
      <trkpt lat="45.39768" lon="0.79582">
        <ele>212.095474</ele>
        <time>2014-11-04T10:57:35Z</time>
      </trkpt>
      <trkpt lat="45.39769" lon="0.79582">
        <ele>212.072067</ele>
        <time>2014-11-04T10:57:36Z</time>
      </trkpt>
      <trkpt lat="45.39769" lon="0.79582">
        <ele>212.04483</ele>
        <time>2014-11-04T10:57:37Z</time>
      </trkpt>
      <trkpt lat="45.3977" lon="0.79582">
        <ele>212.020416</ele>
        <time>2014-11-04T10:57:38Z</time>
      </trkpt>
      <trkpt lat="45.3977" lon="0.79582">
        <ele>211.981827</ele>
        <time>2014-11-04T10:57:39Z</time>
      </trkpt>
      <trkpt lat="45.39771" lon="0.79581">
        <ele>211.937607</ele>
        <time>2014-11-04T10:57:40Z</time>
      </trkpt>
      <trkpt lat="45.39772" lon="0.79581">
        <ele>211.900864</ele>
        <time>2014-11-04T10:57:41Z</time>
      </trkpt>
      <trkpt lat="45.39772" lon="0.7958">
        <ele>211.858673</ele>
        <time>2014-11-04T10:57:42Z</time>
      </trkpt>
      <trkpt lat="45.39773" lon="0.7958">
        <ele>211.790451</ele>
        <time>2014-11-04T10:57:43Z</time>
      </trkpt>
      <trkpt lat="45.39773" lon="0.79579">
        <ele>211.724884</ele>
        <time>2014-11-04T10:57:44Z</time>
      </trkpt>
      <trkpt lat="45.39774" lon="0.79577">
        <ele>211.623642</ele>
        <time>2014-11-04T10:57:45Z</time>
      </trkpt>
      <trkpt lat="45.39774" lon="0.79575">
        <ele>211.556976</ele>
        <time>2014-11-04T10:57:46Z</time>
      </trkpt>
      <trkpt lat="45.39773" lon="0.79574">
        <ele>211.563019</ele>
        <time>2014-11-04T10:57:47Z</time>
      </trkpt>
      <trkpt lat="45.39771" lon="0.79572">
        <ele>211.586411</ele>
        <time>2014-11-04T10:57:48Z</time>
      </trkpt>
      <trkpt lat="45.39769" lon="0.7957">
        <ele>211.639389</ele>
        <time>2014-11-04T10:57:49Z</time>
      </trkpt>
      <trkpt lat="45.39768" lon="0.7957">
        <ele>211.718811</ele>
        <time>2014-11-04T10:57:50Z</time>
      </trkpt>
      <trkpt lat="45.39766" lon="0.79569">
        <ele>211.772995</ele>
        <time>2014-11-04T10:57:51Z</time>
      </trkpt>
      <trkpt lat="45.39765" lon="0.79567">
        <ele>211.806808</ele>
        <time>2014-11-04T10:57:52Z</time>
      </trkpt>
      <trkpt lat="45.39763" lon="0.79564">
        <ele>211.819</ele>
        <time>2014-11-04T10:57:53Z</time>
      </trkpt>
      <trkpt lat="45.39761" lon="0.79559">
        <ele>211.828278</ele>
        <time>2014-11-04T10:57:54Z</time>
      </trkpt>
      <trkpt lat="45.39759" lon="0.79554">
        <ele>211.83284</ele>
        <time>2014-11-04T10:57:55Z</time>
      </trkpt>
      <trkpt lat="45.39757" lon="0.79548">
        <ele>211.8629</ele>
        <time>2014-11-04T10:57:56Z</time>
      </trkpt>
      <trkpt lat="45.39754" lon="0.79542">
        <ele>211.916367</ele>
        <time>2014-11-04T10:57:57Z</time>
      </trkpt>
      <trkpt lat="45.39753" lon="0.79537">
        <ele>211.963272</ele>
        <time>2014-11-04T10:57:58Z</time>
      </trkpt>
      <trkpt lat="45.39751" lon="0.79531">
        <ele>212.024689</ele>
        <time>2014-11-04T10:57:59Z</time>
      </trkpt>
      <trkpt lat="45.39749" lon="0.79524">
        <ele>212.039658</ele>
        <time>2014-11-04T10:58:00Z</time>
      </trkpt>
      <trkpt lat="45.39746" lon="0.79517">
        <ele>211.801697</ele>
        <time>2014-11-04T10:58:01Z</time>
      </trkpt>
      <trkpt lat="45.39744" lon="0.79511">
        <ele>211.541214</ele>
        <time>2014-11-04T10:58:02Z</time>
      </trkpt>
      <trkpt lat="45.3974" lon="0.79503">
        <ele>211.302536</ele>
        <time>2014-11-04T10:58:03Z</time>
      </trkpt>
      <trkpt lat="45.39736" lon="0.79496">
        <ele>211.140198</ele>
        <time>2014-11-04T10:58:04Z</time>
      </trkpt>
      <trkpt lat="45.39731" lon="0.79488">
        <ele>211.045074</ele>
        <time>2014-11-04T10:58:05Z</time>
      </trkpt>
      <trkpt lat="45.39726" lon="0.79481">
        <ele>211.034393</ele>
        <time>2014-11-04T10:58:06Z</time>
      </trkpt>
      <trkpt lat="45.39721" lon="0.79473">
        <ele>211.121475</ele>
        <time>2014-11-04T10:58:07Z</time>
      </trkpt>
      <trkpt lat="45.39716" lon="0.79466">
        <ele>211.293961</ele>
        <time>2014-11-04T10:58:08Z</time>
      </trkpt>
      <trkpt lat="45.39711" lon="0.79459">
        <ele>211.544724</ele>
        <time>2014-11-04T10:58:09Z</time>
      </trkpt>
      <trkpt lat="45.39705" lon="0.79452">
        <ele>211.777344</ele>
        <time>2014-11-04T10:58:10Z</time>
      </trkpt>
      <trkpt lat="45.397" lon="0.79445">
        <ele>211.778168</ele>
        <time>2014-11-04T10:58:11Z</time>
      </trkpt>
      <trkpt lat="45.39694" lon="0.79438">
        <ele>211.667786</ele>
        <time>2014-11-04T10:58:12Z</time>
      </trkpt>
      <trkpt lat="45.39688" lon="0.79431">
        <ele>211.542892</ele>
        <time>2014-11-04T10:58:13Z</time>
      </trkpt>
      <trkpt lat="45.39683" lon="0.79423">
        <ele>211.418839</ele>
        <time>2014-11-04T10:58:14Z</time>
      </trkpt>
      <trkpt lat="45.39679" lon="0.79415">
        <ele>211.299179</ele>
        <time>2014-11-04T10:58:15Z</time>
      </trkpt>
      <trkpt lat="45.39676" lon="0.79406">
        <ele>211.151962</ele>
        <time>2014-11-04T10:58:16Z</time>
      </trkpt>
      <trkpt lat="45.39673" lon="0.79397">
        <ele>211.009995</ele>
        <time>2014-11-04T10:58:17Z</time>
      </trkpt>
      <trkpt lat="45.39672" lon="0.79388">
        <ele>211</ele>
        <time>2014-11-04T10:58:18Z</time>
      </trkpt>
      <trkpt lat="45.39671" lon="0.79381">
        <ele>211</ele>
        <time>2014-11-04T10:58:19Z</time>
      </trkpt>
      <trkpt lat="45.3967" lon="0.79374">
        <ele>211</ele>
        <time>2014-11-04T10:58:20Z</time>
      </trkpt>
      <trkpt lat="45.39669" lon="0.79367">
        <ele>211</ele>
        <time>2014-11-04T10:58:21Z</time>
      </trkpt>
      <trkpt lat="45.39669" lon="0.7936">
        <ele>211</ele>
        <time>2014-11-04T10:58:22Z</time>
      </trkpt>
      <trkpt lat="45.39669" lon="0.79353">
        <ele>211</ele>
        <time>2014-11-04T10:58:23Z</time>
      </trkpt>
      <trkpt lat="45.39669" lon="0.79347">
        <ele>211</ele>
        <time>2014-11-04T10:58:24Z</time>
      </trkpt>
      <trkpt lat="45.39669" lon="0.79345">
        <ele>211</ele>
        <time>2014-11-04T10:58:25Z</time>
      </trkpt>
      <trkpt lat="45.39669" lon="0.79345">
        <ele>211</ele>
        <time>2014-11-04T10:58:26Z</time>
      </trkpt>
      <trkpt lat="45.39669" lon="0.79345">
        <ele>211</ele>
        <time>2014-11-04T10:58:27Z</time>
      </trkpt>
      <trkpt lat="45.39669" lon="0.79345">
        <ele>211</ele>
        <time>2014-11-04T10:58:28Z</time>
      </trkpt>
      <trkpt lat="45.39669" lon="0.79345">
        <ele>211</ele>
        <time>2014-11-04T10:58:29Z</time>
      </trkpt>
      <trkpt lat="45.39669" lon="0.79345">
        <ele>211</ele>
        <time>2014-11-04T10:58:30Z</time>
      </trkpt>
      <trkpt lat="45.39669" lon="0.79345">
        <ele>211</ele>
        <time>2014-11-04T10:58:31Z</time>
      </trkpt>
      <trkpt lat="45.39669" lon="0.79345">
        <ele>211</ele>
        <time>2014-11-04T10:58:32Z</time>
      </trkpt>
      <trkpt lat="45.39669" lon="0.79345">
        <ele>211</ele>
        <time>2014-11-04T10:58:33Z</time>
      </trkpt>
      <trkpt lat="45.39669" lon="0.79345">
        <ele>211</ele>
        <time>2014-11-04T10:58:34Z</time>
      </trkpt>
      <trkpt lat="45.39669" lon="0.79345">
        <ele>211</ele>
        <time>2014-11-04T10:58:35Z</time>
      </trkpt>
      <trkpt lat="45.39669" lon="0.79345">
        <ele>211</ele>
        <time>2014-11-04T10:58:36Z</time>
      </trkpt>
      <trkpt lat="45.39669" lon="0.79345">
        <ele>211</ele>
        <time>2014-11-04T10:58:37Z</time>
      </trkpt>
      <trkpt lat="45.39669" lon="0.79345">
        <ele>211</ele>
        <time>2014-11-04T10:58:38Z</time>
      </trkpt>
      <trkpt lat="45.39669" lon="0.79345">
        <ele>211</ele>
        <time>2014-11-04T10:58:39Z</time>
      </trkpt>
      <trkpt lat="45.39669" lon="0.79345">
        <ele>211</ele>
        <time>2014-11-04T10:58:40Z</time>
      </trkpt>
      <trkpt lat="45.39669" lon="0.79345">
        <ele>211</ele>
        <time>2014-11-04T10:58:41Z</time>
      </trkpt>
      <trkpt lat="45.39669" lon="0.79345">
        <ele>211</ele>
        <time>2014-11-04T10:58:42Z</time>
      </trkpt>
      <trkpt lat="45.39669" lon="0.79345">
        <ele>211</ele>
        <time>2014-11-04T10:58:43Z</time>
      </trkpt>
      <trkpt lat="45.39669" lon="0.79345">
        <ele>211</ele>
        <time>2014-11-04T10:58:44Z</time>
      </trkpt>
      <trkpt lat="45.39669" lon="0.79345">
        <ele>211</ele>
        <time>2014-11-04T10:58:45Z</time>
      </trkpt>
      <trkpt lat="45.39669" lon="0.79345">
        <ele>211</ele>
        <time>2014-11-04T10:58:46Z</time>
      </trkpt>
      <trkpt lat="45.39669" lon="0.79345">
        <ele>211</ele>
        <time>2014-11-04T10:58:47Z</time>
      </trkpt>
      <trkpt lat="45.39669" lon="0.79345">
        <ele>211</ele>
        <time>2014-11-04T10:58:48Z</time>
      </trkpt>
      <trkpt lat="45.39669" lon="0.79345">
        <ele>211</ele>
        <time>2014-11-04T10:58:49Z</time>
      </trkpt>
      <trkpt lat="45.39669" lon="0.79345">
        <ele>211</ele>
        <time>2014-11-04T10:58:50Z</time>
      </trkpt>
      <trkpt lat="45.39669" lon="0.79345">
        <ele>211</ele>
        <time>2014-11-04T10:58:51Z</time>
      </trkpt>
      <trkpt lat="45.39669" lon="0.79345">
        <ele>211</ele>
        <time>2014-11-04T10:58:52Z</time>
      </trkpt>
      <trkpt lat="45.39672" lon="0.79334">
        <ele>211</ele>
        <time>2014-11-04T10:58:53Z</time>
      </trkpt>
      <trkpt lat="45.39673" lon="0.79332">
        <ele>211.00499</ele>
        <time>2014-11-04T10:58:54Z</time>
      </trkpt>
      <trkpt lat="45.39673" lon="0.79328">
        <ele>211.02681</ele>
        <time>2014-11-04T10:58:55Z</time>
      </trkpt>
      <trkpt lat="45.39673" lon="0.79322">
        <ele>211.054672</ele>
        <time>2014-11-04T10:58:56Z</time>
      </trkpt>
      <trkpt lat="45.39673" lon="0.79317">
        <ele>211.084564</ele>
        <time>2014-11-04T10:58:57Z</time>
      </trkpt>
      <trkpt lat="45.39673" lon="0.79311">
        <ele>211.123245</ele>
        <time>2014-11-04T10:58:58Z</time>
      </trkpt>
      <trkpt lat="45.39673" lon="0.79304">
        <ele>211.166183</ele>
        <time>2014-11-04T10:58:59Z</time>
      </trkpt>
      <trkpt lat="45.39674" lon="0.79295">
        <ele>211.218994</ele>
        <time>2014-11-04T10:59:00Z</time>
      </trkpt>
      <trkpt lat="45.39674" lon="0.79287">
        <ele>211.280106</ele>
        <time>2014-11-04T10:59:01Z</time>
      </trkpt>
      <trkpt lat="45.39674" lon="0.79277">
        <ele>211.351578</ele>
        <time>2014-11-04T10:59:02Z</time>
      </trkpt>
      <trkpt lat="45.39675" lon="0.79266">
        <ele>211.416779</ele>
        <time>2014-11-04T10:59:03Z</time>
      </trkpt>
      <trkpt lat="45.39675" lon="0.79256">
        <ele>211.432144</ele>
        <time>2014-11-04T10:59:04Z</time>
      </trkpt>
      <trkpt lat="45.39676" lon="0.79245">
        <ele>211.448746</ele>
        <time>2014-11-04T10:59:05Z</time>
      </trkpt>
      <trkpt lat="45.39677" lon="0.79234">
        <ele>211.46257</ele>
        <time>2014-11-04T10:59:06Z</time>
      </trkpt>
      <trkpt lat="45.39677" lon="0.79224">
        <ele>211.475601</ele>
        <time>2014-11-04T10:59:07Z</time>
      </trkpt>
      <trkpt lat="45.39677" lon="0.79213">
        <ele>211.487976</ele>
        <time>2014-11-04T10:59:08Z</time>
      </trkpt>
      <trkpt lat="45.39678" lon="0.79203">
        <ele>211.500198</ele>
        <time>2014-11-04T10:59:09Z</time>
      </trkpt>
      <trkpt lat="45.39678" lon="0.79193">
        <ele>211.507706</ele>
        <time>2014-11-04T10:59:10Z</time>
      </trkpt>
      <trkpt lat="45.39679" lon="0.79183">
        <ele>211.50795</ele>
        <time>2014-11-04T10:59:11Z</time>
      </trkpt>
      <trkpt lat="45.39679" lon="0.79173">
        <ele>211.501007</ele>
        <time>2014-11-04T10:59:12Z</time>
      </trkpt>
      <trkpt lat="45.39679" lon="0.79164">
        <ele>211.487442</ele>
        <time>2014-11-04T10:59:13Z</time>
      </trkpt>
      <trkpt lat="45.3968" lon="0.79156">
        <ele>211.469421</ele>
        <time>2014-11-04T10:59:14Z</time>
      </trkpt>
      <trkpt lat="45.3968" lon="0.79149">
        <ele>211.450836</ele>
        <time>2014-11-04T10:59:15Z</time>
      </trkpt>
      <trkpt lat="45.3968" lon="0.79143">
        <ele>211.433365</ele>
        <time>2014-11-04T10:59:16Z</time>
      </trkpt>
      <trkpt lat="45.3968" lon="0.79138">
        <ele>211.423996</ele>
        <time>2014-11-04T10:59:17Z</time>
      </trkpt>
      <trkpt lat="45.3968" lon="0.79131">
        <ele>211.420303</ele>
        <time>2014-11-04T10:59:18Z</time>
      </trkpt>
      <trkpt lat="45.3968" lon="0.79125">
        <ele>211.417847</ele>
        <time>2014-11-04T10:59:19Z</time>
      </trkpt>
      <trkpt lat="45.39681" lon="0.79119">
        <ele>211.411774</ele>
        <time>2014-11-04T10:59:20Z</time>
      </trkpt>
      <trkpt lat="45.39681" lon="0.79112">
        <ele>211.405151</ele>
        <time>2014-11-04T10:59:21Z</time>
      </trkpt>
      <trkpt lat="45.39681" lon="0.79104">
        <ele>211.403122</ele>
        <time>2014-11-04T10:59:22Z</time>
      </trkpt>
      <trkpt lat="45.39681" lon="0.79096">
        <ele>211.402618</ele>
        <time>2014-11-04T10:59:23Z</time>
      </trkpt>
      <trkpt lat="45.3968" lon="0.79088">
        <ele>211.404007</ele>
        <time>2014-11-04T10:59:24Z</time>
      </trkpt>
      <trkpt lat="45.3968" lon="0.79079">
        <ele>211.411987</ele>
        <time>2014-11-04T10:59:25Z</time>
      </trkpt>
      <trkpt lat="45.39679" lon="0.79069">
        <ele>211.363449</ele>
        <time>2014-11-04T10:59:26Z</time>
      </trkpt>
      <trkpt lat="45.39678" lon="0.79061">
        <ele>211.320877</ele>
        <time>2014-11-04T10:59:27Z</time>
      </trkpt>
      <trkpt lat="45.39676" lon="0.79052">
        <ele>211.295288</ele>
        <time>2014-11-04T10:59:28Z</time>
      </trkpt>
      <trkpt lat="45.39674" lon="0.79043">
        <ele>211.294952</ele>
        <time>2014-11-04T10:59:29Z</time>
      </trkpt>
      <trkpt lat="45.39672" lon="0.79033">
        <ele>211.296371</ele>
        <time>2014-11-04T10:59:30Z</time>
      </trkpt>
      <trkpt lat="45.39669" lon="0.79024">
        <ele>211.321228</ele>
        <time>2014-11-04T10:59:31Z</time>
      </trkpt>
      <trkpt lat="45.39667" lon="0.79015">
        <ele>211.357727</ele>
        <time>2014-11-04T10:59:32Z</time>
      </trkpt>
      <trkpt lat="45.39665" lon="0.79007">
        <ele>211.399368</ele>
        <time>2014-11-04T10:59:33Z</time>
      </trkpt>
      <trkpt lat="45.39664" lon="0.79">
        <ele>211.44281</ele>
        <time>2014-11-04T10:59:34Z</time>
      </trkpt>
      <trkpt lat="45.39662" lon="0.78993">
        <ele>211.488831</ele>
        <time>2014-11-04T10:59:35Z</time>
      </trkpt>
      <trkpt lat="45.39661" lon="0.78987">
        <ele>211.530243</ele>
        <time>2014-11-04T10:59:36Z</time>
      </trkpt>
      <trkpt lat="45.3966" lon="0.78982">
        <ele>211.577637</ele>
        <time>2014-11-04T10:59:37Z</time>
      </trkpt>
      <trkpt lat="45.39658" lon="0.7898">
        <ele>211.648911</ele>
        <time>2014-11-04T10:59:38Z</time>
      </trkpt>
      <trkpt lat="45.39656" lon="0.78977">
        <ele>211.785828</ele>
        <time>2014-11-04T10:59:39Z</time>
      </trkpt>
      <trkpt lat="45.39655" lon="0.78977">
        <ele>211.837555</ele>
        <time>2014-11-04T10:59:40Z</time>
      </trkpt>
      <trkpt lat="45.39655" lon="0.78977">
        <ele>211.837555</ele>
        <time>2014-11-04T10:59:41Z</time>
      </trkpt>
      <trkpt lat="45.39655" lon="0.78977">
        <ele>211.837555</ele>
        <time>2014-11-04T10:59:42Z</time>
      </trkpt>
      <trkpt lat="45.39655" lon="0.78977">
        <ele>211.837555</ele>
        <time>2014-11-04T10:59:43Z</time>
      </trkpt>
      <trkpt lat="45.39655" lon="0.78977">
        <ele>211.837555</ele>
        <time>2014-11-04T10:59:44Z</time>
      </trkpt>
      <trkpt lat="45.39655" lon="0.78977">
        <ele>211.837555</ele>
        <time>2014-11-04T10:59:45Z</time>
      </trkpt>
      <trkpt lat="45.39655" lon="0.78977">
        <ele>211.837555</ele>
        <time>2014-11-04T10:59:46Z</time>
      </trkpt>
      <trkpt lat="45.39655" lon="0.78977">
        <ele>211.837555</ele>
        <time>2014-11-04T10:59:47Z</time>
      </trkpt>
      <trkpt lat="45.39655" lon="0.78977">
        <ele>211.837555</ele>
        <time>2014-11-04T10:59:48Z</time>
      </trkpt>
      <trkpt lat="45.39655" lon="0.78977">
        <ele>211.837555</ele>
        <time>2014-11-04T10:59:49Z</time>
      </trkpt>
      <trkpt lat="45.39655" lon="0.78977">
        <ele>211.837555</ele>
        <time>2014-11-04T10:59:50Z</time>
      </trkpt>
      <trkpt lat="45.39655" lon="0.78977">
        <ele>211.837555</ele>
        <time>2014-11-04T10:59:51Z</time>
      </trkpt>
      <trkpt lat="45.39655" lon="0.78977">
        <ele>211.837555</ele>
        <time>2014-11-04T10:59:52Z</time>
      </trkpt>
      <trkpt lat="45.39655" lon="0.78977">
        <ele>211.837555</ele>
        <time>2014-11-04T10:59:53Z</time>
      </trkpt>
      <trkpt lat="45.39655" lon="0.78977">
        <ele>211.837555</ele>
        <time>2014-11-04T10:59:54Z</time>
      </trkpt>
      <trkpt lat="45.39655" lon="0.78977">
        <ele>211.837555</ele>
        <time>2014-11-04T10:59:55Z</time>
      </trkpt>
      <trkpt lat="45.39655" lon="0.78977">
        <ele>211.837555</ele>
        <time>2014-11-04T10:59:56Z</time>
      </trkpt>
      <trkpt lat="45.39652" lon="0.7898">
        <ele>212</ele>
        <time>2014-11-04T10:59:57Z</time>
      </trkpt>
      <trkpt lat="45.39649" lon="0.78982">
        <ele>212</ele>
        <time>2014-11-04T10:59:58Z</time>
      </trkpt>
      <trkpt lat="45.39645" lon="0.78984">
        <ele>212</ele>
        <time>2014-11-04T10:59:59Z</time>
      </trkpt>
      <trkpt lat="45.39642" lon="0.78986">
        <ele>212</ele>
        <time>2014-11-04T11:00:00Z</time>
      </trkpt>
      <trkpt lat="45.39638" lon="0.78988">
        <ele>212</ele>
        <time>2014-11-04T11:00:01Z</time>
      </trkpt>
      <trkpt lat="45.39635" lon="0.7899">
        <ele>212</ele>
        <time>2014-11-04T11:00:02Z</time>
      </trkpt>
      <trkpt lat="45.3963" lon="0.78992">
        <ele>212</ele>
        <time>2014-11-04T11:00:03Z</time>
      </trkpt>
      <trkpt lat="45.39625" lon="0.78994">
        <ele>212</ele>
        <time>2014-11-04T11:00:04Z</time>
      </trkpt>
      <trkpt lat="45.3962" lon="0.78996">
        <ele>212</ele>
        <time>2014-11-04T11:00:05Z</time>
      </trkpt>
      <trkpt lat="45.39615" lon="0.78997">
        <ele>212</ele>
        <time>2014-11-04T11:00:06Z</time>
      </trkpt>
      <trkpt lat="45.3961" lon="0.78999">
        <ele>212</ele>
        <time>2014-11-04T11:00:07Z</time>
      </trkpt>
      <trkpt lat="45.39605" lon="0.79">
        <ele>211.849396</ele>
        <time>2014-11-04T11:00:08Z</time>
      </trkpt>
      <trkpt lat="45.39601" lon="0.79002">
        <ele>211.62674</ele>
        <time>2014-11-04T11:00:09Z</time>
      </trkpt>
      <trkpt lat="45.39596" lon="0.79003">
        <ele>211.380615</ele>
        <time>2014-11-04T11:00:10Z</time>
      </trkpt>
      <trkpt lat="45.39591" lon="0.79005">
        <ele>211.139175</ele>
        <time>2014-11-04T11:00:11Z</time>
      </trkpt>
      <trkpt lat="45.39587" lon="0.79006">
        <ele>210.946213</ele>
        <time>2014-11-04T11:00:12Z</time>
      </trkpt>
      <trkpt lat="45.39585" lon="0.79006">
        <ele>210.821381</ele>
        <time>2014-11-04T11:00:13Z</time>
      </trkpt>
      <trkpt lat="45.39583" lon="0.79006">
        <ele>210.743607</ele>
        <time>2014-11-04T11:00:14Z</time>
      </trkpt>
      <trkpt lat="45.39582" lon="0.79006">
        <ele>210.700851</ele>
        <time>2014-11-04T11:00:15Z</time>
      </trkpt>
      <trkpt lat="45.39582" lon="0.79006">
        <ele>210.700851</ele>
        <time>2014-11-04T11:00:16Z</time>
      </trkpt>
      <trkpt lat="45.39582" lon="0.79006">
        <ele>210.700851</ele>
        <time>2014-11-04T11:00:17Z</time>
      </trkpt>
      <trkpt lat="45.39582" lon="0.79006">
        <ele>210.700851</ele>
        <time>2014-11-04T11:00:18Z</time>
      </trkpt>
      <trkpt lat="45.39582" lon="0.79006">
        <ele>210.700851</ele>
        <time>2014-11-04T11:00:19Z</time>
      </trkpt>
      <trkpt lat="45.39579" lon="0.79007">
        <ele>210.554825</ele>
        <time>2014-11-04T11:00:20Z</time>
      </trkpt>
      <trkpt lat="45.39578" lon="0.79008">
        <ele>210.502792</ele>
        <time>2014-11-04T11:00:21Z</time>
      </trkpt>
      <trkpt lat="45.39575" lon="0.79009">
        <ele>210.397034</ele>
        <time>2014-11-04T11:00:22Z</time>
      </trkpt>
      <trkpt lat="45.39572" lon="0.7901">
        <ele>210.265884</ele>
        <time>2014-11-04T11:00:23Z</time>
      </trkpt>
      <trkpt lat="45.39568" lon="0.79012">
        <ele>210.137589</ele>
        <time>2014-11-04T11:00:24Z</time>
      </trkpt>
      <trkpt lat="45.39565" lon="0.79013">
        <ele>210.013016</ele>
        <time>2014-11-04T11:00:25Z</time>
      </trkpt>
      <trkpt lat="45.39561" lon="0.79014">
        <ele>209.798553</ele>
        <time>2014-11-04T11:00:26Z</time>
      </trkpt>
      <trkpt lat="45.39558" lon="0.79016">
        <ele>209.435684</ele>
        <time>2014-11-04T11:00:27Z</time>
      </trkpt>
      <trkpt lat="45.39554" lon="0.79017">
        <ele>209.007477</ele>
        <time>2014-11-04T11:00:28Z</time>
      </trkpt>
      <trkpt lat="45.3955" lon="0.79019">
        <ele>208.540482</ele>
        <time>2014-11-04T11:00:29Z</time>
      </trkpt>
      <trkpt lat="45.39546" lon="0.7902">
        <ele>208.023636</ele>
        <time>2014-11-04T11:00:30Z</time>
      </trkpt>
      <trkpt lat="45.39543" lon="0.79022">
        <ele>207.546051</ele>
        <time>2014-11-04T11:00:31Z</time>
      </trkpt>
      <trkpt lat="45.3954" lon="0.79024">
        <ele>207.126572</ele>
        <time>2014-11-04T11:00:32Z</time>
      </trkpt>
      <trkpt lat="45.39536" lon="0.79026">
        <ele>206.661621</ele>
        <time>2014-11-04T11:00:33Z</time>
      </trkpt>
      <trkpt lat="45.39533" lon="0.79028">
        <ele>206.274704</ele>
        <time>2014-11-04T11:00:34Z</time>
      </trkpt>
      <trkpt lat="45.39531" lon="0.79028">
        <ele>206.079559</ele>
        <time>2014-11-04T11:00:35Z</time>
      </trkpt>
      <trkpt lat="45.39531" lon="0.79028">
        <ele>206.079559</ele>
        <time>2014-11-04T11:00:36Z</time>
      </trkpt>
      <trkpt lat="45.39531" lon="0.79028">
        <ele>206.079559</ele>
        <time>2014-11-04T11:00:37Z</time>
      </trkpt>
      <trkpt lat="45.39531" lon="0.79028">
        <ele>206.079559</ele>
        <time>2014-11-04T11:00:38Z</time>
      </trkpt>
      <trkpt lat="45.39531" lon="0.79028">
        <ele>206.079559</ele>
        <time>2014-11-04T11:00:39Z</time>
      </trkpt>
      <trkpt lat="45.39531" lon="0.79028">
        <ele>206.079559</ele>
        <time>2014-11-04T11:00:40Z</time>
      </trkpt>
      <trkpt lat="45.39531" lon="0.79028">
        <ele>206.079559</ele>
        <time>2014-11-04T11:00:41Z</time>
      </trkpt>
      <trkpt lat="45.39529" lon="0.79031">
        <ele>205.761002</ele>
        <time>2014-11-04T11:00:42Z</time>
      </trkpt>
      <trkpt lat="45.39526" lon="0.79033">
        <ele>205.302032</ele>
        <time>2014-11-04T11:00:43Z</time>
      </trkpt>
      <trkpt lat="45.39521" lon="0.79036">
        <ele>204.73819</ele>
        <time>2014-11-04T11:00:44Z</time>
      </trkpt>
      <trkpt lat="45.39516" lon="0.79039">
        <ele>204.227264</ele>
        <time>2014-11-04T11:00:45Z</time>
      </trkpt>
      <trkpt lat="45.39511" lon="0.79042">
        <ele>203.858841</ele>
        <time>2014-11-04T11:00:46Z</time>
      </trkpt>
      <trkpt lat="45.39506" lon="0.79044">
        <ele>203.490997</ele>
        <time>2014-11-04T11:00:47Z</time>
      </trkpt>
      <trkpt lat="45.39501" lon="0.79047">
        <ele>203.136826</ele>
        <time>2014-11-04T11:00:48Z</time>
      </trkpt>
      <trkpt lat="45.39497" lon="0.79051">
        <ele>202.798187</ele>
        <time>2014-11-04T11:00:49Z</time>
      </trkpt>
      <trkpt lat="45.39492" lon="0.79054">
        <ele>202.463715</ele>
        <time>2014-11-04T11:00:50Z</time>
      </trkpt>
      <trkpt lat="45.39487" lon="0.79057">
        <ele>202.112579</ele>
        <time>2014-11-04T11:00:51Z</time>
      </trkpt>
      <trkpt lat="45.39482" lon="0.79061">
        <ele>201.779526</ele>
        <time>2014-11-04T11:00:52Z</time>
      </trkpt>
      <trkpt lat="45.39476" lon="0.79064">
        <ele>201.44339</ele>
        <time>2014-11-04T11:00:53Z</time>
      </trkpt>
      <trkpt lat="45.3947" lon="0.79067">
        <ele>201.091736</ele>
        <time>2014-11-04T11:00:54Z</time>
      </trkpt>
      <trkpt lat="45.39464" lon="0.7907">
        <ele>200.751434</ele>
        <time>2014-11-04T11:00:55Z</time>
      </trkpt>
      <trkpt lat="45.39458" lon="0.79072">
        <ele>200.415939</ele>
        <time>2014-11-04T11:00:56Z</time>
      </trkpt>
      <trkpt lat="45.39451" lon="0.79075">
        <ele>200.086319</ele>
        <time>2014-11-04T11:00:57Z</time>
      </trkpt>
      <trkpt lat="45.39445" lon="0.79077">
        <ele>199.755508</ele>
        <time>2014-11-04T11:00:58Z</time>
      </trkpt>
      <trkpt lat="45.39438" lon="0.79079">
        <ele>199.44989</ele>
        <time>2014-11-04T11:00:59Z</time>
      </trkpt>
      <trkpt lat="45.39432" lon="0.79082">
        <ele>199.158768</ele>
        <time>2014-11-04T11:01:00Z</time>
      </trkpt>
      <trkpt lat="45.39426" lon="0.79084">
        <ele>198.819733</ele>
        <time>2014-11-04T11:01:01Z</time>
      </trkpt>
      <trkpt lat="45.3942" lon="0.79086">
        <ele>198.294357</ele>
        <time>2014-11-04T11:01:02Z</time>
      </trkpt>
      <trkpt lat="45.39414" lon="0.79089">
        <ele>197.784698</ele>
        <time>2014-11-04T11:01:03Z</time>
      </trkpt>
      <trkpt lat="45.39407" lon="0.79091">
        <ele>197.282288</ele>
        <time>2014-11-04T11:01:04Z</time>
      </trkpt>
      <trkpt lat="45.39401" lon="0.79093">
        <ele>196.795258</ele>
        <time>2014-11-04T11:01:05Z</time>
      </trkpt>
      <trkpt lat="45.39394" lon="0.79095">
        <ele>196.309982</ele>
        <time>2014-11-04T11:01:06Z</time>
      </trkpt>
      <trkpt lat="45.39388" lon="0.79098">
        <ele>195.828812</ele>
        <time>2014-11-04T11:01:07Z</time>
      </trkpt>
      <trkpt lat="45.39382" lon="0.79102">
        <ele>195.395844</ele>
        <time>2014-11-04T11:01:08Z</time>
      </trkpt>
      <trkpt lat="45.39376" lon="0.79106">
        <ele>195.038788</ele>
        <time>2014-11-04T11:01:09Z</time>
      </trkpt>
      <trkpt lat="45.3937" lon="0.79111">
        <ele>194.695847</ele>
        <time>2014-11-04T11:01:10Z</time>
      </trkpt>
      <trkpt lat="45.39364" lon="0.79116">
        <ele>194.375778</ele>
        <time>2014-11-04T11:01:11Z</time>
      </trkpt>
      <trkpt lat="45.39358" lon="0.7912">
        <ele>194.084457</ele>
        <time>2014-11-04T11:01:12Z</time>
      </trkpt>
      <trkpt lat="45.39353" lon="0.79125">
        <ele>193.812241</ele>
        <time>2014-11-04T11:01:13Z</time>
      </trkpt>
      <trkpt lat="45.39347" lon="0.79129">
        <ele>193.552582</ele>
        <time>2014-11-04T11:01:14Z</time>
      </trkpt>
      <trkpt lat="45.39341" lon="0.79133">
        <ele>193.313324</ele>
        <time>2014-11-04T11:01:15Z</time>
      </trkpt>
      <trkpt lat="45.39335" lon="0.79137">
        <ele>193.117767</ele>
        <time>2014-11-04T11:01:16Z</time>
      </trkpt>
      <trkpt lat="45.39329" lon="0.7914">
        <ele>192.933762</ele>
        <time>2014-11-04T11:01:17Z</time>
      </trkpt>
      <trkpt lat="45.39323" lon="0.79142">
        <ele>192.752167</ele>
        <time>2014-11-04T11:01:18Z</time>
      </trkpt>
      <trkpt lat="45.39316" lon="0.79145">
        <ele>192.573975</ele>
        <time>2014-11-04T11:01:19Z</time>
      </trkpt>
      <trkpt lat="45.39309" lon="0.79146">
        <ele>192.40062</ele>
        <time>2014-11-04T11:01:20Z</time>
      </trkpt>
      <trkpt lat="45.39302" lon="0.79147">
        <ele>192.235718</ele>
        <time>2014-11-04T11:01:21Z</time>
      </trkpt>
      <trkpt lat="45.39296" lon="0.79148">
        <ele>192.080551</ele>
        <time>2014-11-04T11:01:22Z</time>
      </trkpt>
      <trkpt lat="45.3929" lon="0.79148">
        <ele>191.751907</ele>
        <time>2014-11-04T11:01:23Z</time>
      </trkpt>
      <trkpt lat="45.39284" lon="0.79148">
        <ele>191.38533</ele>
        <time>2014-11-04T11:01:24Z</time>
      </trkpt>
      <trkpt lat="45.39278" lon="0.79148">
        <ele>191.020081</ele>
        <time>2014-11-04T11:01:25Z</time>
      </trkpt>
      <trkpt lat="45.39272" lon="0.79148">
        <ele>190.640244</ele>
        <time>2014-11-04T11:01:26Z</time>
      </trkpt>
      <trkpt lat="45.39266" lon="0.79151">
        <ele>190.176147</ele>
        <time>2014-11-04T11:01:27Z</time>
      </trkpt>
      <trkpt lat="45.39261" lon="0.79155">
        <ele>189.589066</ele>
        <time>2014-11-04T11:01:28Z</time>
      </trkpt>
      <trkpt lat="45.39256" lon="0.7916">
        <ele>188.811935</ele>
        <time>2014-11-04T11:01:29Z</time>
      </trkpt>
      <trkpt lat="45.39252" lon="0.79168">
        <ele>187.949631</ele>
        <time>2014-11-04T11:01:30Z</time>
      </trkpt>
      <trkpt lat="45.39248" lon="0.79176">
        <ele>187.106262</ele>
        <time>2014-11-04T11:01:31Z</time>
      </trkpt>
      <trkpt lat="45.39245" lon="0.79183">
        <ele>186.335388</ele>
        <time>2014-11-04T11:01:32Z</time>
      </trkpt>
      <trkpt lat="45.39242" lon="0.7919">
        <ele>185.597412</ele>
        <time>2014-11-04T11:01:33Z</time>
      </trkpt>
      <trkpt lat="45.39239" lon="0.79196">
        <ele>184.900284</ele>
        <time>2014-11-04T11:01:34Z</time>
      </trkpt>
      <trkpt lat="45.39233" lon="0.79203">
        <ele>184.08432</ele>
        <time>2014-11-04T11:01:35Z</time>
      </trkpt>
      <trkpt lat="45.39228" lon="0.79208">
        <ele>183.258331</ele>
        <time>2014-11-04T11:01:36Z</time>
      </trkpt>
      <trkpt lat="45.39222" lon="0.79212">
        <ele>182.605286</ele>
        <time>2014-11-04T11:01:37Z</time>
      </trkpt>
      <trkpt lat="45.39216" lon="0.79213">
        <ele>182.061813</ele>
        <time>2014-11-04T11:01:38Z</time>
      </trkpt>
      <trkpt lat="45.39211" lon="0.79214">
        <ele>181.635712</ele>
        <time>2014-11-04T11:01:39Z</time>
      </trkpt>
      <trkpt lat="45.39206" lon="0.79216">
        <ele>181.203094</ele>
        <time>2014-11-04T11:01:40Z</time>
      </trkpt>
      <trkpt lat="45.39202" lon="0.7922">
        <ele>180.940887</ele>
        <time>2014-11-04T11:01:41Z</time>
      </trkpt>
      <trkpt lat="45.39198" lon="0.79224">
        <ele>180.794174</ele>
        <time>2014-11-04T11:01:42Z</time>
      </trkpt>
      <trkpt lat="45.39195" lon="0.79227">
        <ele>180.644958</ele>
        <time>2014-11-04T11:01:43Z</time>
      </trkpt>
      <trkpt lat="45.39191" lon="0.79231">
        <ele>180.466339</ele>
        <time>2014-11-04T11:01:44Z</time>
      </trkpt>
      <trkpt lat="45.39187" lon="0.79236">
        <ele>180.206451</ele>
        <time>2014-11-04T11:01:45Z</time>
      </trkpt>
      <trkpt lat="45.39184" lon="0.79241">
        <ele>179.944107</ele>
        <time>2014-11-04T11:01:46Z</time>
      </trkpt>
      <trkpt lat="45.39181" lon="0.79247">
        <ele>179.620056</ele>
        <time>2014-11-04T11:01:47Z</time>
      </trkpt>
      <trkpt lat="45.39189" lon="0.7926">
        <ele>179.179077</ele>
        <time>2014-11-04T11:28:36Z</time>
      </trkpt>
      <trkpt lat="45.3919" lon="0.79262">
        <ele>179.133942</ele>
        <time>2014-11-04T11:28:37Z</time>
      </trkpt>
      <trkpt lat="45.39192" lon="0.79265">
        <ele>179.065384</ele>
        <time>2014-11-04T11:28:38Z</time>
      </trkpt>
      <trkpt lat="45.39195" lon="0.79269">
        <ele>178.99733</ele>
        <time>2014-11-04T11:28:39Z</time>
      </trkpt>
      <trkpt lat="45.39197" lon="0.79273">
        <ele>178.917313</ele>
        <time>2014-11-04T11:28:40Z</time>
      </trkpt>
      <trkpt lat="45.39198" lon="0.79277">
        <ele>178.819199</ele>
        <time>2014-11-04T11:28:41Z</time>
      </trkpt>
      <trkpt lat="45.39199" lon="0.79281">
        <ele>178.686768</ele>
        <time>2014-11-04T11:28:42Z</time>
      </trkpt>
      <trkpt lat="45.39199" lon="0.79285">
        <ele>178.813171</ele>
        <time>2014-11-04T11:28:43Z</time>
      </trkpt>
      <trkpt lat="45.39198" lon="0.79289">
        <ele>178.98938</ele>
        <time>2014-11-04T11:28:44Z</time>
      </trkpt>
      <trkpt lat="45.39196" lon="0.79293">
        <ele>179.112534</ele>
        <time>2014-11-04T11:28:45Z</time>
      </trkpt>
      <trkpt lat="45.39194" lon="0.79297">
        <ele>179.182251</ele>
        <time>2014-11-04T11:28:46Z</time>
      </trkpt>
      <trkpt lat="45.39192" lon="0.793">
        <ele>179.197144</ele>
        <time>2014-11-04T11:28:47Z</time>
      </trkpt>
      <trkpt lat="45.39189" lon="0.79304">
        <ele>179.198166</ele>
        <time>2014-11-04T11:28:48Z</time>
      </trkpt>
      <trkpt lat="45.39187" lon="0.79307">
        <ele>179.173676</ele>
        <time>2014-11-04T11:28:49Z</time>
      </trkpt>
      <trkpt lat="45.39185" lon="0.7931">
        <ele>179.148483</ele>
        <time>2014-11-04T11:28:50Z</time>
      </trkpt>
      <trkpt lat="45.39184" lon="0.79313">
        <ele>179.122482</ele>
        <time>2014-11-04T11:28:51Z</time>
      </trkpt>
      <trkpt lat="45.39182" lon="0.79315">
        <ele>179.081757</ele>
        <time>2014-11-04T11:28:52Z</time>
      </trkpt>
      <trkpt lat="45.3918" lon="0.79318">
        <ele>179.031433</ele>
        <time>2014-11-04T11:28:53Z</time>
      </trkpt>
      <trkpt lat="45.39178" lon="0.79321">
        <ele>178.992401</ele>
        <time>2014-11-04T11:28:54Z</time>
      </trkpt>
      <trkpt lat="45.39177" lon="0.79323">
        <ele>178.977127</ele>
        <time>2014-11-04T11:28:55Z</time>
      </trkpt>
      <trkpt lat="45.39177" lon="0.79324">
        <ele>178.962296</ele>
        <time>2014-11-04T11:28:56Z</time>
      </trkpt>
      <trkpt lat="45.39177" lon="0.79325">
        <ele>178.957108</ele>
        <time>2014-11-04T11:28:57Z</time>
      </trkpt>
      <trkpt lat="45.39176" lon="0.79327">
        <ele>178.930267</ele>
        <time>2014-11-04T11:28:58Z</time>
      </trkpt>
      <trkpt lat="45.39175" lon="0.79329">
        <ele>178.900848</ele>
        <time>2014-11-04T11:28:59Z</time>
      </trkpt>
      <trkpt lat="45.39174" lon="0.79331">
        <ele>178.856293</ele>
        <time>2014-11-04T11:29:00Z</time>
      </trkpt>
      <trkpt lat="45.39172" lon="0.79335">
        <ele>178.796661</ele>
        <time>2014-11-04T11:29:01Z</time>
      </trkpt>
      <trkpt lat="45.3917" lon="0.79339">
        <ele>178.705963</ele>
        <time>2014-11-04T11:29:02Z</time>
      </trkpt>
      <trkpt lat="45.39169" lon="0.79342">
        <ele>178.621567</ele>
        <time>2014-11-04T11:29:03Z</time>
      </trkpt>
      <trkpt lat="45.39168" lon="0.79345">
        <ele>178.537903</ele>
        <time>2014-11-04T11:29:04Z</time>
      </trkpt>
      <trkpt lat="45.39166" lon="0.79348">
        <ele>178.466782</ele>
        <time>2014-11-04T11:29:05Z</time>
      </trkpt>
      <trkpt lat="45.39165" lon="0.79351">
        <ele>178.467911</ele>
        <time>2014-11-04T11:29:06Z</time>
      </trkpt>
      <trkpt lat="45.39163" lon="0.79355">
        <ele>178.459671</ele>
        <time>2014-11-04T11:29:07Z</time>
      </trkpt>
      <trkpt lat="45.39161" lon="0.7936">
        <ele>178.49118</ele>
        <time>2014-11-04T11:29:08Z</time>
      </trkpt>
      <trkpt lat="45.39159" lon="0.79365">
        <ele>178.524887</ele>
        <time>2014-11-04T11:29:09Z</time>
      </trkpt>
      <trkpt lat="45.39157" lon="0.79368">
        <ele>178.513214</ele>
        <time>2014-11-04T11:29:10Z</time>
      </trkpt>
      <trkpt lat="45.39155" lon="0.79373">
        <ele>178.528076</ele>
        <time>2014-11-04T11:29:11Z</time>
      </trkpt>
      <trkpt lat="45.39153" lon="0.79378">
        <ele>178.526642</ele>
        <time>2014-11-04T11:29:12Z</time>
      </trkpt>
      <trkpt lat="45.39151" lon="0.79383">
        <ele>178.514435</ele>
        <time>2014-11-04T11:29:13Z</time>
      </trkpt>
      <trkpt lat="45.39149" lon="0.79388">
        <ele>178.49086</ele>
        <time>2014-11-04T11:29:14Z</time>
      </trkpt>
      <trkpt lat="45.39147" lon="0.79392">
        <ele>178.465805</ele>
        <time>2014-11-04T11:29:15Z</time>
      </trkpt>
      <trkpt lat="45.39146" lon="0.79396">
        <ele>178.509506</ele>
        <time>2014-11-04T11:29:16Z</time>
      </trkpt>
      <trkpt lat="45.39145" lon="0.794">
        <ele>178.476639</ele>
        <time>2014-11-04T11:29:17Z</time>
      </trkpt>
      <trkpt lat="45.39143" lon="0.79403">
        <ele>178.466736</ele>
        <time>2014-11-04T11:29:18Z</time>
      </trkpt>
      <trkpt lat="45.39142" lon="0.79407">
        <ele>178.425812</ele>
        <time>2014-11-04T11:29:19Z</time>
      </trkpt>
      <trkpt lat="45.39139" lon="0.7941">
        <ele>178.31868</ele>
        <time>2014-11-04T11:29:20Z</time>
      </trkpt>
      <trkpt lat="45.39137" lon="0.79412">
        <ele>178.090424</ele>
        <time>2014-11-04T11:29:21Z</time>
      </trkpt>
      <trkpt lat="45.39132" lon="0.79414">
        <ele>177.652344</ele>
        <time>2014-11-04T11:29:22Z</time>
      </trkpt>
      <trkpt lat="45.39127" lon="0.79415">
        <ele>177.162811</ele>
        <time>2014-11-04T11:29:23Z</time>
      </trkpt>
      <trkpt lat="45.39123" lon="0.79417">
        <ele>176.748047</ele>
        <time>2014-11-04T11:29:24Z</time>
      </trkpt>
      <trkpt lat="45.39119" lon="0.79418">
        <ele>176.395355</ele>
        <time>2014-11-04T11:29:25Z</time>
      </trkpt>
      <trkpt lat="45.39116" lon="0.79419">
        <ele>176.36467</ele>
        <time>2014-11-04T11:29:26Z</time>
      </trkpt>
      <trkpt lat="45.39114" lon="0.7942">
        <ele>176.402634</ele>
        <time>2014-11-04T11:29:27Z</time>
      </trkpt>
      <trkpt lat="45.3911" lon="0.79422">
        <ele>176.497559</ele>
        <time>2014-11-04T11:29:28Z</time>
      </trkpt>
      <trkpt lat="45.39108" lon="0.79424">
        <ele>176.591492</ele>
        <time>2014-11-04T11:29:29Z</time>
      </trkpt>
      <trkpt lat="45.39105" lon="0.79427">
        <ele>176.743683</ele>
        <time>2014-11-04T11:29:30Z</time>
      </trkpt>
      <trkpt lat="45.39102" lon="0.7943">
        <ele>176.953262</ele>
        <time>2014-11-04T11:29:31Z</time>
      </trkpt>
      <trkpt lat="45.39101" lon="0.79433">
        <ele>177.104172</ele>
        <time>2014-11-04T11:29:32Z</time>
      </trkpt>
      <trkpt lat="45.391" lon="0.79436">
        <ele>177.29216</ele>
        <time>2014-11-04T11:29:33Z</time>
      </trkpt>
      <trkpt lat="45.39099" lon="0.79439">
        <ele>177.434433</ele>
        <time>2014-11-04T11:29:34Z</time>
      </trkpt>
      <trkpt lat="45.39097" lon="0.79442">
        <ele>177.624069</ele>
        <time>2014-11-04T11:29:35Z</time>
      </trkpt>
      <trkpt lat="45.39095" lon="0.79445">
        <ele>177.82135</ele>
        <time>2014-11-04T11:29:36Z</time>
      </trkpt>
      <trkpt lat="45.39092" lon="0.79448">
        <ele>178.010361</ele>
        <time>2014-11-04T11:29:37Z</time>
      </trkpt>
      <trkpt lat="45.39089" lon="0.79451">
        <ele>178.179367</ele>
        <time>2014-11-04T11:29:38Z</time>
      </trkpt>
      <trkpt lat="45.39087" lon="0.79452">
        <ele>178.301758</ele>
        <time>2014-11-04T11:29:39Z</time>
      </trkpt>
      <trkpt lat="45.39084" lon="0.79454">
        <ele>178.447937</ele>
        <time>2014-11-04T11:29:40Z</time>
      </trkpt>
      <trkpt lat="45.39079" lon="0.79457">
        <ele>178.709595</ele>
        <time>2014-11-04T11:29:41Z</time>
      </trkpt>
      <trkpt lat="45.39075" lon="0.79461">
        <ele>179.003555</ele>
        <time>2014-11-04T11:29:42Z</time>
      </trkpt>
      <trkpt lat="45.39071" lon="0.79465">
        <ele>179.219315</ele>
        <time>2014-11-04T11:29:43Z</time>
      </trkpt>
      <trkpt lat="45.39068" lon="0.79468">
        <ele>179.360229</ele>
        <time>2014-11-04T11:29:44Z</time>
      </trkpt>
      <trkpt lat="45.39065" lon="0.79472">
        <ele>179.517151</ele>
        <time>2014-11-04T11:29:45Z</time>
      </trkpt>
      <trkpt lat="45.39062" lon="0.79476">
        <ele>179.681915</ele>
        <time>2014-11-04T11:29:46Z</time>
      </trkpt>
      <trkpt lat="45.39059" lon="0.79481">
        <ele>179.969559</ele>
        <time>2014-11-04T11:29:47Z</time>
      </trkpt>
      <trkpt lat="45.39056" lon="0.79485">
        <ele>180.27449</ele>
        <time>2014-11-04T11:29:48Z</time>
      </trkpt>
      <trkpt lat="45.39054" lon="0.7949">
        <ele>180.655182</ele>
        <time>2014-11-04T11:29:49Z</time>
      </trkpt>
      <trkpt lat="45.39053" lon="0.79496">
        <ele>181.114639</ele>
        <time>2014-11-04T11:29:50Z</time>
      </trkpt>
      <trkpt lat="45.39052" lon="0.79501">
        <ele>181.526672</ele>
        <time>2014-11-04T11:29:51Z</time>
      </trkpt>
      <trkpt lat="45.39053" lon="0.79505">
        <ele>181.846985</ele>
        <time>2014-11-04T11:29:52Z</time>
      </trkpt>
      <trkpt lat="45.39054" lon="0.79509">
        <ele>182.253006</ele>
        <time>2014-11-04T11:29:53Z</time>
      </trkpt>
      <trkpt lat="45.39054" lon="0.79514">
        <ele>182.669571</ele>
        <time>2014-11-04T11:29:54Z</time>
      </trkpt>
      <trkpt lat="45.39054" lon="0.79518">
        <ele>182.98761</ele>
        <time>2014-11-04T11:29:55Z</time>
      </trkpt>
      <trkpt lat="45.39053" lon="0.79523">
        <ele>183.430557</ele>
        <time>2014-11-04T11:29:56Z</time>
      </trkpt>
      <trkpt lat="45.39052" lon="0.79527">
        <ele>183.806778</ele>
        <time>2014-11-04T11:29:57Z</time>
      </trkpt>
      <trkpt lat="45.39051" lon="0.79532">
        <ele>184.193192</ele>
        <time>2014-11-04T11:29:58Z</time>
      </trkpt>
      <trkpt lat="45.3905" lon="0.79536">
        <ele>184.50972</ele>
        <time>2014-11-04T11:29:59Z</time>
      </trkpt>
      <trkpt lat="45.39049" lon="0.79539">
        <ele>184.775085</ele>
        <time>2014-11-04T11:30:00Z</time>
      </trkpt>
      <trkpt lat="45.39047" lon="0.79543">
        <ele>185.116501</ele>
        <time>2014-11-04T11:30:01Z</time>
      </trkpt>
      <trkpt lat="45.39044" lon="0.79549">
        <ele>185.565445</ele>
        <time>2014-11-04T11:30:02Z</time>
      </trkpt>
      <trkpt lat="45.39042" lon="0.79553">
        <ele>185.966064</ele>
        <time>2014-11-04T11:30:03Z</time>
      </trkpt>
      <trkpt lat="45.39039" lon="0.79558">
        <ele>186.363846</ele>
        <time>2014-11-04T11:30:04Z</time>
      </trkpt>
      <trkpt lat="45.39037" lon="0.79563">
        <ele>186.814484</ele>
        <time>2014-11-04T11:30:05Z</time>
      </trkpt>
      <trkpt lat="45.39035" lon="0.79568">
        <ele>187.302383</ele>
        <time>2014-11-04T11:30:06Z</time>
      </trkpt>
      <trkpt lat="45.39032" lon="0.79573">
        <ele>187.870697</ele>
        <time>2014-11-04T11:30:07Z</time>
      </trkpt>
      <trkpt lat="45.39029" lon="0.79578">
        <ele>188.40596</ele>
        <time>2014-11-04T11:30:08Z</time>
      </trkpt>
      <trkpt lat="45.39026" lon="0.79584">
        <ele>188.854706</ele>
        <time>2014-11-04T11:30:09Z</time>
      </trkpt>
      <trkpt lat="45.39024" lon="0.79589">
        <ele>189.299362</ele>
        <time>2014-11-04T11:30:10Z</time>
      </trkpt>
      <trkpt lat="45.39022" lon="0.79593">
        <ele>189.657364</ele>
        <time>2014-11-04T11:30:11Z</time>
      </trkpt>
      <trkpt lat="45.39019" lon="0.79599">
        <ele>190.138809</ele>
        <time>2014-11-04T11:30:12Z</time>
      </trkpt>
      <trkpt lat="45.39016" lon="0.79605">
        <ele>190.60733</ele>
        <time>2014-11-04T11:30:13Z</time>
      </trkpt>
      <trkpt lat="45.39013" lon="0.79612">
        <ele>190.704376</ele>
        <time>2014-11-04T11:30:14Z</time>
      </trkpt>
      <trkpt lat="45.39011" lon="0.79618">
        <ele>190.795166</ele>
        <time>2014-11-04T11:30:15Z</time>
      </trkpt>
      <trkpt lat="45.39008" lon="0.79625">
        <ele>190.928833</ele>
        <time>2014-11-04T11:30:16Z</time>
      </trkpt>
      <trkpt lat="45.39006" lon="0.7963">
        <ele>191.063614</ele>
        <time>2014-11-04T11:30:17Z</time>
      </trkpt>
      <trkpt lat="45.39004" lon="0.79636">
        <ele>191.226883</ele>
        <time>2014-11-04T11:30:18Z</time>
      </trkpt>
      <trkpt lat="45.39002" lon="0.79642">
        <ele>191.424866</ele>
        <time>2014-11-04T11:30:19Z</time>
      </trkpt>
      <trkpt lat="45.39" lon="0.79648">
        <ele>191.672943</ele>
        <time>2014-11-04T11:30:20Z</time>
      </trkpt>
      <trkpt lat="45.38998" lon="0.79655">
        <ele>191.934128</ele>
        <time>2014-11-04T11:30:21Z</time>
      </trkpt>
      <trkpt lat="45.38996" lon="0.79661">
        <ele>192.217804</ele>
        <time>2014-11-04T11:30:22Z</time>
      </trkpt>
      <trkpt lat="45.38995" lon="0.79666">
        <ele>192.478912</ele>
        <time>2014-11-04T11:30:23Z</time>
      </trkpt>
      <trkpt lat="45.38993" lon="0.79668">
        <ele>192.596329</ele>
        <time>2014-11-04T11:30:24Z</time>
      </trkpt>
      <trkpt lat="45.38991" lon="0.79672">
        <ele>192.796753</ele>
        <time>2014-11-04T11:30:25Z</time>
      </trkpt>
      <trkpt lat="45.38989" lon="0.79675">
        <ele>192.836472</ele>
        <time>2014-11-04T11:30:26Z</time>
      </trkpt>
      <trkpt lat="45.38986" lon="0.7968">
        <ele>192.854904</ele>
        <time>2014-11-04T11:30:27Z</time>
      </trkpt>
      <trkpt lat="45.38984" lon="0.79684">
        <ele>192.783646</ele>
        <time>2014-11-04T11:30:28Z</time>
      </trkpt>
      <trkpt lat="45.38982" lon="0.79689">
        <ele>192.73027</ele>
        <time>2014-11-04T11:30:29Z</time>
      </trkpt>
      <trkpt lat="45.3898" lon="0.79693">
        <ele>192.710724</ele>
        <time>2014-11-04T11:30:30Z</time>
      </trkpt>
      <trkpt lat="45.38979" lon="0.79698">
        <ele>192.712784</ele>
        <time>2014-11-04T11:30:31Z</time>
      </trkpt>
      <trkpt lat="45.38976" lon="0.79701">
        <ele>192.748245</ele>
        <time>2014-11-04T11:30:32Z</time>
      </trkpt>
      <trkpt lat="45.38973" lon="0.79705">
        <ele>192.819717</ele>
        <time>2014-11-04T11:30:33Z</time>
      </trkpt>
      <trkpt lat="45.3897" lon="0.7971">
        <ele>192.945251</ele>
        <time>2014-11-04T11:30:34Z</time>
      </trkpt>
      <trkpt lat="45.38966" lon="0.79715">
        <ele>193.146866</ele>
        <time>2014-11-04T11:30:35Z</time>
      </trkpt>
      <trkpt lat="45.38962" lon="0.79722">
        <ele>193.417694</ele>
        <time>2014-11-04T11:30:36Z</time>
      </trkpt>
      <trkpt lat="45.3896" lon="0.79727">
        <ele>193.659637</ele>
        <time>2014-11-04T11:30:37Z</time>
      </trkpt>
      <trkpt lat="45.38958" lon="0.79732">
        <ele>193.884415</ele>
        <time>2014-11-04T11:30:38Z</time>
      </trkpt>
      <trkpt lat="45.38956" lon="0.79737">
        <ele>194.159927</ele>
        <time>2014-11-04T11:30:39Z</time>
      </trkpt>
      <trkpt lat="45.38955" lon="0.79741">
        <ele>194.469025</ele>
        <time>2014-11-04T11:30:40Z</time>
      </trkpt>
      <trkpt lat="45.38952" lon="0.79746">
        <ele>194.94487</ele>
        <time>2014-11-04T11:30:41Z</time>
      </trkpt>
      <trkpt lat="45.38949" lon="0.79751">
        <ele>195.520172</ele>
        <time>2014-11-04T11:30:42Z</time>
      </trkpt>
      <trkpt lat="45.38947" lon="0.79757">
        <ele>196.199631</ele>
        <time>2014-11-04T11:30:43Z</time>
      </trkpt>
      <trkpt lat="45.38944" lon="0.79763">
        <ele>196.956253</ele>
        <time>2014-11-04T11:30:44Z</time>
      </trkpt>
      <trkpt lat="45.38942" lon="0.79767">
        <ele>197.483871</ele>
        <time>2014-11-04T11:30:45Z</time>
      </trkpt>
      <trkpt lat="45.38939" lon="0.79772">
        <ele>197.95047</ele>
        <time>2014-11-04T11:30:46Z</time>
      </trkpt>
      <trkpt lat="45.38935" lon="0.79779">
        <ele>198.509964</ele>
        <time>2014-11-04T11:30:47Z</time>
      </trkpt>
      <trkpt lat="45.38931" lon="0.79784">
        <ele>198.984528</ele>
        <time>2014-11-04T11:30:48Z</time>
      </trkpt>
      <trkpt lat="45.38927" lon="0.79788">
        <ele>199.409622</ele>
        <time>2014-11-04T11:30:49Z</time>
      </trkpt>
      <trkpt lat="45.38923" lon="0.79793">
        <ele>199.848236</ele>
        <time>2014-11-04T11:30:50Z</time>
      </trkpt>
      <trkpt lat="45.3892" lon="0.79797">
        <ele>200.277847</ele>
        <time>2014-11-04T11:30:51Z</time>
      </trkpt>
      <trkpt lat="45.38915" lon="0.79803">
        <ele>200.735321</ele>
        <time>2014-11-04T11:30:52Z</time>
      </trkpt>
      <trkpt lat="45.38911" lon="0.79808">
        <ele>201.04126</ele>
        <time>2014-11-04T11:30:53Z</time>
      </trkpt>
      <trkpt lat="45.38907" lon="0.79812">
        <ele>201.380371</ele>
        <time>2014-11-04T11:30:54Z</time>
      </trkpt>
      <trkpt lat="45.38903" lon="0.79817">
        <ele>201.81665</ele>
        <time>2014-11-04T11:30:55Z</time>
      </trkpt>
      <trkpt lat="45.38899" lon="0.79822">
        <ele>202.279068</ele>
        <time>2014-11-04T11:30:56Z</time>
      </trkpt>
      <trkpt lat="45.38896" lon="0.79825">
        <ele>202.750427</ele>
        <time>2014-11-04T11:30:57Z</time>
      </trkpt>
      <trkpt lat="45.38893" lon="0.7983">
        <ele>203.308533</ele>
        <time>2014-11-04T11:30:58Z</time>
      </trkpt>
      <trkpt lat="45.38889" lon="0.79834">
        <ele>203.871887</ele>
        <time>2014-11-04T11:30:59Z</time>
      </trkpt>
      <trkpt lat="45.38885" lon="0.79838">
        <ele>204.449219</ele>
        <time>2014-11-04T11:31:00Z</time>
      </trkpt>
      <trkpt lat="45.38881" lon="0.79842">
        <ele>204.96936</ele>
        <time>2014-11-04T11:31:01Z</time>
      </trkpt>
      <trkpt lat="45.38878" lon="0.79845">
        <ele>205.521057</ele>
        <time>2014-11-04T11:31:02Z</time>
      </trkpt>
      <trkpt lat="45.38874" lon="0.79849">
        <ele>206.124146</ele>
        <time>2014-11-04T11:31:03Z</time>
      </trkpt>
      <trkpt lat="45.38869" lon="0.79853">
        <ele>206.765457</ele>
        <time>2014-11-04T11:31:04Z</time>
      </trkpt>
      <trkpt lat="45.38866" lon="0.79857">
        <ele>207.374954</ele>
        <time>2014-11-04T11:31:05Z</time>
      </trkpt>
      <trkpt lat="45.38863" lon="0.79861">
        <ele>207.917343</ele>
        <time>2014-11-04T11:31:06Z</time>
      </trkpt>
      <trkpt lat="45.38861" lon="0.79864">
        <ele>208.254517</ele>
        <time>2014-11-04T11:31:07Z</time>
      </trkpt>
      <trkpt lat="45.38859" lon="0.79867">
        <ele>208.674591</ele>
        <time>2014-11-04T11:31:08Z</time>
      </trkpt>
      <trkpt lat="45.38856" lon="0.79871">
        <ele>209.141953</ele>
        <time>2014-11-04T11:31:09Z</time>
      </trkpt>
      <trkpt lat="45.38852" lon="0.79873">
        <ele>209.45137</ele>
        <time>2014-11-04T11:31:10Z</time>
      </trkpt>
      <trkpt lat="45.38847" lon="0.79876">
        <ele>209.763199</ele>
        <time>2014-11-04T11:31:11Z</time>
      </trkpt>
      <trkpt lat="45.38841" lon="0.79879">
        <ele>210.152191</ele>
        <time>2014-11-04T11:31:12Z</time>
      </trkpt>
      <trkpt lat="45.38836" lon="0.79882">
        <ele>210.463852</ele>
        <time>2014-11-04T11:31:13Z</time>
      </trkpt>
      <trkpt lat="45.38831" lon="0.79884">
        <ele>210.759644</ele>
        <time>2014-11-04T11:31:14Z</time>
      </trkpt>
      <trkpt lat="45.38825" lon="0.79886">
        <ele>211.023972</ele>
        <time>2014-11-04T11:31:15Z</time>
      </trkpt>
      <trkpt lat="45.3882" lon="0.79887">
        <ele>211.227493</ele>
        <time>2014-11-04T11:31:16Z</time>
      </trkpt>
      <trkpt lat="45.38815" lon="0.79887">
        <ele>211.424881</ele>
        <time>2014-11-04T11:31:17Z</time>
      </trkpt>
      <trkpt lat="45.38811" lon="0.79887">
        <ele>211.597107</ele>
        <time>2014-11-04T11:31:18Z</time>
      </trkpt>
      <trkpt lat="45.38805" lon="0.79888">
        <ele>211.896851</ele>
        <time>2014-11-04T11:31:19Z</time>
      </trkpt>
      <trkpt lat="45.38799" lon="0.79889">
        <ele>212.237869</ele>
        <time>2014-11-04T11:31:20Z</time>
      </trkpt>
      <trkpt lat="45.38794" lon="0.7989">
        <ele>212.502487</ele>
        <time>2014-11-04T11:31:21Z</time>
      </trkpt>
      <trkpt lat="45.3879" lon="0.79892">
        <ele>212.758743</ele>
        <time>2014-11-04T11:31:22Z</time>
      </trkpt>
      <trkpt lat="45.38787" lon="0.79893">
        <ele>212.909164</ele>
        <time>2014-11-04T11:31:23Z</time>
      </trkpt>
      <trkpt lat="45.38785" lon="0.79894">
        <ele>213.038605</ele>
        <time>2014-11-04T11:31:24Z</time>
      </trkpt>
      <trkpt lat="45.38784" lon="0.79896">
        <ele>213.11554</ele>
        <time>2014-11-04T11:31:25Z</time>
      </trkpt>
      <trkpt lat="45.38783" lon="0.79897">
        <ele>213.178497</ele>
        <time>2014-11-04T11:31:26Z</time>
      </trkpt>
      <trkpt lat="45.38783" lon="0.79899">
        <ele>213.208618</ele>
        <time>2014-11-04T11:31:27Z</time>
      </trkpt>
      <trkpt lat="45.38783" lon="0.79901">
        <ele>213.206909</ele>
        <time>2014-11-04T11:31:28Z</time>
      </trkpt>
      <trkpt lat="45.38783" lon="0.79903">
        <ele>213.230957</ele>
        <time>2014-11-04T11:31:29Z</time>
      </trkpt>
      <trkpt lat="45.38783" lon="0.79903">
        <ele>213.22934</ele>
        <time>2014-11-04T11:31:30Z</time>
      </trkpt>
      <trkpt lat="45.38783" lon="0.79903">
        <ele>213.227066</ele>
        <time>2014-11-04T11:31:31Z</time>
      </trkpt>
      <trkpt lat="45.38784" lon="0.79903">
        <ele>213.22644</ele>
        <time>2014-11-04T11:31:32Z</time>
      </trkpt>
      <trkpt lat="45.38784" lon="0.79904">
        <ele>213.231674</ele>
        <time>2014-11-04T11:31:33Z</time>
      </trkpt>
      <trkpt lat="45.38784" lon="0.79905">
        <ele>213.244919</ele>
        <time>2014-11-04T11:31:34Z</time>
      </trkpt>
      <trkpt lat="45.38783" lon="0.79906">
        <ele>213.259598</ele>
        <time>2014-11-04T11:31:35Z</time>
      </trkpt>
      <trkpt lat="45.38783" lon="0.79906">
        <ele>213.269577</ele>
        <time>2014-11-04T11:31:36Z</time>
      </trkpt>
      <trkpt lat="45.38783" lon="0.79907">
        <ele>213.283524</ele>
        <time>2014-11-04T11:31:37Z</time>
      </trkpt>
      <trkpt lat="45.38783" lon="0.79909">
        <ele>213.322159</ele>
        <time>2014-11-04T11:31:38Z</time>
      </trkpt>
      <trkpt lat="45.38782" lon="0.79912">
        <ele>213.384232</ele>
        <time>2014-11-04T11:31:39Z</time>
      </trkpt>
      <trkpt lat="45.38782" lon="0.79914">
        <ele>213.419022</ele>
        <time>2014-11-04T11:31:40Z</time>
      </trkpt>
      <trkpt lat="45.38782" lon="0.79914">
        <ele>213.420761</ele>
        <time>2014-11-04T11:31:41Z</time>
      </trkpt>
      <trkpt lat="45.3878" lon="0.79915">
        <ele>213.489243</ele>
        <time>2014-11-04T11:31:42Z</time>
      </trkpt>
      <trkpt lat="45.38777" lon="0.79918">
        <ele>213.611694</ele>
        <time>2014-11-04T11:31:43Z</time>
      </trkpt>
      <trkpt lat="45.38773" lon="0.79918">
        <ele>213.748444</ele>
        <time>2014-11-04T11:31:44Z</time>
      </trkpt>
      <trkpt lat="45.38768" lon="0.79919">
        <ele>213.911804</ele>
        <time>2014-11-04T11:31:45Z</time>
      </trkpt>
      <trkpt lat="45.38762" lon="0.79918">
        <ele>213.978714</ele>
        <time>2014-11-04T11:31:46Z</time>
      </trkpt>
      <trkpt lat="45.38756" lon="0.79918">
        <ele>213.935852</ele>
        <time>2014-11-04T11:31:47Z</time>
      </trkpt>
      <trkpt lat="45.38749" lon="0.79917">
        <ele>213.908386</ele>
        <time>2014-11-04T11:31:48Z</time>
      </trkpt>
      <trkpt lat="45.38743" lon="0.79916">
        <ele>213.904312</ele>
        <time>2014-11-04T11:31:49Z</time>
      </trkpt>
      <trkpt lat="45.38739" lon="0.79915">
        <ele>213.908386</ele>
        <time>2014-11-04T11:31:50Z</time>
      </trkpt>
      <trkpt lat="45.38734" lon="0.79915">
        <ele>213.904785</ele>
        <time>2014-11-04T11:31:51Z</time>
      </trkpt>
      <trkpt lat="45.3873" lon="0.79915">
        <ele>213.881149</ele>
        <time>2014-11-04T11:31:52Z</time>
      </trkpt>
      <trkpt lat="45.38725" lon="0.79916">
        <ele>213.856873</ele>
        <time>2014-11-04T11:31:53Z</time>
      </trkpt>
      <trkpt lat="45.3872" lon="0.79916">
        <ele>213.820786</ele>
        <time>2014-11-04T11:31:54Z</time>
      </trkpt>
      <trkpt lat="45.38714" lon="0.79917">
        <ele>213.580292</ele>
        <time>2014-11-04T11:31:55Z</time>
      </trkpt>
      <trkpt lat="45.38707" lon="0.79918">
        <ele>213.29126</ele>
        <time>2014-11-04T11:31:56Z</time>
      </trkpt>
      <trkpt lat="45.387" lon="0.7992">
        <ele>212.993362</ele>
        <time>2014-11-04T11:31:57Z</time>
      </trkpt>
      <trkpt lat="45.38693" lon="0.79921">
        <ele>212.66394</ele>
        <time>2014-11-04T11:31:58Z</time>
      </trkpt>
      <trkpt lat="45.38686" lon="0.79923">
        <ele>212.336624</ele>
        <time>2014-11-04T11:31:59Z</time>
      </trkpt>
      <trkpt lat="45.3868" lon="0.79924">
        <ele>211.980316</ele>
        <time>2014-11-04T11:32:00Z</time>
      </trkpt>
      <trkpt lat="45.38674" lon="0.79926">
        <ele>211.567917</ele>
        <time>2014-11-04T11:32:01Z</time>
      </trkpt>
      <trkpt lat="45.38666" lon="0.79928">
        <ele>210.919556</ele>
        <time>2014-11-04T11:32:02Z</time>
      </trkpt>
      <trkpt lat="45.38659" lon="0.7993">
        <ele>210.30954</ele>
        <time>2014-11-04T11:32:03Z</time>
      </trkpt>
      <trkpt lat="45.38652" lon="0.79933">
        <ele>209.613724</ele>
        <time>2014-11-04T11:32:04Z</time>
      </trkpt>
      <trkpt lat="45.38645" lon="0.79936">
        <ele>208.938171</ele>
        <time>2014-11-04T11:32:05Z</time>
      </trkpt>
      <trkpt lat="45.38637" lon="0.79939">
        <ele>208.146606</ele>
        <time>2014-11-04T11:32:06Z</time>
      </trkpt>
      <trkpt lat="45.38628" lon="0.79943">
        <ele>207.15274</ele>
        <time>2014-11-04T11:32:07Z</time>
      </trkpt>
      <trkpt lat="45.38621" lon="0.79946">
        <ele>205.992203</ele>
        <time>2014-11-04T11:32:08Z</time>
      </trkpt>
      <trkpt lat="45.38612" lon="0.7995">
        <ele>204.613785</ele>
        <time>2014-11-04T11:32:09Z</time>
      </trkpt>
      <trkpt lat="45.38605" lon="0.79954">
        <ele>203.459976</ele>
        <time>2014-11-04T11:32:10Z</time>
      </trkpt>
      <trkpt lat="45.38598" lon="0.79958">
        <ele>202.400818</ele>
        <time>2014-11-04T11:32:11Z</time>
      </trkpt>
      <trkpt lat="45.3859" lon="0.79962">
        <ele>201.344116</ele>
        <time>2014-11-04T11:32:12Z</time>
      </trkpt>
      <trkpt lat="45.38583" lon="0.79967">
        <ele>200.195023</ele>
        <time>2014-11-04T11:32:13Z</time>
      </trkpt>
      <trkpt lat="45.38575" lon="0.79973">
        <ele>198.945724</ele>
        <time>2014-11-04T11:32:14Z</time>
      </trkpt>
      <trkpt lat="45.38567" lon="0.79978">
        <ele>197.720261</ele>
        <time>2014-11-04T11:32:15Z</time>
      </trkpt>
      <trkpt lat="45.38559" lon="0.79983">
        <ele>196.509933</ele>
        <time>2014-11-04T11:32:16Z</time>
      </trkpt>
      <trkpt lat="45.38551" lon="0.79988">
        <ele>195.355591</ele>
        <time>2014-11-04T11:32:17Z</time>
      </trkpt>
      <trkpt lat="45.38544" lon="0.79994">
        <ele>194.382462</ele>
        <time>2014-11-04T11:32:18Z</time>
      </trkpt>
      <trkpt lat="45.38537" lon="0.79998">
        <ele>193.613174</ele>
        <time>2014-11-04T11:32:19Z</time>
      </trkpt>
      <trkpt lat="45.38533" lon="0.80001">
        <ele>193.014694</ele>
        <time>2014-11-04T11:32:20Z</time>
      </trkpt>
      <trkpt lat="45.3853" lon="0.80003">
        <ele>192.623657</ele>
        <time>2014-11-04T11:32:21Z</time>
      </trkpt>
      <trkpt lat="45.38528" lon="0.80004">
        <ele>192.380539</ele>
        <time>2014-11-04T11:32:22Z</time>
      </trkpt>
      <trkpt lat="45.38528" lon="0.80004">
        <ele>192.380539</ele>
        <time>2014-11-04T11:32:23Z</time>
      </trkpt>
      <trkpt lat="45.38528" lon="0.80004">
        <ele>192.380539</ele>
        <time>2014-11-04T11:32:24Z</time>
      </trkpt>
      <trkpt lat="45.38528" lon="0.80004">
        <ele>192.380539</ele>
        <time>2014-11-04T11:32:25Z</time>
      </trkpt>
      <trkpt lat="45.38528" lon="0.80004">
        <ele>192.380539</ele>
        <time>2014-11-04T11:32:26Z</time>
      </trkpt>
      <trkpt lat="45.38528" lon="0.80004">
        <ele>192.380539</ele>
        <time>2014-11-04T11:32:27Z</time>
      </trkpt>
      <trkpt lat="45.38528" lon="0.80004">
        <ele>192.380539</ele>
        <time>2014-11-04T11:32:28Z</time>
      </trkpt>
      <trkpt lat="45.38528" lon="0.80004">
        <ele>192.380539</ele>
        <time>2014-11-04T11:32:29Z</time>
      </trkpt>
      <trkpt lat="45.38528" lon="0.80004">
        <ele>192.380539</ele>
        <time>2014-11-04T11:32:30Z</time>
      </trkpt>
      <trkpt lat="45.38528" lon="0.80004">
        <ele>192.380539</ele>
        <time>2014-11-04T11:32:31Z</time>
      </trkpt>
      <trkpt lat="45.38528" lon="0.80004">
        <ele>192.380539</ele>
        <time>2014-11-04T11:32:32Z</time>
      </trkpt>
      <trkpt lat="45.38528" lon="0.80004">
        <ele>192.380539</ele>
        <time>2014-11-04T11:32:33Z</time>
      </trkpt>
      <trkpt lat="45.38528" lon="0.80004">
        <ele>192.380539</ele>
        <time>2014-11-04T11:32:34Z</time>
      </trkpt>
      <trkpt lat="45.38528" lon="0.80004">
        <ele>192.380539</ele>
        <time>2014-11-04T11:32:35Z</time>
      </trkpt>
      <trkpt lat="45.38528" lon="0.80004">
        <ele>192.380539</ele>
        <time>2014-11-04T11:32:36Z</time>
      </trkpt>
      <trkpt lat="45.38528" lon="0.80004">
        <ele>192.380539</ele>
        <time>2014-11-04T11:32:38Z</time>
      </trkpt>
      <trkpt lat="45.38528" lon="0.80004">
        <ele>192.380539</ele>
        <time>2014-11-04T11:32:39Z</time>
      </trkpt>
      <trkpt lat="45.38528" lon="0.80004">
        <ele>192.380539</ele>
        <time>2014-11-04T11:32:40Z</time>
      </trkpt>
      <trkpt lat="45.38528" lon="0.80004">
        <ele>192.380539</ele>
        <time>2014-11-04T11:32:41Z</time>
      </trkpt>
      <trkpt lat="45.38528" lon="0.80004">
        <ele>192.380539</ele>
        <time>2014-11-04T11:32:42Z</time>
      </trkpt>
      <trkpt lat="45.38528" lon="0.80004">
        <ele>192.380539</ele>
        <time>2014-11-04T11:32:43Z</time>
      </trkpt>
      <trkpt lat="45.38528" lon="0.80004">
        <ele>192.380539</ele>
        <time>2014-11-04T11:32:44Z</time>
      </trkpt>
      <trkpt lat="45.38528" lon="0.80004">
        <ele>192.380539</ele>
        <time>2014-11-04T11:32:45Z</time>
      </trkpt>
      <trkpt lat="45.38526" lon="0.80005">
        <ele>192.103607</ele>
        <time>2014-11-04T11:32:46Z</time>
      </trkpt>
      <trkpt lat="45.38526" lon="0.80005">
        <ele>192.103607</ele>
        <time>2014-11-04T11:32:47Z</time>
      </trkpt>
      <trkpt lat="45.38526" lon="0.80005">
        <ele>192.103607</ele>
        <time>2014-11-04T11:32:48Z</time>
      </trkpt>
      <trkpt lat="45.38526" lon="0.80005">
        <ele>192.103607</ele>
        <time>2014-11-04T11:32:49Z</time>
      </trkpt>
      <trkpt lat="45.38526" lon="0.80005">
        <ele>192.103607</ele>
        <time>2014-11-04T11:32:50Z</time>
      </trkpt>
      <trkpt lat="45.38526" lon="0.80005">
        <ele>192.103607</ele>
        <time>2014-11-04T11:32:51Z</time>
      </trkpt>
      <trkpt lat="45.38526" lon="0.80005">
        <ele>192.103607</ele>
        <time>2014-11-04T11:32:52Z</time>
      </trkpt>
      <trkpt lat="45.38526" lon="0.80005">
        <ele>192.103607</ele>
        <time>2014-11-04T11:32:53Z</time>
      </trkpt>
      <trkpt lat="45.38526" lon="0.80005">
        <ele>192.103607</ele>
        <time>2014-11-04T11:32:54Z</time>
      </trkpt>
      <trkpt lat="45.38526" lon="0.80005">
        <ele>192.103607</ele>
        <time>2014-11-04T11:32:55Z</time>
      </trkpt>
      <trkpt lat="45.38526" lon="0.80005">
        <ele>192.103607</ele>
        <time>2014-11-04T11:32:56Z</time>
      </trkpt>
      <trkpt lat="45.38526" lon="0.80005">
        <ele>192.103607</ele>
        <time>2014-11-04T11:32:57Z</time>
      </trkpt>
      <trkpt lat="45.38526" lon="0.80005">
        <ele>192.103607</ele>
        <time>2014-11-04T11:32:58Z</time>
      </trkpt>
      <trkpt lat="45.38523" lon="0.80007">
        <ele>191.706985</ele>
        <time>2014-11-04T11:32:59Z</time>
      </trkpt>
      <trkpt lat="45.38521" lon="0.80007">
        <ele>191.396774</ele>
        <time>2014-11-04T11:33:00Z</time>
      </trkpt>
      <trkpt lat="45.38519" lon="0.80008">
        <ele>191.12616</ele>
        <time>2014-11-04T11:33:01Z</time>
      </trkpt>
      <trkpt lat="45.38517" lon="0.80009">
        <ele>190.909821</ele>
        <time>2014-11-04T11:33:02Z</time>
      </trkpt>
      <trkpt lat="45.38516" lon="0.80011">
        <ele>190.653305</ele>
        <time>2014-11-04T11:33:03Z</time>
      </trkpt>
      <trkpt lat="45.38513" lon="0.80013">
        <ele>190.170334</ele>
        <time>2014-11-04T11:33:04Z</time>
      </trkpt>
      <trkpt lat="45.38509" lon="0.80018">
        <ele>189.519562</ele>
        <time>2014-11-04T11:33:05Z</time>
      </trkpt>
      <trkpt lat="45.38505" lon="0.80022">
        <ele>188.918793</ele>
        <time>2014-11-04T11:33:06Z</time>
      </trkpt>
      <trkpt lat="45.38501" lon="0.80027">
        <ele>188.251724</ele>
        <time>2014-11-04T11:33:07Z</time>
      </trkpt>
      <trkpt lat="45.38497" lon="0.80034">
        <ele>187.532333</ele>
        <time>2014-11-04T11:33:08Z</time>
      </trkpt>
      <trkpt lat="45.38491" lon="0.80041">
        <ele>186.690338</ele>
        <time>2014-11-04T11:33:09Z</time>
      </trkpt>
      <trkpt lat="45.38487" lon="0.80049">
        <ele>185.948456</ele>
        <time>2014-11-04T11:33:10Z</time>
      </trkpt>
      <trkpt lat="45.38482" lon="0.80057">
        <ele>185.303009</ele>
        <time>2014-11-04T11:33:11Z</time>
      </trkpt>
      <trkpt lat="45.38478" lon="0.80065">
        <ele>184.804352</ele>
        <time>2014-11-04T11:33:12Z</time>
      </trkpt>
      <trkpt lat="45.38474" lon="0.80074">
        <ele>184.247803</ele>
        <time>2014-11-04T11:33:13Z</time>
      </trkpt>
      <trkpt lat="45.3847" lon="0.80082">
        <ele>183.742523</ele>
        <time>2014-11-04T11:33:14Z</time>
      </trkpt>
      <trkpt lat="45.38467" lon="0.80092">
        <ele>183.369812</ele>
        <time>2014-11-04T11:33:15Z</time>
      </trkpt>
      <trkpt lat="45.38464" lon="0.80101">
        <ele>183.120514</ele>
        <time>2014-11-04T11:33:16Z</time>
      </trkpt>
      <trkpt lat="45.38462" lon="0.8011">
        <ele>182.948074</ele>
        <time>2014-11-04T11:33:17Z</time>
      </trkpt>
      <trkpt lat="45.3846" lon="0.8012">
        <ele>182.854324</ele>
        <time>2014-11-04T11:33:18Z</time>
      </trkpt>
      <trkpt lat="45.38457" lon="0.8013">
        <ele>182.839417</ele>
        <time>2014-11-04T11:33:19Z</time>
      </trkpt>
      <trkpt lat="45.38456" lon="0.8014">
        <ele>182.901382</ele>
        <time>2014-11-04T11:33:20Z</time>
      </trkpt>
      <trkpt lat="45.38454" lon="0.80149">
        <ele>183.000595</ele>
        <time>2014-11-04T11:33:21Z</time>
      </trkpt>
      <trkpt lat="45.38452" lon="0.80158">
        <ele>183.016159</ele>
        <time>2014-11-04T11:33:22Z</time>
      </trkpt>
      <trkpt lat="45.3845" lon="0.80167">
        <ele>183.045822</ele>
        <time>2014-11-04T11:33:23Z</time>
      </trkpt>
      <trkpt lat="45.38448" lon="0.80175">
        <ele>183.084686</ele>
        <time>2014-11-04T11:33:24Z</time>
      </trkpt>
      <trkpt lat="45.38447" lon="0.80181">
        <ele>183.124863</ele>
        <time>2014-11-04T11:33:25Z</time>
      </trkpt>
      <trkpt lat="45.38445" lon="0.80187">
        <ele>183.175705</ele>
        <time>2014-11-04T11:33:26Z</time>
      </trkpt>
      <trkpt lat="45.38443" lon="0.80193">
        <ele>183.236694</ele>
        <time>2014-11-04T11:33:27Z</time>
      </trkpt>
      <trkpt lat="45.38441" lon="0.80199">
        <ele>183.199036</ele>
        <time>2014-11-04T11:33:28Z</time>
      </trkpt>
      <trkpt lat="45.38439" lon="0.80204">
        <ele>183.005066</ele>
        <time>2014-11-04T11:33:29Z</time>
      </trkpt>
      <trkpt lat="45.38435" lon="0.80208">
        <ele>182.89975</ele>
        <time>2014-11-04T11:33:30Z</time>
      </trkpt>
      <trkpt lat="45.38432" lon="0.80212">
        <ele>182.80748</ele>
        <time>2014-11-04T11:33:31Z</time>
      </trkpt>
      <trkpt lat="45.38429" lon="0.80215">
        <ele>182.728912</ele>
        <time>2014-11-04T11:33:32Z</time>
      </trkpt>
      <trkpt lat="45.38427" lon="0.80217">
        <ele>182.671524</ele>
        <time>2014-11-04T11:33:33Z</time>
      </trkpt>
      <trkpt lat="45.38424" lon="0.8022">
        <ele>182.607483</ele>
        <time>2014-11-04T11:33:34Z</time>
      </trkpt>
      <trkpt lat="45.38421" lon="0.80223">
        <ele>182.551941</ele>
        <time>2014-11-04T11:33:35Z</time>
      </trkpt>
      <trkpt lat="45.38419" lon="0.80224">
        <ele>182.526077</ele>
        <time>2014-11-04T11:33:36Z</time>
      </trkpt>
      <trkpt lat="45.38417" lon="0.80225">
        <ele>182.522751</ele>
        <time>2014-11-04T11:33:37Z</time>
      </trkpt>
      <trkpt lat="45.38416" lon="0.80226">
        <ele>182.518936</ele>
        <time>2014-11-04T11:33:38Z</time>
      </trkpt>
      <trkpt lat="45.38416" lon="0.80226">
        <ele>182.518936</ele>
        <time>2014-11-04T11:33:39Z</time>
      </trkpt>
      <trkpt lat="45.38416" lon="0.80226">
        <ele>182.518936</ele>
        <time>2014-11-04T11:33:40Z</time>
      </trkpt>
      <trkpt lat="45.38416" lon="0.80226">
        <ele>182.518936</ele>
        <time>2014-11-04T11:33:41Z</time>
      </trkpt>
      <trkpt lat="45.38416" lon="0.80226">
        <ele>182.518936</ele>
        <time>2014-11-04T11:33:42Z</time>
      </trkpt>
      <trkpt lat="45.38416" lon="0.80226">
        <ele>182.518936</ele>
        <time>2014-11-04T11:33:43Z</time>
      </trkpt>
      <trkpt lat="45.38416" lon="0.80226">
        <ele>182.518936</ele>
        <time>2014-11-04T11:33:44Z</time>
      </trkpt>
      <trkpt lat="45.38416" lon="0.80226">
        <ele>182.518936</ele>
        <time>2014-11-04T11:33:45Z</time>
      </trkpt>
      <trkpt lat="45.3841" lon="0.8023">
        <ele>182.494751</ele>
        <time>2014-11-04T11:33:46Z</time>
      </trkpt>
      <trkpt lat="45.38407" lon="0.80232">
        <ele>182.361938</ele>
        <time>2014-11-04T11:33:47Z</time>
      </trkpt>
      <trkpt lat="45.38405" lon="0.80233">
        <ele>182.228058</ele>
        <time>2014-11-04T11:33:48Z</time>
      </trkpt>
      <trkpt lat="45.38403" lon="0.80236">
        <ele>182.1035</ele>
        <time>2014-11-04T11:33:49Z</time>
      </trkpt>
      <trkpt lat="45.38399" lon="0.80239">
        <ele>181.907211</ele>
        <time>2014-11-04T11:33:50Z</time>
      </trkpt>
      <trkpt lat="45.38395" lon="0.80242">
        <ele>181.733582</ele>
        <time>2014-11-04T11:33:51Z</time>
      </trkpt>
      <trkpt lat="45.38391" lon="0.80245">
        <ele>181.588928</ele>
        <time>2014-11-04T11:33:52Z</time>
      </trkpt>
      <trkpt lat="45.38388" lon="0.80248">
        <ele>181.451675</ele>
        <time>2014-11-04T11:33:53Z</time>
      </trkpt>
      <trkpt lat="45.38383" lon="0.80252">
        <ele>181.29689</ele>
        <time>2014-11-04T11:33:54Z</time>
      </trkpt>
      <trkpt lat="45.3838" lon="0.80255">
        <ele>181.18158</ele>
        <time>2014-11-04T11:33:55Z</time>
      </trkpt>
      <trkpt lat="45.38375" lon="0.80259">
        <ele>181.068344</ele>
        <time>2014-11-04T11:33:56Z</time>
      </trkpt>
      <trkpt lat="45.38372" lon="0.80263">
        <ele>180.881058</ele>
        <time>2014-11-04T11:33:57Z</time>
      </trkpt>
      <trkpt lat="45.38367" lon="0.80265">
        <ele>180.403107</ele>
        <time>2014-11-04T11:33:58Z</time>
      </trkpt>
      <trkpt lat="45.38363" lon="0.80268">
        <ele>179.953888</ele>
        <time>2014-11-04T11:33:59Z</time>
      </trkpt>
      <trkpt lat="45.38357" lon="0.8027">
        <ele>179.340378</ele>
        <time>2014-11-04T11:34:00Z</time>
      </trkpt>
      <trkpt lat="45.38352" lon="0.80274">
        <ele>178.69664</ele>
        <time>2014-11-04T11:34:01Z</time>
      </trkpt>
      <trkpt lat="45.38346" lon="0.80277">
        <ele>177.89476</ele>
        <time>2014-11-04T11:34:02Z</time>
      </trkpt>
      <trkpt lat="45.3834" lon="0.80282">
        <ele>176.982956</ele>
        <time>2014-11-04T11:34:03Z</time>
      </trkpt>
      <trkpt lat="45.38335" lon="0.80286">
        <ele>176.102905</ele>
        <time>2014-11-04T11:34:04Z</time>
      </trkpt>
      <trkpt lat="45.38335" lon="0.80284">
        <ele>176.494247</ele>
        <time>2014-11-04T11:35:02Z</time>
      </trkpt>
      <trkpt lat="45.38335" lon="0.80284">
        <ele>176.494247</ele>
        <time>2014-11-04T11:35:03Z</time>
      </trkpt>
      <trkpt lat="45.38335" lon="0.80284">
        <ele>176.494247</ele>
        <time>2014-11-04T11:35:04Z</time>
      </trkpt>
      <trkpt lat="45.38335" lon="0.80284">
        <ele>176.494247</ele>
        <time>2014-11-04T11:35:05Z</time>
      </trkpt>
      <trkpt lat="45.38335" lon="0.80284">
        <ele>176.494247</ele>
        <time>2014-11-04T11:35:06Z</time>
      </trkpt>
      <trkpt lat="45.38335" lon="0.80284">
        <ele>176.494247</ele>
        <time>2014-11-04T11:35:07Z</time>
      </trkpt>
      <trkpt lat="45.38335" lon="0.80284">
        <ele>176.494247</ele>
        <time>2014-11-04T11:35:08Z</time>
      </trkpt>
      <trkpt lat="45.38334" lon="0.80282">
        <ele>176.965439</ele>
        <time>2014-11-04T11:35:09Z</time>
      </trkpt>
      <trkpt lat="45.38331" lon="0.80278">
        <ele>177.948853</ele>
        <time>2014-11-04T11:35:10Z</time>
      </trkpt>
      <trkpt lat="45.38329" lon="0.80272">
        <ele>179.175751</ele>
        <time>2014-11-04T11:35:11Z</time>
      </trkpt>
      <trkpt lat="45.38326" lon="0.80266">
        <ele>180.463074</ele>
        <time>2014-11-04T11:35:12Z</time>
      </trkpt>
      <trkpt lat="45.38324" lon="0.8026">
        <ele>180.770905</ele>
        <time>2014-11-04T11:35:13Z</time>
      </trkpt>
      <trkpt lat="45.38321" lon="0.80255">
        <ele>180.440338</ele>
        <time>2014-11-04T11:35:14Z</time>
      </trkpt>
      <trkpt lat="45.38319" lon="0.8025">
        <ele>180.044678</ele>
        <time>2014-11-04T11:35:15Z</time>
      </trkpt>
      <trkpt lat="45.38318" lon="0.80247">
        <ele>179.727097</ele>
        <time>2014-11-04T11:35:16Z</time>
      </trkpt>
      <trkpt lat="45.38318" lon="0.80247">
        <ele>179.727097</ele>
        <time>2014-11-04T11:35:17Z</time>
      </trkpt>
      <trkpt lat="45.38318" lon="0.80247">
        <ele>179.727097</ele>
        <time>2014-11-04T11:35:18Z</time>
      </trkpt>
      <trkpt lat="45.38317" lon="0.80244">
        <ele>179.401932</ele>
        <time>2014-11-04T11:35:19Z</time>
      </trkpt>
      <trkpt lat="45.38316" lon="0.80243">
        <ele>179.216232</ele>
        <time>2014-11-04T11:35:20Z</time>
      </trkpt>
      <trkpt lat="45.38315" lon="0.80241">
        <ele>178.94487</ele>
        <time>2014-11-04T11:35:21Z</time>
      </trkpt>
      <trkpt lat="45.38313" lon="0.80238">
        <ele>178.503036</ele>
        <time>2014-11-04T11:35:22Z</time>
      </trkpt>
      <trkpt lat="45.38311" lon="0.80234">
        <ele>177.946686</ele>
        <time>2014-11-04T11:35:23Z</time>
      </trkpt>
      <trkpt lat="45.38308" lon="0.8023">
        <ele>177.196671</ele>
        <time>2014-11-04T11:35:24Z</time>
      </trkpt>
      <trkpt lat="45.38305" lon="0.80225">
        <ele>176.421051</ele>
        <time>2014-11-04T11:35:25Z</time>
      </trkpt>
      <trkpt lat="45.38302" lon="0.80221">
        <ele>175.577332</ele>
        <time>2014-11-04T11:35:26Z</time>
      </trkpt>
      <trkpt lat="45.38298" lon="0.80219">
        <ele>174.871323</ele>
        <time>2014-11-04T11:35:27Z</time>
      </trkpt>
      <trkpt lat="45.38292" lon="0.80218">
        <ele>173.883347</ele>
        <time>2014-11-04T11:35:28Z</time>
      </trkpt>
      <trkpt lat="45.38288" lon="0.80218">
        <ele>173.121536</ele>
        <time>2014-11-04T11:35:29Z</time>
      </trkpt>
      <trkpt lat="45.38283" lon="0.80218">
        <ele>172.342346</ele>
        <time>2014-11-04T11:35:30Z</time>
      </trkpt>
      <trkpt lat="45.38278" lon="0.80218">
        <ele>171.584015</ele>
        <time>2014-11-04T11:35:31Z</time>
      </trkpt>
      <trkpt lat="45.38273" lon="0.80218">
        <ele>170.834335</ele>
        <time>2014-11-04T11:35:32Z</time>
      </trkpt>
      <trkpt lat="45.38268" lon="0.8022">
        <ele>170.409973</ele>
        <time>2014-11-04T11:35:33Z</time>
      </trkpt>
      <trkpt lat="45.38264" lon="0.80222">
        <ele>170.18721</ele>
        <time>2014-11-04T11:35:34Z</time>
      </trkpt>
      <trkpt lat="45.38261" lon="0.80227">
        <ele>170.25885</ele>
        <time>2014-11-04T11:35:35Z</time>
      </trkpt>
      <trkpt lat="45.38258" lon="0.80231">
        <ele>170.371002</ele>
        <time>2014-11-04T11:35:36Z</time>
      </trkpt>
      <trkpt lat="45.38255" lon="0.80235">
        <ele>170.506653</ele>
        <time>2014-11-04T11:35:37Z</time>
      </trkpt>
      <trkpt lat="45.38252" lon="0.8024">
        <ele>170.647552</ele>
        <time>2014-11-04T11:35:38Z</time>
      </trkpt>
      <trkpt lat="45.38248" lon="0.80245">
        <ele>170.684677</ele>
        <time>2014-11-04T11:35:39Z</time>
      </trkpt>
      <trkpt lat="45.38244" lon="0.80248">
        <ele>170.566208</ele>
        <time>2014-11-04T11:35:40Z</time>
      </trkpt>
      <trkpt lat="45.3824" lon="0.80251">
        <ele>170.31926</ele>
        <time>2014-11-04T11:35:41Z</time>
      </trkpt>
      <trkpt lat="45.38235" lon="0.80251">
        <ele>169.755356</ele>
        <time>2014-11-04T11:35:42Z</time>
      </trkpt>
      <trkpt lat="45.38231" lon="0.80252">
        <ele>169.265533</ele>
        <time>2014-11-04T11:35:43Z</time>
      </trkpt>
      <trkpt lat="45.38228" lon="0.80251">
        <ele>168.897186</ele>
        <time>2014-11-04T11:35:44Z</time>
      </trkpt>
      <trkpt lat="45.38227" lon="0.8025">
        <ele>168.626556</ele>
        <time>2014-11-04T11:35:45Z</time>
      </trkpt>
      <trkpt lat="45.38224" lon="0.8025">
        <ele>168.31456</ele>
        <time>2014-11-04T11:35:46Z</time>
      </trkpt>
      <trkpt lat="45.38223" lon="0.8025">
        <ele>168.17128</ele>
        <time>2011-08-01T15:46:52Z</time>
      </trkpt>
      <trkpt lat="45.38208" lon="0.8022">
        <ele>163.375641</ele>
        <time>2011-08-01T15:48:09Z</time>
      </trkpt>
      <trkpt lat="45.38193" lon="0.80203">
        <ele>160.713623</ele>
        <time>2011-08-01T15:48:24Z</time>
      </trkpt>
      <trkpt lat="45.38173" lon="0.8021">
        <ele>159.843658</ele>
        <time>2011-08-01T15:48:46Z</time>
      </trkpt>
      <trkpt lat="45.38145" lon="0.80238">
        <ele>154.029099</ele>
        <time>2011-08-01T15:49:30Z</time>
      </trkpt>
      <trkpt lat="45.38118" lon="0.80233">
        <ele>150.012924</ele>
        <time>2011-08-01T15:49:55Z</time>
      </trkpt>
      <trkpt lat="45.38098" lon="0.80228">
        <ele>148.109665</ele>
        <time>2011-08-01T15:50:06Z</time>
      </trkpt>
      <trkpt lat="45.38078" lon="0.80225">
        <ele>144.414825</ele>
        <time>2011-08-01T15:50:21Z</time>
      </trkpt>
      <trkpt lat="45.38045" lon="0.80205">
        <ele>141.590103</ele>
        <time>2011-08-01T14:59:24Z</time>
      </trkpt>
      <trkpt lat="45.3803" lon="0.8019">
        <ele>141.881134</ele>
        <time>2011-08-01T14:59:17Z</time>
      </trkpt>
      <trkpt lat="45.38018" lon="0.8017">
        <ele>143.776199</ele>
        <time>2011-08-01T14:59:03Z</time>
      </trkpt>
      <trkpt lat="45.38003" lon="0.80148">
        <ele>144.995773</ele>
        <time>2011-08-01T14:58:59Z</time>
      </trkpt>
      <trkpt lat="45.37985" lon="0.8013">
        <ele>143.248428</ele>
        <time>2011-08-01T14:58:54Z</time>
      </trkpt>
      <trkpt lat="45.37965" lon="0.80115">
        <ele>140.060226</ele>
        <time>2011-08-01T14:58:50Z</time>
      </trkpt>
      <trkpt lat="45.37948" lon="0.80105">
        <ele>137.866425</ele>
        <time>2011-08-01T14:58:47Z</time>
      </trkpt>
      <trkpt lat="45.3793" lon="0.80095">
        <ele>135.476395</ele>
        <time>2011-08-01T14:58:43Z</time>
      </trkpt>
      <trkpt lat="45.3791" lon="0.80078">
        <ele>132.85022</ele>
        <time>2011-08-01T14:58:39Z</time>
      </trkpt>
      <trkpt lat="45.37898" lon="0.80058">
        <ele>134.170486</ele>
        <time>2011-08-01T14:58:36Z</time>
      </trkpt>
      <trkpt lat="45.37887" lon="0.8003">
        <ele>135.468994</ele>
        <time>2011-08-01T14:58:33Z</time>
      </trkpt>
      <trkpt lat="45.37875" lon="0.80005">
        <ele>133.926483</ele>
        <time>2011-08-01T14:58:29Z</time>
      </trkpt>
      <trkpt lat="45.37865" lon="0.79975">
        <ele>132.678146</ele>
        <time>2011-08-01T14:58:24Z</time>
      </trkpt>
      <trkpt lat="45.37855" lon="0.79948">
        <ele>132.529221</ele>
        <time>2011-08-01T14:58:19Z</time>
      </trkpt>
      <trkpt lat="45.37858" lon="0.79913">
        <ele>134.902206</ele>
        <time>2011-08-01T14:58:15Z</time>
      </trkpt>
      <trkpt lat="45.3786" lon="0.7988">
        <ele>136.895828</ele>
        <time>2011-08-01T14:58:11Z</time>
      </trkpt>
      <trkpt lat="45.37855" lon="0.79855">
        <ele>136.1548</ele>
        <time>2011-08-01T14:58:08Z</time>
      </trkpt>
      <trkpt lat="45.37853" lon="0.79825">
        <ele>136.31929</ele>
        <time>2011-08-01T14:58:05Z</time>
      </trkpt>
      <trkpt lat="45.3785" lon="0.79795">
        <ele>137.048737</ele>
        <time>2011-08-01T14:58:02Z</time>
      </trkpt>
      <trkpt lat="45.37843" lon="0.79765">
        <ele>137.02359</ele>
        <time>2011-08-01T14:57:59Z</time>
      </trkpt>
      <trkpt lat="45.3783" lon="0.7974">
        <ele>138.264618</ele>
        <time>2011-08-01T14:57:56Z</time>
      </trkpt>
      <trkpt lat="45.37818" lon="0.79718">
        <ele>138.924057</ele>
        <time>2011-08-01T14:57:53Z</time>
      </trkpt>
      <trkpt lat="45.37803" lon="0.79693">
        <ele>138.474686</ele>
        <time>2011-08-01T14:57:50Z</time>
      </trkpt>
      <trkpt lat="45.37793" lon="0.79665">
        <ele>139.274673</ele>
        <time>2011-08-01T14:57:47Z</time>
      </trkpt>
      <trkpt lat="45.3778" lon="0.79633">
        <ele>139.989548</ele>
        <time>2011-08-01T14:57:43Z</time>
      </trkpt>
      <trkpt lat="45.3777" lon="0.7961">
        <ele>141.433701</ele>
        <time>2011-08-01T14:57:30Z</time>
      </trkpt>
      <trkpt lat="45.37756" lon="0.79585">
        <ele>142.070374</ele>
        <time>2011-08-01T14:57:26Z</time>
      </trkpt>
      <trkpt lat="45.3774" lon="0.7957">
        <ele>140.019852</ele>
        <time>2011-08-01T14:57:23Z</time>
      </trkpt>
      <trkpt lat="45.3772" lon="0.79558">
        <ele>137.774689</ele>
        <time>2011-08-01T14:57:20Z</time>
      </trkpt>
      <trkpt lat="45.377" lon="0.7954">
        <ele>137.595963</ele>
        <time>2011-08-01T14:57:17Z</time>
      </trkpt>
      <trkpt lat="45.37678" lon="0.79523">
        <ele>136.23999</ele>
        <time>2011-08-01T14:57:14Z</time>
      </trkpt>
      <trkpt lat="45.3766" lon="0.79508">
        <ele>136.018082</ele>
        <time>2011-08-01T14:57:11Z</time>
      </trkpt>
      <trkpt lat="45.37643" lon="0.79493">
        <ele>136.724304</ele>
        <time>2011-08-01T14:57:08Z</time>
      </trkpt>
      <trkpt lat="45.37618" lon="0.79483">
        <ele>136.725464</ele>
        <time>2011-08-01T14:57:04Z</time>
      </trkpt>
      <trkpt lat="45.376" lon="0.79475">
        <ele>137.078583</ele>
        <time>2011-08-01T14:57:01Z</time>
      </trkpt>
      <trkpt lat="45.37583" lon="0.79468">
        <ele>136.934525</ele>
        <time>2011-08-01T14:56:58Z</time>
      </trkpt>
      <trkpt lat="45.3756" lon="0.79458">
        <ele>135.406662</ele>
        <time>2011-08-01T14:56:54Z</time>
      </trkpt>
      <trkpt lat="45.37538" lon="0.79445">
        <ele>134.793839</ele>
        <time>2011-08-01T14:56:46Z</time>
      </trkpt>
      <trkpt lat="45.37518" lon="0.7944">
        <ele>134.366455</ele>
        <time>2011-08-01T14:56:39Z</time>
      </trkpt>
      <trkpt lat="45.375" lon="0.79428">
        <ele>135.971039</ele>
        <time>2011-08-01T14:56:20Z</time>
      </trkpt>
      <trkpt lat="45.37483" lon="0.7942">
        <ele>135.980484</ele>
        <time>2011-08-01T14:56:15Z</time>
      </trkpt>
      <trkpt lat="45.37463" lon="0.79405">
        <ele>136.495361</ele>
        <time>2011-08-01T14:56:10Z</time>
      </trkpt>
      <trkpt lat="45.37445" lon="0.79393">
        <ele>135.394928</ele>
        <time>2011-08-01T14:56:05Z</time>
      </trkpt>
      <trkpt lat="45.3743" lon="0.79375">
        <ele>134.669571</ele>
        <time>2011-08-01T14:56:00Z</time>
      </trkpt>
      <trkpt lat="45.37418" lon="0.79353">
        <ele>135.555237</ele>
        <time>2011-08-01T14:55:54Z</time>
      </trkpt>
      <trkpt lat="45.37403" lon="0.79338">
        <ele>135.155273</ele>
        <time>2011-08-01T14:55:49Z</time>
      </trkpt>
      <trkpt lat="45.37383" lon="0.79323">
        <ele>133.423935</ele>
        <time>2011-08-01T14:55:43Z</time>
      </trkpt>
      <trkpt lat="45.3737" lon="0.79303">
        <ele>134.139877</ele>
        <time>2011-08-01T14:55:38Z</time>
      </trkpt>
      <trkpt lat="45.37358" lon="0.79283">
        <ele>135.266617</ele>
        <time>2011-08-01T14:55:33Z</time>
      </trkpt>
      <trkpt lat="45.37345" lon="0.7926">
        <ele>135.748993</ele>
        <time>2011-08-01T14:55:28Z</time>
      </trkpt>
      <trkpt lat="45.3733" lon="0.7924">
        <ele>134.458496</ele>
        <time>2011-08-01T14:55:23Z</time>
      </trkpt>
      <trkpt lat="45.37318" lon="0.7922">
        <ele>133.442719</ele>
        <time>2011-08-01T14:55:18Z</time>
      </trkpt>
      <trkpt lat="45.37305" lon="0.792">
        <ele>132.351578</ele>
        <time>2011-08-01T14:55:13Z</time>
      </trkpt>
      <trkpt lat="45.37284" lon="0.79117">
        <ele>129.542328</ele>
        <time>2011-08-01T14:55:09Z</time>
      </trkpt>
      <trkpt lat="45.3711" lon="0.79195">
        <ele>127.576645</ele>
      </trkpt>
      <trkpt lat="45.37066" lon="0.79247">
        <ele>129.1035</ele>
      </trkpt>
      <trkpt lat="45.37062" lon="0.79286">
        <ele>129.676636</ele>
        <time>2011-08-01T14:54:59Z</time>
      </trkpt>
    </trkseg>
  </trk>
  <trk>
    <name><![CDATA[PDIPR Boucle de Bruzac Variante 15km_2]]></name>
    <trkseg>
      <trkpt lat="45.39245" lon="0.8058">
        <ele>188.7</ele>
      </trkpt>
      <trkpt lat="45.39288" lon="0.80591">
        <ele>183.9</ele>
      </trkpt>
      <trkpt lat="45.39388" lon="0.80684">
        <ele>173.1</ele>
      </trkpt>
      <trkpt lat="45.39408" lon="0.80718">
        <ele>171.6</ele>
      </trkpt>
      <trkpt lat="45.39431" lon="0.80731">
        <ele>170.5</ele>
      </trkpt>
      <trkpt lat="45.39462" lon="0.80746">
        <ele>170</ele>
      </trkpt>
      <trkpt lat="45.39481" lon="0.80756">
        <ele>169.4</ele>
      </trkpt>
      <trkpt lat="45.39559" lon="0.80858">
        <ele>159.6</ele>
      </trkpt>
      <trkpt lat="45.39567" lon="0.8093">
        <ele>152.8</ele>
      </trkpt>
      <trkpt lat="45.39554" lon="0.81024">
        <ele>147.3</ele>
      </trkpt>
      <trkpt lat="45.39544" lon="0.81047">
        <ele>145.9</ele>
      </trkpt>
      <trkpt lat="45.39591" lon="0.8118">
        <ele>146.1</ele>
      </trkpt>
      <trkpt lat="45.39585" lon="0.81248">
        <ele>143.5</ele>
      </trkpt>
      <trkpt lat="45.39625" lon="0.8132">
        <ele>145</ele>
      </trkpt>
      <trkpt lat="45.39719" lon="0.81416">
        <ele>145.8</ele>
      </trkpt>
      <trkpt lat="45.39884" lon="0.815">
        <ele>150.5</ele>
      </trkpt>
      <trkpt lat="45.39928" lon="0.81596">
        <ele>144.9</ele>
      </trkpt>
      <trkpt lat="45.39968" lon="0.81603">
        <ele>147.3</ele>
      </trkpt>
      <trkpt lat="45.40008" lon="0.8158">
        <ele>149.1</ele>
      </trkpt>
      <trkpt lat="45.4002" lon="0.81544">
        <ele>148.9</ele>
      </trkpt>
      <trkpt lat="45.40064" lon="0.81482">
        <ele>150.5</ele>
      </trkpt>
      <trkpt lat="45.40048" lon="0.8156">
        <ele>148.8</ele>
      </trkpt>
      <trkpt lat="45.40059" lon="0.81619">
        <ele>147.2</ele>
      </trkpt>
      <trkpt lat="45.40068" lon="0.8166">
        <ele>145.8</ele>
      </trkpt>
      <trkpt lat="45.40088" lon="0.81686">
        <ele>146.7</ele>
      </trkpt>
      <trkpt lat="45.4009" lon="0.8172">
        <ele>147.2</ele>
      </trkpt>
      <trkpt lat="45.40089" lon="0.81739">
        <ele>150.1</ele>
      </trkpt>
      <trkpt lat="45.40106" lon="0.8177">
        <ele>154.8</ele>
      </trkpt>
      <trkpt lat="45.40098" lon="0.81809">
        <ele>157.8</ele>
      </trkpt>
      <trkpt lat="45.40231" lon="0.81918">
        <ele>178.3</ele>
      </trkpt>
      <trkpt lat="45.40314" lon="0.81983">
        <ele>182.7</ele>
      </trkpt>
      <trkpt lat="45.40403" lon="0.82095">
        <ele>183.8</ele>
      </trkpt>
      <trkpt lat="45.40523" lon="0.82182">
        <ele>194.1</ele>
      </trkpt>
      <trkpt lat="45.40542" lon="0.82178">
        <ele>194.1</ele>
      </trkpt>
      <trkpt lat="45.40631" lon="0.82157">
        <ele>197.1</ele>
      </trkpt>
      <trkpt lat="45.40674" lon="0.82177">
        <ele>200.7</ele>
      </trkpt>
      <trkpt lat="45.40692" lon="0.82276">
        <ele>196.6</ele>
      </trkpt>
      <trkpt lat="45.40726" lon="0.82408">
        <ele>195.7</ele>
      </trkpt>
      <trkpt lat="45.4075" lon="0.82468">
        <ele>195.4</ele>
      </trkpt>
      <trkpt lat="45.40778" lon="0.82518">
        <ele>194.5</ele>
      </trkpt>
      <trkpt lat="45.40833" lon="0.82569">
        <ele>198</ele>
      </trkpt>
      <trkpt lat="45.40867" lon="0.82604">
        <ele>198</ele>
      </trkpt>
      <trkpt lat="45.40944" lon="0.82661">
        <ele>194.1</ele>
      </trkpt>
      <trkpt lat="45.40977" lon="0.82696">
        <ele>192</ele>
      </trkpt>
      <trkpt lat="45.41064" lon="0.82709">
        <ele>196.6</ele>
      </trkpt>
      <trkpt lat="45.41111" lon="0.82699">
        <ele>198.4</ele>
      </trkpt>
      <trkpt lat="45.41156" lon="0.82645">
        <ele>199</ele>
      </trkpt>
      <trkpt lat="45.41113" lon="0.8264">
        <ele>205.6</ele>
      </trkpt>
      <trkpt lat="45.41075" lon="0.82554">
        <ele>216.7</ele>
      </trkpt>
      <trkpt lat="45.41058" lon="0.82517">
        <ele>220.6</ele>
      </trkpt>
      <trkpt lat="45.41031" lon="0.82517">
        <ele>221.3</ele>
      </trkpt>
      <trkpt lat="45.41025" lon="0.82465">
        <ele>222.9</ele>
      </trkpt>
      <trkpt lat="45.41024" lon="0.82302">
        <ele>232.4</ele>
      </trkpt>
      <trkpt lat="45.41024" lon="0.82247">
        <ele>233.1</ele>
      </trkpt>
      <trkpt lat="45.41035" lon="0.82169">
        <ele>232.5</ele>
      </trkpt>
      <trkpt lat="45.40991" lon="0.81943">
        <ele>242.7</ele>
      </trkpt>
      <trkpt lat="45.40956" lon="0.81832">
        <ele>241.7</ele>
      </trkpt>
      <trkpt lat="45.40935" lon="0.81778">
        <ele>238.2</ele>
      </trkpt>
      <trkpt lat="45.40863" lon="0.81681">
        <ele>232</ele>
      </trkpt>
      <trkpt lat="45.40952" lon="0.81668">
        <ele>231.8</ele>
      </trkpt>
      <trkpt lat="45.41031" lon="0.81661">
        <ele>231.6</ele>
      </trkpt>
      <trkpt lat="45.41071" lon="0.81689">
        <ele>230</ele>
      </trkpt>
      <trkpt lat="45.41067" lon="0.81648">
        <ele>230.9</ele>
      </trkpt>
      <trkpt lat="45.4113" lon="0.81482">
        <ele>236.8</ele>
      </trkpt>
      <trkpt lat="45.41177" lon="0.81333">
        <ele>239.4</ele>
      </trkpt>
      <trkpt lat="45.41211" lon="0.81211">
        <ele>238.8</ele>
      </trkpt>
      <trkpt lat="45.41222" lon="0.81173">
        <ele>240</ele>
      </trkpt>
      <trkpt lat="45.41193" lon="0.81084">
        <ele>238.6</ele>
      </trkpt>
      <trkpt lat="45.41178" lon="0.81014">
        <ele>237.2</ele>
      </trkpt>
      <trkpt lat="45.41171" lon="0.80951">
        <ele>237.2</ele>
      </trkpt>
      <trkpt lat="45.41158" lon="0.80912">
        <ele>236.7</ele>
      </trkpt>
      <trkpt lat="45.41104" lon="0.80842">
        <ele>235.9</ele>
      </trkpt>
      <trkpt lat="45.40992" lon="0.80751">
        <ele>230.7</ele>
      </trkpt>
      <trkpt lat="45.40744" lon="0.79926">
        <ele>214.8</ele>
      </trkpt>
      <trkpt lat="45.40459" lon="0.79757">
        <ele>203.9</ele>
      </trkpt>
      <trkpt lat="45.40331" lon="0.79676">
        <ele>205.5</ele>
      </trkpt>
      <trkpt lat="45.40221" lon="0.79695">
        <ele>210.1</ele>
      </trkpt>
      <trkpt lat="45.40034" lon="0.79741">
        <ele>220</ele>
      </trkpt>
      <trkpt lat="45.39954" lon="0.79725">
        <ele>218.2</ele>
      </trkpt>
      <trkpt lat="45.39915" lon="0.79751">
        <ele>218.8</ele>
      </trkpt>
      <trkpt lat="45.39904" lon="0.79729">
        <ele>217.5</ele>
      </trkpt>
      <trkpt lat="45.39843" lon="0.79668">
        <ele>218.7</ele>
      </trkpt>
      <trkpt lat="45.3977" lon="0.79598">
        <ele>217.6</ele>
      </trkpt>
    </trkseg>
  </trk>
</gpx>